[[{"header":{"parameterUnit":"m.s-1","parameterCategory":1,"la1":31.0,"la2":29.5877,"lo1":-88.7671,"lo2":-86.6584,"dx":0.0162,"dy":0.0185,"nx":115,"ny":88,"refTime":"2022-11-11T06:00:00:Z","depth":0,"parameterNumber":2,"parameterNumberName":"U-component_of_WINDS"},"data":[0.0,0.0,0.0,0.0,0.0,0.0,0.0,0.0,0.0,0.0,0.0,0.0,0.0,0.0,0.0,0.0,0.0,0.0,0.0,0.0,0.0,0.0,0.0,0.0,0.0,0.0,0.0,0.0,0.0,0.0,0.0,0.0,0.0,0.0,0.0,0.0,0.0,0.0,0.0,0.0,0.0,0.0,0.0,0.0,0.0,0.0,0.0,0.0,0.0,0.0,0.0,0.0,0.0,0.0,0.0,0.0,0.0,0.0,0.0,0.0,0.0,0.0,0.0,0.0,0.0,0.0,0.0,0.0,0.0,0.0,0.0,0.0,0.0,0.0,0.0,0.0,0.0,0.0,0.0,0.0,0.0,0.0,0.0,0.0,0.0,0.0,0.0,0.0,0.0,0.0,0.0,0.0,0.0,0.0,0.0,0.0,0.0,0.0,0.0,0.0,0.0,0.0,0.0,0.0,0.0,0.0,0.0,0.0,0.0,0.0,0.0,0.0,0.0,0.0,0.0,0.0,0.0,0.0,0.0,0.0,0.0,0.0,0.0,0.0,0.0,0.0,0.0,0.0,0.0,0.0,0.0,0.0,0.0,0.0,0.0,0.0,0.0,0.0,0.0,0.0,0.0,0.0,0.0,0.0,0.0,0.0,0.0,0.0,0.0,0.0,0.0,0.0,0.0,0.0,0.0,0.0,0.0,0.0,0.0,0.0,0.0,0.0,0.0,0.0,0.0,0.0,0.0,0.0,0.0,0.0,0.0,0.0,0.0,0.0,0.0,0.0,0.0,0.0,0.0,0.0,0.0,0.0,0.0,0.0,0.0,0.0,0.0,0.0,0.0,0.0,0.0,0.0,0.0,0.0,0.0,0.0,0.0,0.0,0.0,0.0,0.0,0.0,0.0,0.0,0.0,0.0,0.0,0.0,0.0,0.0,0.0,0.0,0.0,0.0,0.0,0.0,0.0,0.0,0.0,0.0,0.0,0.0,0.0,0.0,0.0,0.0,0.0,0.0,0.0,0.0,0.0,0.0,0.0,0.0,0.0,0.0,0.0,0.0,0.0,0.0,0.0,0.0,0.0,0.0,0.0,0.0,0.0,0.0,0.0,0.0,0.0,0.0,0.0,0.0,0.0,0.0,0.0,0.0,0.0,0.0,0.0,0.0,0.0,0.0,0.0,0.0,0.0,0.0,0.0,0.0,0.0,0.0,0.0,0.0,0.0,0.0,0.0,0.0,0.0,0.0,0.0,0.0,0.0,0.0,0.0,0.0,0.0,0.0,0.0,0.0,0.0,0.0,0.0,0.0,0.0,0.0,0.0,0.0,0.0,0.0,0.0,0.0,0.0,0.0,0.0,0.0,0.0,0.0,0.0,0.0,0.0,0.0,0.0,0.0,0.0,0.0,0.0,0.0,0.0,0.0,0.0,0.0,0.0,0.0,0.0,0.0,0.0,0.0,0.0,0.0,0.0,0.0,0.0,0.0,0.0,0.0,0.0,0.0,0.0,0.0,0.0,0.0,0.0,0.0,0.0,0.0,0.0,0.0,0.0,0.0,0.0,0.0,0.0,0.0,0.0,0.0,0.0,0.0,0.0,0.0,0.0,0.0,0.0,0.0,0.0,0.0,0.0,0.0,0.0,0.0,0.0,0.0,0.0,0.0,0.0,0.0,0.0,0.0,0.0,0.0,0.0,0.0,0.0,0.0,0.0,0.0,0.0,0.0,0.0,0.0,0.0,0.0,0.0,0.0,0.0,0.0,0.0,0.0,0.0,0.0,0.0,0.0,0.0,0.0,0.0,0.0,0.0,0.0,0.0,0.0,0.0,0.0,0.0,0.0,0.0,0.0,0.0,0.0,0.0,0.0,0.0,0.0,0.0,0.0,0.0,0.0,0.0,0.0,0.0,0.0,0.0,0.0,0.0,0.0,0.0,0.0,0.0,0.0,0.0,0.0,0.0,0.0,0.0,0.0,0.0,0.0,0.0,0.0,0.0,0.0,0.0,0.0,0.0,0.0,0.0,0.0,0.0,0.0,0.0,0.0,0.0,0.0,0.0,0.0,0.0,0.0,0.0,0.0,0.0,0.0,0.0,0.0,0.0,0.0,0.0,0.0,0.0,0.0,0.0,0.0,0.0,0.0,0.0,0.0,0.0,0.0,0.0,0.0,0.0,0.0,0.0,0.0,0.0,0.0,0.0,0.0,0.0,0.0,0.0,0.0,0.0,0.0,0.0,0.0,0.0,0.0,0.0,0.0,0.0,0.0,0.0,0.0,0.0,0.0,0.0,0.0,0.0,0.0,0.0,0.0,0.0,0.0,0.0,0.0,0.0,0.0,0.0,0.0,0.0,0.0,0.0,0.0,0.0,0.0,0.0,0.0,0.0,0.0,0.0,0.0,0.0,0.0,0.0,0.0,0.0,0.0,0.0,0.0,0.0,0.0,0.0,0.0,0.0,0.0,0.0,0.0,0.0,0.0,0.0,0.0,0.0,0.0,0.0,0.0,0.0,0.0,0.0,0.0,0.0,0.0,0.0,0.0,0.0,0.0,0.0,0.0,0.0,0.0,0.0,0.0,0.0,0.0,0.0,0.0,0.0,0.0,0.0,0.0,0.0,0.0,0.0,0.0,0.0,0.0,0.0,0.0,0.0,0.0,0.0,0.0,0.0,0.0,0.0,0.0,0.0,0.0,0.0,0.0,0.0,0.0,0.0,0.0,0.0,0.0,0.0,0.0,0.0,0.0,0.0,0.0,0.0,0.0,0.0,0.0,0.0,0.0,0.0,0.0,0.0,0.0,0.0,0.0,0.0,0.0,0.0,0.0,0.0,0.0,0.0,0.0,0.0,0.0,0.0,0.0,0.0,0.0,0.0,0.0,0.0,0.0,0.0,0.0,0.0,0.0,0.0,0.0,0.0,0.0,0.0,0.0,0.0,0.0,0.0,0.0,0.0,0.0,0.0,0.0,0.0,0.0,0.0,0.0,0.0,0.0,0.0,0.0,0.0,0.0,0.0,0.0,0.0,0.0,0.0,0.0,0.0,0.0,0.0,0.0,0.0,0.0,0.0,0.0,0.0,0.0,0.0,0.0,0.0,0.0,0.0,0.0,0.0,0.0,0.0,0.0,0.0,0.0,0.0,0.0,0.0,0.0,0.0,0.0,0.0,0.0,0.0,0.0,0.0,0.0,0.0,0.0,0.0,0.0,0.0,0.0,0.0,0.0,0.0,0.0,0.0,0.0,0.0,0.0,0.0,0.0,0.0,0.0,0.0,0.0,0.0,0.0,0.0,0.0,0.0,0.0,0.0,0.0,0.0,0.0,0.0,0.0,0.0,0.0,0.0,0.0,0.0,0.0,0.0,0.0,0.0,0.0,0.0,0.0,0.0,0.0,0.0,0.0,0.0,0.0,0.0,0.0,0.0,0.0,0.0,0.0,0.0,0.0,0.0,0.0,0.0,0.0,0.0,0.0,0.0,0.0,0.0,0.0,0.0,0.0,0.0,0.0,0.0,0.0,0.0,0.0,0.0,0.0,0.0,0.0,0.0,0.0,0.0,0.0,0.0,0.0,0.0,0.0,0.0,0.0,0.0,0.0,0.0,0.0,0.0,0.0,0.0,0.0,0.0,0.0,0.0,0.0,0.0,0.0,0.0,0.0,0.0,0.0,0.0,0.0,0.0,0.0,0.0,0.0,0.0,0.0,0.0,0.0,0.0,0.0,0.0,0.0,0.0,0.0,0.0,0.0,0.0,0.0,0.0,0.0,0.0,0.0,0.0,0.0,0.0,0.0,0.0,0.0,0.0,0.0,0.0,0.0,0.0,0.0,0.0,0.0,0.0,0.0,0.0,0.0,0.0,0.0,0.0,0.0,0.0,0.0,0.0,0.0,0.0,0.0,0.0,0.0,0.0,0.0,0.0,0.0,0.0,0.0,0.0,0.0,0.0,0.0,0.0,0.0,0.0,0.0,0.0,0.0,0.0,0.0,0.0,0.0,0.0,0.0,0.0,0.0,0.0,0.0,0.0,0.0,0.0,0.0,0.0,0.0,0.0,0.0,0.0,0.0,0.0,0.0,0.0,0.0,0.0,0.0,0.0,0.0,0.0,0.0,0.0,0.0,0.0,0.0,0.0,0.0,0.0,0.0,0.0,0.0,0.0,0.0,0.0,0.0,0.0,0.0,0.0,0.0,0.0,0.0,0.0,0.0,0.0,0.0,0.0,0.0,0.0,0.0,0.0,0.0,0.0,0.0,0.0,0.0,0.0,0.0,4.6922,0.0,0.0,0.0,4.58,0.0,0.0,0.0,0.0,0.0,0.0,0.0,0.0,0.0,0.0,0.0,0.0,0.0,0.0,0.0,0.0,0.0,0.0,0.0,0.0,0.0,0.0,0.0,0.0,0.0,0.0,0.0,0.0,0.0,0.0,0.0,0.0,0.0,0.0,0.0,0.0,0.0,0.0,0.0,0.0,0.0,0.0,0.0,0.0,0.0,0.0,0.0,0.0,0.0,0.0,0.0,0.0,0.0,0.0,0.0,0.0,0.0,0.0,0.0,0.0,0.0,0.0,0.0,0.0,0.0,0.0,0.0,0.0,0.0,0.0,0.0,0.0,0.0,0.0,0.0,0.0,0.0,0.0,0.0,0.0,0.0,0.0,0.0,0.0,0.0,0.0,0.0,0.0,0.0,0.0,0.0,0.0,0.0,0.0,0.0,0.0,0.0,0.0,0.0,0.0,0.0,0.0,0.0,0.0,0.0,0.0,0.0,0.0,0.0,0.0,4.7588,4.7115,4.6742,4.6278,4.5838,0.0,0.0,0.0,0.0,0.0,0.0,0.0,0.0,0.0,0.0,0.0,0.0,0.0,0.0,0.0,0.0,0.0,0.0,0.0,0.0,0.0,0.0,0.0,0.0,0.0,0.0,0.0,0.0,0.0,0.0,0.0,0.0,0.0,0.0,0.0,0.0,0.0,0.0,0.0,0.0,0.0,0.0,0.0,0.0,0.0,0.0,0.0,0.0,0.0,0.0,0.0,0.0,0.0,0.0,0.0,0.0,0.0,0.0,0.0,0.0,0.0,0.0,0.0,0.0,0.0,0.0,0.0,0.0,0.0,0.0,0.0,0.0,0.0,0.0,0.0,0.0,0.0,0.0,0.0,0.0,0.0,0.0,0.0,0.0,0.0,0.0,0.0,0.0,0.0,0.0,0.0,0.0,0.0,0.0,0.0,0.0,0.0,0.0,0.0,0.0,0.0,0.0,0.0,0.0,0.0,0.0,0.0,0.0,0.0,0.0,0.0,0.0,4.753,4.6989,4.6123,0.0,0.0,0.0,0.0,0.0,0.0,0.0,0.0,0.0,0.0,0.0,0.0,0.0,0.0,0.0,0.0,0.0,0.0,0.0,0.0,0.0,0.0,0.0,0.0,0.0,0.0,0.0,0.0,0.0,0.0,0.0,0.0,0.0,0.0,0.0,0.0,0.0,0.0,0.0,0.0,0.0,0.0,0.0,0.0,0.0,0.0,0.0,0.0,0.0,0.0,0.0,0.0,0.0,0.0,0.0,0.0,0.0,0.0,0.0,0.0,0.0,0.0,0.0,0.0,0.0,0.0,0.0,0.0,0.0,0.0,0.0,0.0,0.0,0.0,0.0,0.0,0.0,0.0,0.0,0.0,0.0,0.0,0.0,0.0,0.0,0.0,0.0,0.0,0.0,0.0,0.0,0.0,0.0,0.0,0.0,0.0,0.0,0.0,0.0,0.0,0.0,0.0,0.0,0.0,0.0,0.0,0.0,0.0,0.0,0.0,4.9637,4.956,4.873,0.0,4.7066,0.0,0.0,0.0,0.0,0.0,0.0,0.0,0.0,0.0,0.0,0.0,0.0,0.0,0.0,0.0,0.0,0.0,0.0,0.0,0.0,0.0,0.0,0.0,0.0,0.0,0.0,0.0,0.0,0.0,0.0,0.0,0.0,0.0,0.0,0.0,0.0,0.0,0.0,0.0,0.0,0.0,0.0,0.0,0.0,0.0,0.0,0.0,0.0,0.0,0.0,0.0,0.0,0.0,0.0,0.0,0.0,0.0,0.0,0.0,0.0,0.0,0.0,0.0,0.0,0.0,0.0,0.0,0.0,0.0,0.0,0.0,0.0,0.0,0.0,0.0,0.0,0.0,0.0,0.0,0.0,0.0,0.0,0.0,0.0,0.0,0.0,0.0,0.0,0.0,0.0,0.0,0.0,0.0,0.0,0.0,0.0,0.0,0.0,0.0,0.0,0.0,0.0,0.0,0.0,0.0,0.0,0.0,0.0,0.0,0.0,5.1515,5.0604,4.9668,4.9001,0.0,0.0,0.0,0.0,0.0,0.0,0.0,0.0,0.0,0.0,0.0,0.0,0.0,0.0,0.0,0.0,0.0,0.0,0.0,0.0,0.0,0.0,0.0,0.0,0.0,0.0,0.0,0.0,0.0,0.0,0.0,0.0,0.0,0.0,0.0,0.0,0.0,0.0,0.0,0.0,0.0,0.0,0.0,0.0,0.0,0.0,0.0,0.0,0.0,0.0,0.0,0.0,0.0,0.0,0.0,0.0,0.0,0.0,0.0,0.0,0.0,0.0,0.0,0.0,0.0,0.0,0.0,0.0,0.0,0.0,0.0,0.0,0.0,0.0,0.0,0.0,0.0,0.0,0.0,0.0,0.0,0.0,0.0,0.0,0.0,0.0,0.0,0.0,0.0,0.0,0.0,0.0,0.0,0.0,0.0,0.0,0.0,0.0,0.0,0.0,0.0,0.0,0.0,0.0,0.0,0.0,0.0,0.0,0.0,0.0,5.2923,5.2986,5.1834,5.1354,5.079,5.007,0.0,0.0,0.0,0.0,0.0,0.0,0.0,0.0,0.0,0.0,0.0,0.0,0.0,0.0,0.0,0.0,0.0,0.0,0.0,0.0,0.0,0.0,0.0,0.0,0.0,0.0,0.0,0.0,0.0,0.0,0.0,0.0,0.0,0.0,0.0,0.0,0.0,0.0,0.0,0.0,0.0,0.0,0.0,0.0,0.0,0.0,0.0,0.0,0.0,0.0,0.0,0.0,0.0,0.0,0.0,0.0,0.0,0.0,0.0,0.0,0.0,0.0,0.0,0.0,0.0,0.0,0.0,0.0,0.0,0.0,0.0,0.0,0.0,0.0,0.0,0.0,0.0,0.0,0.0,0.0,0.0,0.0,0.0,0.0,0.0,0.0,0.0,0.0,0.0,0.0,0.0,0.0,0.0,0.0,0.0,0.0,0.0,0.0,0.0,0.0,0.0,0.0,0.0,0.0,0.0,0.0,0.0,0.0,5.2575,5.3413,5.3708,5.3514,5.4199,5.3464,0.0,0.0,0.0,0.0,0.0,0.0,0.0,0.0,0.0,0.0,0.0,0.0,0.0,0.0,0.0,0.0,0.0,0.0,0.0,0.0,0.0,0.0,0.0,0.0,0.0,0.0,0.0,0.0,0.0,0.0,0.0,0.0,0.0,0.0,0.0,0.0,0.0,0.0,0.0,0.0,0.0,0.0,0.0,0.0,0.0,0.0,0.0,0.0,0.0,0.0,0.0,0.0,0.0,0.0,0.0,0.0,0.0,0.0,0.0,0.0,0.0,0.0,0.0,0.0,0.0,0.0,0.0,0.0,0.0,0.0,0.0,0.0,0.0,0.0,0.0,0.0,0.0,0.0,0.0,0.0,0.0,0.0,0.0,0.0,0.0,0.0,0.0,0.0,0.0,0.0,0.0,0.0,0.0,0.0,0.0,0.0,0.0,0.0,0.0,0.0,0.0,0.0,0.0,0.0,0.0,0.0,0.0,0.0,0.0,5.4349,5.5622,5.6761,5.7637,5.6459,5.4757,0.0,0.0,0.0,0.0,0.0,0.0,0.0,0.0,0.0,0.0,0.0,0.0,0.0,0.0,0.0,0.0,0.0,0.0,0.0,0.0,0.0,0.0,0.0,0.0,0.0,0.0,0.0,0.0,0.0,0.0,0.0,0.0,0.0,0.0,0.0,0.0,0.0,0.0,0.0,0.0,0.0,0.0,0.0,0.0,0.0,0.0,0.0,0.0,0.0,0.0,0.0,0.0,0.0,0.0,0.0,0.0,0.0,0.0,0.0,0.0,0.0,0.0,0.0,0.0,0.0,0.0,0.0,0.0,0.0,0.0,0.0,0.0,0.0,0.0,0.0,0.0,0.0,0.0,0.0,0.0,0.0,0.0,0.0,0.0,0.0,0.0,0.0,0.0,0.0,0.0,0.0,0.0,0.0,0.0,0.0,0.0,0.0,0.0,0.0,0.0,0.0,0.0,0.0,0.0,0.0,0.0,0.0,0.0,0.0,5.5691,5.6746,5.7809,5.8758,5.7443,5.5854,0.0,0.0,0.0,0.0,0.0,0.0,0.0,0.0,0.0,0.0,0.0,0.0,0.0,0.0,0.0,0.0,0.0,0.0,0.0,0.0,0.0,0.0,0.0,0.0,0.0,0.0,0.0,0.0,0.0,0.0,0.0,0.0,0.0,0.0,0.0,0.0,0.0,0.0,0.0,0.0,0.0,0.0,0.0,0.0,0.0,0.0,0.0,0.0,0.0,0.0,0.0,0.0,0.0,0.0,0.0,0.0,0.0,0.0,0.0,0.0,0.0,0.0,0.0,0.0,0.0,0.0,0.0,0.0,0.0,0.0,0.0,0.0,0.0,0.0,0.0,0.0,0.0,0.0,0.0,0.0,0.0,0.0,0.0,0.0,0.0,0.0,0.0,0.0,0.0,0.0,0.0,0.0,0.0,0.0,0.0,0.0,0.0,0.0,0.0,0.0,0.0,0.0,0.0,0.0,0.0,0.0,0.0,0.0,5.5781,5.6523,5.6609,5.6643,5.6377,5.7181,5.6714,0.0,0.0,0.0,0.0,0.0,0.0,0.0,0.0,0.0,0.0,0.0,0.0,0.0,0.0,0.0,0.0,0.0,0.0,0.0,0.0,0.0,0.0,0.0,0.0,0.0,0.0,0.0,0.0,0.0,0.0,0.0,0.0,0.0,0.0,0.0,0.0,0.0,0.0,0.0,0.0,0.0,0.0,0.0,0.0,0.0,0.0,0.0,0.0,0.0,0.0,0.0,0.0,0.0,0.0,0.0,0.0,0.0,0.0,0.0,0.0,0.0,0.0,0.0,0.0,0.0,0.0,0.0,0.0,0.0,0.0,0.0,0.0,0.0,0.0,0.0,0.0,0.0,0.0,0.0,0.0,0.0,0.0,0.0,0.0,0.0,0.0,0.0,0.0,0.0,0.0,0.0,0.0,0.0,0.0,0.0,0.0,0.0,0.0,0.0,0.0,0.0,0.0,0.0,0.0,0.0,0.0,0.0,0.0,0.0,6.0039,5.8964,5.8348,5.827,5.7829,5.6753,0.0,0.0,0.0,0.0,0.0,0.0,0.0,0.0,0.0,0.0,0.0,0.0,0.0,0.0,0.0,0.0,0.0,0.0,0.0,0.0,0.0,0.0,0.0,0.0,0.0,0.0,0.0,0.0,0.0,0.0,0.0,0.0,0.0,0.0,0.0,0.0,0.0,0.0,0.0,0.0,0.0,0.0,0.0,0.0,0.0,0.0,0.0,0.0,0.0,0.0,0.0,0.0,0.0,0.0,0.0,0.0,0.0,0.0,0.0,0.0,0.0,0.0,0.0,0.0,0.0,0.0,0.0,0.0,0.0,0.0,0.0,0.0,0.0,0.0,0.0,0.0,0.0,0.0,0.0,0.0,0.0,0.0,0.0,0.0,0.0,0.0,0.0,0.0,0.0,0.0,0.0,0.0,0.0,0.0,0.0,0.0,0.0,0.0,0.0,0.0,0.0,0.0,0.0,0.0,0.0,0.0,0.0,0.0,0.0,6.1562,5.9765,5.8711,5.8711,5.7986,5.6947,5.5548,0.0,0.0,0.0,0.0,0.0,0.0,0.0,0.0,0.0,0.0,0.0,0.0,0.0,0.0,0.0,0.0,0.0,0.0,0.0,0.0,0.0,0.0,0.0,0.0,0.0,0.0,0.0,0.0,0.0,0.0,0.0,0.0,0.0,0.0,0.0,0.0,0.0,0.0,0.0,0.0,0.0,0.0,0.0,0.0,0.0,0.0,0.0,0.0,0.0,0.0,0.0,0.0,0.0,0.0,0.0,0.0,0.0,0.0,0.0,0.0,0.0,0.0,0.0,0.0,0.0,0.0,0.0,0.0,0.0,0.0,0.0,0.0,0.0,0.0,0.0,0.0,0.0,0.0,0.0,0.0,0.0,0.0,0.0,0.0,0.0,0.0,0.0,0.0,0.0,0.0,0.0,0.0,0.0,0.0,0.0,0.0,0.0,0.0,0.0,0.0,0.0,0.0,0.0,0.0,0.0,0.0,0.0,0.0,6.168,5.9297,5.8086,5.8086,5.7824,5.7247,0.0,0.0,0.0,0.0,0.0,0.0,0.0,0.0,0.0,0.0,0.0,0.0,0.0,0.0,0.0,0.0,0.0,0.0,0.0,0.0,0.0,0.0,0.0,0.0,0.0,0.0,0.0,0.0,0.0,0.0,0.0,0.0,0.0,0.0,0.0,0.0,0.0,0.0,0.0,0.0,0.0,0.0,0.0,0.0,0.0,0.0,0.0,0.0,0.0,0.0,0.0,0.0,0.0,0.0,0.0,0.0,0.0,0.0,0.0,0.0,0.0,0.0,0.0,0.0,0.0,0.0,0.0,0.0,0.0,0.0,0.0,0.0,0.0,0.0,0.0,0.0,0.0,0.0,0.0,0.0,0.0,0.0,0.0,0.0,0.0,0.0,0.0,0.0,0.0,0.0,0.0,0.0,0.0,0.0,0.0,0.0,0.0,0.0,0.0,0.0,0.0,0.0,0.0,0.0,0.0,0.0,0.0,0.0,0.0,6.1601,6.043,5.9726,5.9726,5.8994,5.818,0.0,0.0,0.0,0.0,0.0,0.0,0.0,0.0,0.0,0.0,0.0,0.0,0.0,0.0,0.0,0.0,0.0,0.0,0.0,0.0,0.0,0.0,0.0,0.0,0.0,0.0,0.0,0.0,0.0,0.0,0.0,0.0,0.0,0.0,0.0,0.0,0.0,0.0,0.0,0.0,0.0,0.0,0.0,0.0,0.0,0.0,0.0,0.0,0.0,0.0,0.0,0.0,0.0,0.0,0.0,0.0,0.0,0.0,0.0,0.0,0.0,0.0,0.0,0.0,0.0,0.0,0.0,0.0,0.0,0.0,0.0,0.0,0.0,0.0,0.0,0.0,0.0,0.0,0.0,0.0,0.0,0.0,0.0,0.0,0.0,0.0,0.0,0.0,0.0,0.0,0.0,0.0,0.0,0.0,0.0,0.0,0.0,0.0,0.0,0.0,0.0,0.0,0.0,0.0,0.0,0.0,0.0,0.0,6.1666,6.1719,6.1211,6.0937,6.0937,5.9628,5.851,0.0,0.0,0.0,0.0,0.0,0.0,0.0,0.0,0.0,0.0,0.0,0.0,0.0,0.0,0.0,0.0,0.0,0.0,0.0,0.0,0.0,0.0,0.0,0.0,0.0,0.0,0.0,0.0,0.0,0.0,0.0,0.0,0.0,0.0,0.0,0.0,0.0,0.0,0.0,0.0,0.0,0.0,0.0,0.0,0.0,0.0,0.0,0.0,0.0,0.0,0.0,0.0,0.0,0.0,0.0,0.0,0.0,0.0,0.0,0.0,0.0,0.0,0.0,0.0,0.0,0.0,0.0,0.0,0.0,0.0,0.0,0.0,0.0,0.0,0.0,0.0,0.0,0.0,0.0,0.0,0.0,0.0,0.0,0.0,0.0,0.0,0.0,0.0,0.0,0.0,0.0,0.0,0.0,0.0,0.0,0.0,0.0,0.0,0.0,0.0,0.0,0.0,0.0,0.0,0.0,0.0,0.0,0.0,6.1953,6.1992,6.1953,6.1914,6.1797,6.0156,5.8816,0.0,0.0,0.0,0.0,0.0,0.0,0.0,0.0,0.0,0.0,0.0,0.0,0.0,0.0,0.0,0.0,0.0,0.0,0.0,0.0,0.0,0.0,0.0,0.0,0.0,0.0,0.0,0.0,0.0,0.0,0.0,0.0,0.0,0.0,0.0,0.0,0.0,0.0,0.0,0.0,0.0,0.0,0.0,0.0,0.0,0.0,0.0,0.0,0.0,0.0,0.0,0.0,0.0,0.0,0.0,0.0,0.0,0.0,0.0,0.0,0.0,0.0,0.0,0.0,0.0,0.0,0.0,0.0,0.0,0.0,0.0,0.0,0.0,0.0,0.0,0.0,0.0,0.0,0.0,0.0,0.0,0.0,0.0,0.0,0.0,0.0,0.0,0.0,0.0,0.0,0.0,0.0,0.0,0.0,0.0,0.0,0.0,0.0,0.0,0.0,0.0,0.0,0.0,0.0,0.0,0.0,0.0,0.0,6.375,6.375,6.375,6.3398,6.2734,6.164,6.0604,0.0,0.0,0.0,0.0,0.0,0.0,0.0,0.0,0.0,0.0,0.0,0.0,0.0,0.0,0.0,0.0,0.0,0.0,0.0,0.0,0.0,0.0,0.0,0.0,0.0,0.0,0.0,0.0,0.0,0.0,0.0,0.0,0.0,0.0,0.0,0.0,0.0,0.0,0.0,0.0,0.0,0.0,0.0,0.0,0.0,0.0,0.0,0.0,5.6925,0.0,0.0,0.0,0.0,0.0,0.0,0.0,0.0,0.0,0.0,0.0,0.0,0.0,0.0,0.0,0.0,0.0,0.0,0.0,0.0,0.0,0.0,0.0,0.0,0.0,0.0,0.0,0.0,0.0,0.0,0.0,0.0,0.0,0.0,0.0,0.0,0.0,0.0,0.0,0.0,0.0,0.0,0.0,0.0,0.0,0.0,0.0,0.0,0.0,0.0,0.0,0.0,0.0,0.0,0.0,0.0,0.0,0.0,0.0,6.4297,6.4297,6.4297,6.4062,6.3594,6.2734,6.1626,0.0,0.0,0.0,0.0,0.0,0.0,0.0,0.0,0.0,0.0,0.0,0.0,0.0,0.0,0.0,0.0,0.0,0.0,0.0,0.0,0.0,0.0,0.0,0.0,0.0,0.0,0.0,0.0,0.0,0.0,0.0,0.0,0.0,0.0,0.0,0.0,0.0,0.0,0.0,0.0,0.0,0.0,0.0,0.0,0.0,0.0,0.0,0.0,0.0,0.0,0.0,0.0,0.0,0.0,0.0,0.0,0.0,0.0,0.0,0.0,0.0,0.0,0.0,0.0,0.0,0.0,0.0,0.0,0.0,0.0,0.0,0.0,0.0,0.0,0.0,0.0,0.0,0.0,0.0,0.0,0.0,0.0,0.0,0.0,0.0,0.0,0.0,0.0,0.0,0.0,0.0,0.0,0.0,0.0,0.0,0.0,0.0,0.0,0.0,0.0,0.0,0.0,0.0,0.0,0.0,0.0,0.0,6.4297,6.4844,6.4687,6.4687,6.4648,6.4492,6.3789,6.2524,6.0633,0.0,0.0,0.0,0.0,0.0,0.0,0.0,0.0,0.0,0.0,0.0,0.0,0.0,0.0,0.0,0.0,0.0,0.0,0.0,0.0,0.0,0.0,0.0,0.0,0.0,0.0,0.0,0.0,0.0,0.0,0.0,0.0,0.0,0.0,0.0,0.0,0.0,0.0,5.636,5.7018,0.0,0.0,0.0,0.0,0.0,0.0,0.0,0.0,5.988,0.0,0.0,0.0,0.0,0.0,0.0,0.0,0.0,0.0,0.0,0.0,0.0,0.0,0.0,0.0,0.0,0.0,0.0,0.0,0.0,0.0,0.0,0.0,0.0,0.0,0.0,0.0,0.0,0.0,0.0,0.0,0.0,0.0,0.0,0.0,0.0,0.0,0.0,0.0,0.0,0.0,0.0,0.0,0.0,0.0,0.0,0.0,0.0,0.0,0.0,0.0,0.0,0.0,0.0,0.0,0.0,6.4101,6.6367,6.7226,6.6484,6.6484,6.6133,6.543,6.5234,6.4281,6.2357,0.0,0.0,0.0,0.0,0.0,0.0,0.0,0.0,0.0,0.0,0.0,0.0,0.0,0.0,0.0,0.0,0.0,0.0,0.0,0.0,0.0,0.0,0.0,0.0,0.0,0.0,0.0,0.0,0.0,0.0,0.0,0.0,0.0,0.0,0.0,0.0,0.0,0.0,0.0,5.8294,5.872,0.0,0.0,0.0,0.0,0.0,0.0,0.0,0.0,5.9108,0.0,0.0,0.0,0.0,0.0,0.0,0.0,0.0,0.0,0.0,0.0,0.0,0.0,0.0,0.0,0.0,0.0,0.0,0.0,0.0,0.0,0.0,0.0,0.0,0.0,0.0,0.0,0.0,0.0,0.0,0.0,0.0,0.0,0.0,0.0,0.0,0.0,0.0,0.0,0.0,0.0,0.0,0.0,0.0,0.0,0.0,0.0,0.0,0.0,0.0,0.0,0.0,0.0,0.0,0.0,6.5078,6.668,6.7305,6.6914,6.6914,6.6719,6.6289,6.5859,6.5141,0.0,0.0,0.0,0.0,0.0,0.0,0.0,0.0,0.0,0.0,0.0,0.0,0.0,0.0,0.0,0.0,0.0,0.0,0.0,0.0,0.0,0.0,0.0,0.0,0.0,0.0,0.0,0.0,0.0,0.0,0.0,0.0,0.0,0.0,0.0,0.0,0.0,0.0,0.0,0.0,5.9339,6.0035,6.046,0.0,0.0,0.0,0.0,0.0,0.0,6.1621,6.1466,0.0,0.0,0.0,0.0,0.0,0.0,0.0,0.0,0.0,0.0,0.0,0.0,0.0,0.0,0.0,0.0,0.0,0.0,0.0,0.0,0.0,0.0,0.0,0.0,0.0,0.0,0.0,0.0,0.0,0.0,0.0,0.0,0.0,0.0,0.0,0.0,0.0,0.0,0.0,0.0,0.0,0.0,0.0,0.0,0.0,0.0,0.0,0.0,0.0,0.0,0.0,0.0,0.0,0.0,0.0,6.6172,6.7148,6.7656,6.7656,6.75,6.7383,6.7383,6.6562,6.5966,0.0,0.0,0.0,0.0,0.0,0.0,0.0,0.0,0.0,0.0,0.0,0.0,0.0,0.0,0.0,0.0,0.0,0.0,0.0,0.0,0.0,0.0,0.0,0.0,0.0,0.0,0.0,0.0,0.0,0.0,0.0,0.0,0.0,0.0,0.0,0.0,0.0,0.0,0.0,0.0,0.0,6.135,6.1389,6.2124,0.0,0.0,0.0,0.0,6.3361,6.4348,0.0,0.0,0.0,0.0,0.0,0.0,0.0,0.0,0.0,0.0,0.0,0.0,0.0,0.0,0.0,0.0,0.0,0.0,0.0,0.0,0.0,0.0,0.0,0.0,0.0,0.0,0.0,0.0,0.0,0.0,0.0,0.0,0.0,0.0,0.0,0.0,0.0,0.0,0.0,0.0,0.0,0.0,0.0,0.0,0.0,0.0,0.0,0.0,0.0,0.0,0.0,0.0,0.0,0.0,0.0,0.0,6.7969,6.9453,7.0234,7.0234,6.9492,6.9101,6.9101,6.832,6.7461,0.0,0.0,0.0,0.0,0.0,0.0,0.0,0.0,0.0,0.0,0.0,0.0,0.0,0.0,0.0,0.0,0.0,0.0,0.0,0.0,0.0,0.0,0.0,0.0,0.0,0.0,0.0,0.0,0.0,0.0,0.0,0.0,0.0,0.0,0.0,0.0,0.0,0.0,0.0,0.0,0.0,6.224,6.224,6.3013,6.3826,0.0,0.0,6.518,6.5703,6.5954,0.0,0.0,0.0,0.0,0.0,0.0,0.0,0.0,0.0,0.0,0.0,0.0,0.0,0.0,0.0,0.0,0.0,0.0,0.0,0.0,0.0,0.0,0.0,0.0,0.0,0.0,0.0,0.0,0.0,0.0,0.0,0.0,0.0,0.0,0.0,0.0,0.0,0.0,0.0,0.0,0.0,0.0,0.0,0.0,0.0,0.0,0.0,0.0,0.0,0.0,0.0,0.0,0.0,0.0,0.0,6.914,6.9609,7.0312,7.0703,7.0664,6.9844,6.9414,6.9414,6.9062,6.8476,0.0,0.0,0.0,0.0,0.0,0.0,0.0,0.0,0.0,0.0,0.0,0.0,0.0,0.0,0.0,0.0,0.0,0.0,0.0,0.0,0.0,0.0,0.0,0.0,0.0,0.0,0.0,0.0,0.0,0.0,0.0,0.0,0.0,0.0,0.0,0.0,0.0,0.0,0.0,0.0,0.0,0.0,6.3207,6.5141,0.0,0.0,0.0,6.7444,6.6379,0.0,0.0,0.0,0.0,0.0,0.0,0.0,0.0,0.0,0.0,0.0,0.0,0.0,0.0,0.0,0.0,0.0,0.0,0.0,0.0,0.0,0.0,0.0,0.0,0.0,0.0,0.0,0.0,0.0,0.0,0.0,0.0,0.0,0.0,0.0,0.0,0.0,0.0,0.0,0.0,0.0,0.0,0.0,0.0,0.0,0.0,0.0,0.0,0.0,0.0,0.0,0.0,0.0,0.0,0.0,0.0,0.0,7.1328,7.1562,7.168,7.164,7.082,7.0273,7.0039,6.9844,0.0,0.0,0.0,0.0,0.0,0.0,0.0,0.0,0.0,0.0,0.0,0.0,0.0,0.0,0.0,0.0,0.0,0.0,0.0,0.0,0.0,0.0,0.0,0.0,0.0,0.0,0.0,5.2337,0.0,0.0,0.0,0.0,0.0,0.0,0.0,0.0,0.0,0.0,0.0,0.0,0.0,0.0,6.4754,6.4097,6.6379,6.7539,0.0,0.0,6.9087,6.742,6.8425,6.8966,0.0,0.0,0.0,0.0,0.0,0.0,0.0,0.0,0.0,0.0,0.0,0.0,0.0,0.0,0.0,0.0,0.0,0.0,0.0,0.0,0.0,0.0,0.0,0.0,0.0,0.0,0.0,0.0,0.0,0.0,0.0,0.0,0.0,0.0,0.0,0.0,0.0,0.0,0.0,0.0,0.0,0.0,0.0,0.0,0.0,0.0,0.0,0.0,0.0,0.0,0.0,0.0,0.0,0.0,0.0,7.3086,7.3945,7.4336,7.4297,7.3476,7.2656,7.1836,7.1055,7.0976,0.0,0.0,0.0,0.0,0.0,0.0,0.0,0.0,0.0,0.0,0.0,0.0,0.0,0.0,0.0,0.0,0.0,0.0,0.0,0.0,0.0,0.0,0.0,0.0,0.0,0.0,0.0,0.0,0.0,0.0,0.0,0.0,0.0,0.0,0.0,0.0,0.0,0.0,0.0,0.0,0.0,6.4986,6.4909,6.576,6.6611,0.0,0.0,6.9069,6.9645,7.0518,7.1098,7.0943,0.0,0.0,0.0,0.0,0.0,0.0,0.0,0.0,0.0,0.0,0.0,0.0,0.0,0.0,0.0,0.0,0.0,0.0,0.0,0.0,0.0,0.0,0.0,0.0,0.0,0.0,0.0,0.0,0.0,0.0,0.0,0.0,0.0,0.0,0.0,0.0,0.0,0.0,0.0,0.0,0.0,0.0,0.0,0.0,0.0,0.0,0.0,0.0,0.0,0.0,0.0,0.0,0.0,7.3945,7.5664,7.6055,7.6211,7.6172,7.5351,7.4492,7.3633,7.2734,7.2187,0.0,0.0,0.0,0.0,0.0,0.0,0.0,0.0,0.0,0.0,0.0,0.0,0.0,0.0,0.0,0.0,0.0,0.0,0.0,0.0,0.0,0.0,0.0,0.0,0.0,0.0,0.0,0.0,5.8758,5.988,6.0364,0.0,0.0,0.0,0.0,0.0,0.0,0.0,0.0,0.0,0.0,6.7152,6.665,6.8622,0.0,0.0,6.992,7.0849,7.0092,7.1197,7.1932,7.1369,7.1717,0.0,0.0,0.0,0.0,0.0,0.0,0.0,0.0,0.0,0.0,0.0,0.0,0.0,0.0,0.0,0.0,0.0,0.0,0.0,0.0,0.0,0.0,0.0,0.0,0.0,0.0,0.0,0.0,0.0,0.0,0.0,0.0,0.0,0.0,0.0,0.0,0.0,0.0,0.0,0.0,0.0,0.0,0.0,0.0,0.0,0.0,0.0,0.0,0.0,0.0,0.0,0.0,7.6094,7.7578,7.7812,7.7695,7.7187,7.6601,7.5742,7.4648,7.4023,7.3398,0.0,0.0,0.0,0.0,0.0,0.0,0.0,0.0,0.0,0.0,0.0,0.0,0.0,0.0,0.0,0.0,0.0,0.0,0.0,0.0,0.0,0.0,0.0,0.0,0.0,0.0,0.0,0.0,6.0711,6.1949,6.3052,0.0,0.0,0.0,0.0,0.0,0.0,0.0,0.0,0.0,0.0,6.8584,6.8003,7.0363,7.1562,6.9821,7.17,7.2921,7.1721,7.2534,7.3132,7.2529,0.0,0.0,0.0,0.0,0.0,0.0,0.0,0.0,0.0,0.0,0.0,0.0,0.0,0.0,0.0,0.0,0.0,0.0,0.0,0.0,0.0,0.0,0.0,0.0,0.0,0.0,0.0,0.0,0.0,0.0,6.1445,0.0,0.0,0.0,0.0,0.0,0.0,0.0,0.0,0.0,0.0,0.0,0.0,0.0,0.0,0.0,0.0,0.0,0.0,0.0,0.0,0.0,0.0,7.7617,7.8476,7.9258,7.8867,7.7305,7.7187,7.6367,7.4726,7.4609,7.457,7.4492,0.0,0.0,0.0,0.0,0.0,0.0,0.0,0.0,0.0,0.0,0.0,0.0,0.0,0.0,0.0,0.0,0.0,0.0,0.0,0.0,0.0,0.0,0.0,0.0,0.0,0.0,5.8874,6.0902,6.307,0.0,0.0,0.0,0.0,0.0,0.0,0.0,0.0,0.0,0.0,6.8816,6.8816,6.8854,7.0247,7.1407,7.1291,7.3369,7.4999,7.4883,7.4978,7.505,0.0,0.0,0.0,0.0,0.0,0.0,0.0,0.0,0.0,0.0,0.0,0.0,0.0,0.0,0.0,0.0,0.0,0.0,0.0,0.0,0.0,0.0,0.0,0.0,0.0,0.0,0.0,6.2187,6.2969,0.0,0.0,0.0,0.0,0.0,0.0,0.0,0.0,0.0,0.0,0.0,6.7812,6.8594,0.0,0.0,0.0,0.0,0.0,0.0,0.0,0.0,0.0,0.0,0.0,0.0,8.0156,8.0976,8.0742,8.0,7.8906,7.8867,7.8047,7.6367,7.5742,7.5195,7.4609,0.0,0.0,0.0,0.0,0.0,0.0,0.0,0.0,0.0,0.0,0.0,0.0,0.0,0.0,0.0,0.0,0.0,0.0,0.0,0.0,0.0,0.0,0.0,0.0,0.0,6.1911,0.0,0.0,0.0,0.0,0.0,0.0,0.0,0.0,0.0,0.0,0.0,6.9259,6.9568,7.0595,7.133,7.133,7.2297,7.3032,0.0,0.0,0.0,0.0,0.0,0.0,0.0,0.0,0.0,0.0,0.0,0.0,0.0,0.0,7.1988,7.1429,7.1334,7.1158,7.0595,0.0,0.0,0.0,0.0,0.0,0.0,0.0,0.0,0.0,0.0,0.0,0.0,0.0,0.0,6.5547,0.0,6.6094,0.0,0.0,0.0,0.0,0.0,0.0,0.0,0.0,6.8633,6.9414,6.9531,7.0039,7.0664,0.0,7.2695,7.3203,0.0,0.0,0.0,0.0,0.0,0.0,0.0,0.0,8.2031,8.2265,8.1758,8.1054,8.0195,7.9844,7.9062,7.7695,7.6523,7.5625,7.5078,7.4219,7.3359,0.0,0.0,0.0,0.0,0.0,0.0,0.0,0.0,0.0,0.0,0.0,0.0,0.0,0.0,0.0,0.0,0.0,0.0,0.0,0.0,0.0,0.0,0.0,6.4135,0.0,0.0,0.0,0.0,0.0,0.0,0.0,0.0,0.0,6.8914,6.9761,7.0573,7.0883,7.2142,7.3032,7.3032,0.0,0.0,0.0,0.0,0.0,0.0,0.0,7.6505,7.5383,7.6103,7.6591,7.5817,7.5662,7.5662,7.5662,0.0,0.0,7.3403,7.3054,7.2877,7.2336,7.2197,7.2352,7.2932,7.26,7.2523,0.0,0.0,0.0,0.0,0.0,0.0,0.0,0.0,6.9258,6.9219,0.0,6.9336,0.0,0.0,0.0,0.0,0.0,6.9492,0.0,0.0,6.9648,7.0469,7.1992,7.207,7.293,7.457,7.5469,7.6328,7.7148,7.7265,0.0,0.0,0.0,0.0,0.0,0.0,8.3203,8.2383,8.2304,8.1875,8.0976,8.0195,7.9336,7.8476,7.6836,7.5937,7.5859,7.5078,7.4219,7.3398,7.4062,0.0,0.0,0.0,0.0,0.0,0.0,0.0,0.0,0.0,0.0,0.0,0.0,0.0,0.0,0.0,0.0,0.0,0.0,0.0,0.0,6.4058,0.0,0.0,0.0,0.0,0.0,0.0,0.0,0.0,0.0,0.0,7.1407,7.1424,7.1711,7.2623,0.0,0.0,0.0,0.0,7.6436,7.6436,7.7867,7.895,7.895,7.8317,7.7775,7.7727,0.0,0.0,7.8834,7.8989,7.8873,7.895,7.8834,7.7945,7.4695,7.4231,7.4193,7.4131,7.4146,7.4069,7.4108,7.4262,7.4247,7.0377,0.0,0.0,0.0,0.0,6.8124,6.828,6.851,6.8499,6.8812,6.9408,6.9447,0.0,0.0,0.0,0.0,0.0,0.0,7.1601,7.2226,7.2812,7.3359,7.3867,7.3867,7.4101,7.4648,7.6094,7.7265,7.8164,7.9336,8.0469,8.1523,0.0,0.0,0.0,0.0,8.3476,8.3203,8.2617,8.1875,8.1015,8.0742,7.9961,7.8555,7.7422,7.6523,7.5937,7.5664,7.5117,7.4258,7.3867,0.0,0.0,0.0,0.0,0.0,0.0,0.0,0.0,0.0,0.0,0.0,0.0,0.0,0.0,0.0,0.0,0.0,0.0,0.0,6.5933,6.5933,6.6629,0.0,0.0,0.0,0.0,0.0,0.0,0.0,0.0,0.0,7.3938,7.3512,7.3667,0.0,0.0,7.5198,7.6436,7.7016,7.7326,7.7326,7.8278,0.0,7.9037,7.9269,7.9308,7.8733,7.8617,7.8694,7.895,7.9028,7.9028,7.9028,7.9028,7.8641,7.7829,7.7543,7.7504,7.7543,7.7543,7.7543,7.7558,7.7534,7.7519,7.2856,7.1382,7.1069,7.064,7.0175,7.0145,7.0338,7.0679,7.0665,7.0982,7.1464,7.1464,7.147,7.1439,7.147,0.0,0.0,0.0,7.332,7.3828,7.4375,7.4805,7.5117,7.5117,7.5508,7.6172,7.7539,7.8633,7.9531,8.0859,8.1953,8.2773,0.0,0.0,8.4336,8.3867,8.3437,8.3086,8.2578,8.2031,8.1523,8.082,7.9844,7.8555,7.7656,7.6953,7.6445,7.6406,7.6015,7.5156,7.4961,7.4531,0.0,0.0,0.0,0.0,0.0,0.0,0.0,0.0,0.0,0.0,0.0,6.251,6.3362,0.0,0.0,0.0,6.5915,6.7209,6.8369,6.833,0.0,0.0,0.0,0.0,0.0,0.0,0.0,7.3601,7.406,7.4827,7.5972,7.5701,7.5639,7.6311,7.6258,7.663,7.8022,0.0,7.8216,7.8216,7.8665,7.9013,7.9013,7.94,7.9647,7.9481,7.9506,7.9647,7.9918,7.9995,7.9995,7.9995,7.9995,7.9995,7.9995,7.9981,7.9748,7.9129,7.8989,7.8989,7.9003,7.9003,7.9003,7.472,7.4642,7.39,7.351,7.3393,7.3398,7.3822,7.4603,7.4564,7.4608,7.4608,7.4608,7.4569,7.4574,7.4605,0.0,7.4692,7.4761,7.4844,7.4922,7.5,7.543,7.6211,7.6211,7.7031,7.8594,7.9414,8.0234,8.0976,8.1836,8.2695,8.3476,8.3554,8.3593,8.3593,8.3515,8.3125,8.2422,8.2422,8.2461,8.25,8.0859,7.9609,7.8828,7.789,7.7383,7.7305,7.7226,7.6836,7.6055,7.668,7.6367,7.4805,0.0,0.0,0.0,0.0,0.0,0.0,0.0,0.0,0.0,0.0,0.0,0.0,0.0,0.0,0.0,6.7166,0.0,6.9955,7.0827,0.0,0.0,0.0,7.4005,7.4077,7.417,7.4518,7.5337,0.0,0.0,7.7582,7.779,7.7534,7.6814,7.7341,7.8099,7.895,7.9183,7.9183,7.926,7.9337,7.9415,7.9569,7.9467,7.9636,8.0202,8.028,8.0575,8.1233,8.1426,8.1465,8.1426,8.1504,8.1465,8.1504,8.1387,8.1014,7.952,7.9249,7.9249,7.9327,7.9327,7.939,7.6477,7.6477,7.6281,7.5423,7.4218,7.4236,7.431,7.4525,7.4525,7.4525,7.4525,7.4525,7.4574,7.4584,7.4584,7.4978,7.561,7.6202,7.6868,7.753,7.818,7.861,7.8782,7.8821,7.9016,7.9446,8.0266,8.0813,8.1048,8.1868,8.2419,8.2656,8.3268,8.3604,8.3565,8.294,8.2832,8.3274,8.3313,8.3629,8.4219,8.3203,8.2265,8.1406,7.9883,7.8828,7.8203,7.7539,7.7109,7.6875,7.6445,7.6015,7.5625,7.5469,0.0,0.0,0.0,0.0,0.0,0.0,0.0,0.0,0.0,6.8586,6.8777,0.0,7.031,0.0,6.8729,6.9192,7.0805,7.1175,0.0,0.0,7.3922,7.5066,7.574,7.6389,7.7123,7.7992,7.8069,7.8224,7.865,7.868,7.8863,7.9235,7.8926,7.8989,7.9801,8.0498,8.0923,8.1001,8.1954,8.2612,8.1954,8.131,8.0937,8.1169,8.1194,8.1271,8.1465,8.1504,8.1504,8.1504,8.1504,8.1504,8.1504,8.1504,8.1387,8.0976,8.0898,8.0898,8.0898,8.0898,8.0898,7.7101,7.7101,7.7101,7.6555,7.5657,7.5633,7.5673,7.5657,7.5657,7.5657,7.5657,7.5657,7.5662,7.5712,7.574,7.598,7.6497,7.7282,7.7942,7.8449,7.9293,7.9723,7.9699,7.9699,7.9894,8.0285,8.0753,8.1417,8.2159,8.2628,8.3066,8.3428,8.395,8.4167,8.4128,8.3699,8.4056,8.5283,8.4541,8.4429,8.4834,8.4061,8.3554,8.3437,8.1406,8.0078,7.9609,7.8437,7.7773,7.7773,7.7305,7.7031,7.7031,7.6562,7.604,0.0,0.0,0.0,0.0,0.0,0.0,0.0,0.0,0.0,0.0,0.0,7.1918,7.1739,7.0976,7.117,7.2822,7.3325,7.3922,7.4773,7.6034,7.704,7.7519,7.7974,7.8476,7.8936,7.9013,7.9129,7.9478,7.9506,7.9829,8.0666,8.042,8.0266,8.0769,8.1504,8.2084,8.2122,8.3231,8.3966,8.3424,8.2999,8.2509,8.2161,8.2084,8.1968,8.1581,8.1504,8.1504,8.1504,8.1504,8.1504,8.1504,8.1504,8.1504,8.1504,8.1504,8.1504,8.1504,8.1504,8.1504,7.7218,7.7101,7.7101,7.7101,7.7101,7.7101,7.7101,7.7101,7.7101,7.7101,7.7101,7.7101,7.7179,7.7257,7.7257,7.7335,7.7492,7.835,7.8741,7.8774,7.9633,8.0023,8.0023,8.014,8.0576,8.1317,8.1435,8.2254,8.3738,8.3777,8.4128,8.4792,8.4987,8.5143,8.5299,8.526,8.5885,8.7173,8.6002,8.541,8.5371,8.4638,8.457,8.5078,8.2812,8.1367,8.1133,7.9648,7.8711,7.8515,7.8476,7.8437,7.832,7.7578,7.7036,0.0,7.6041,0.0,0.0,0.0,0.0,0.0,0.0,0.0,0.0,7.1859,7.2461,7.4083,7.3425,7.3579,7.5111,7.6072,7.6862,7.762,7.8495,7.9013,7.9144,7.9158,7.9172,7.9299,7.9337,7.9608,8.028,8.0357,8.0666,8.131,8.1542,8.162,8.1736,8.2393,8.3012,8.3089,8.3747,8.4327,8.4237,8.4121,8.3773,8.3089,8.2805,8.2509,8.1852,8.1581,8.1504,8.1504,8.1504,8.1504,8.1504,8.1504,8.1504,8.1504,8.1504,8.1504,8.1504,8.1504,8.1504,7.7765,7.7101,7.7101,7.7101,7.7101,7.7101,7.7101,7.7101,7.7101,7.7101,7.7101,7.7101,7.7492,7.8116,7.8155,7.8546,7.9248,8.0107,8.0498,8.0537,8.1396,8.1825,8.1864,8.2489,8.2879,8.3074,8.3777,8.4245,8.4597,8.4597,8.4675,8.4909,8.5534,8.6561,8.787,0.0,0.0,0.0,8.7446,8.7993,8.7954,8.781,8.7483,8.6914,8.5117,0.0,8.2109,8.1094,7.9883,7.8594,7.8476,0.0,0.0,0.0,0.0,0.0,0.0,0.0,0.0,0.0,0.0,0.0,7.4881,7.4688,7.5353,7.4796,7.4834,7.5802,7.5128,7.5011,7.6072,7.6954,7.7524,7.7703,7.8462,7.926,7.9879,7.997,8.0241,8.0962,8.1039,8.1078,8.1194,8.1271,8.1349,8.1542,8.2122,8.2509,8.2587,8.3322,8.4057,8.4714,8.4985,8.5075,8.5036,8.4533,8.4185,8.3799,8.3244,8.2819,8.2587,8.1968,8.1542,8.1542,8.1504,8.1542,8.1504,8.1504,8.1581,8.1542,8.1542,8.1504,8.1504,8.1542,8.1504,7.878,0.0,7.839,7.839,0.0,7.7921,7.7726,7.7687,7.7257,7.7335,7.7765,7.8194,7.8624,7.9053,7.9053,7.9287,7.9756,8.1044,8.163,8.1708,8.2957,8.3543,8.3543,8.3933,8.4128,8.4167,8.4597,8.5026,8.5416,8.5456,8.5897,8.6767,8.7191,8.805,8.9266,8.8897,8.7843,8.6103,8.6984,8.7407,8.744,8.7837,8.8045,8.7994,8.6404,0.0,0.0,0.0,0.0,0.0,0.0,0.0,0.0,0.0,0.0,7.7495,7.7195,7.7079,7.704,7.663,7.6591,7.7016,7.7379,7.7084,7.5862,7.6127,7.6382,7.6397,7.6746,7.721,7.765,7.8437,7.9133,7.952,7.997,8.042,8.0769,8.0821,8.1014,8.1387,8.1504,8.1504,8.1504,8.1904,8.2097,8.2174,8.2896,8.3592,8.3979,8.4405,8.4985,8.5797,8.5952,8.5925,8.5887,8.5655,8.5152,8.4765,8.4301,8.3902,8.3476,8.3089,8.2664,8.2277,8.2122,8.2045,8.162,8.1852,8.2122,8.22,8.2471,8.2741,8.2741,8.2122,8.1504,8.0302,8.0185,8.0146,8.0185,8.0107,7.9366,7.9092,7.9014,0.0,0.0,0.0,7.9795,8.0263,8.0341,8.0381,8.0459,8.0693,8.2098,8.2723,8.2801,8.4167,8.4831,8.4831,8.4948,8.5026,8.5026,8.5338,8.5846,8.6549,8.6705,8.7498,8.8807,8.8959,8.9339,9.014,8.9906,8.8786,8.6893,8.6795,8.6822,8.6815,8.7486,8.8195,8.8897,8.7451,8.6093,8.4922,8.3515,8.2226,8.1054,8.0976,8.0586,7.9765,7.9531,7.9111,7.8353,7.7427,7.721,7.7852,7.7117,7.6939,7.7635,7.8989,7.8694,7.6121,7.7326,7.7876,7.7132,7.8385,7.9288,7.9443,8.0048,8.0705,8.1426,8.1504,8.1504,8.1504,8.1504,8.1504,8.1504,8.1504,8.1504,8.1542,8.2252,8.2793,8.2909,8.3644,8.4598,8.5333,8.5681,8.6145,8.6958,8.719,8.7035,8.6842,8.6803,8.6494,8.5655,8.5384,8.5075,8.4521,8.4211,8.3824,8.3128,8.2935,8.2509,8.1929,8.2122,8.2573,8.2573,8.3153,8.3631,8.3515,8.2548,8.162,8.2567,8.1942,8.1942,8.1942,8.1903,8.1825,8.1747,8.163,8.0029,7.9834,8.0693,8.1552,8.2332,8.2957,8.2957,8.3386,8.4089,8.4323,8.4441,8.4441,8.4668,8.4824,8.4863,8.5573,8.5924,8.6041,8.7407,8.8227,8.8383,8.9047,8.96,8.9795,8.9834,9.0296,9.0921,8.9633,8.9086,8.9444,8.9477,8.9477,8.9477,8.9578,8.9709,8.9787,8.8837,8.7249,8.5,8.4671,8.3421,8.1172,8.0976,8.0625,7.9765,7.9687,7.947,7.9205,7.895,7.881,7.8834,7.8007,7.7582,7.7698,7.7906,7.8423,7.9404,7.9685,7.9826,7.9661,7.9893,8.0357,8.1014,8.1208,8.1349,8.1465,8.1504,8.1504,8.1504,8.1504,8.1504,8.1504,8.1504,8.1504,8.1658,8.229,8.2909,8.3076,8.4224,8.5449,8.63,8.7074,8.7847,8.8609,8.8841,8.8532,8.7693,8.7719,8.7228,8.6571,8.5771,8.5345,8.5178,8.4753,8.4327,8.3979,8.3592,8.3051,8.2741,8.2084,8.2161,8.22,8.2406,8.2381,8.2484,8.2058,8.1865,8.3972,8.366,8.366,8.366,8.3621,8.3152,8.2957,8.2918,8.2645,8.2411,8.2411,8.3269,8.3855,8.4206,8.4206,8.4441,8.4831,8.5299,8.5495,8.5534,8.5963,8.623,8.6236,8.6627,8.7056,8.7564,8.8305,8.893,8.9398,8.9828,9.0452,9.135,9.2287,9.2951,9.3263,9.2561,9.1897,9.135,8.9984,8.9281,8.932,8.9763,9.0013,8.9986,8.9596,8.8432,8.6328,8.5815,8.4635,8.2484,8.242,8.1992,8.1172,8.1445,8.1648,8.1546,8.1001,8.0628,8.0575,7.9284,7.8704,7.9114,7.9091,7.9594,8.0817,8.0459,8.0202,8.0241,8.0589,8.1053,8.1465,8.1504,8.1504,8.1504,8.1504,8.1504,8.1504,8.1504,8.1504,8.1504,8.1504,8.1697,8.2161,8.2973,8.3683,8.412,8.5268,8.63,8.7151,8.7615,8.7847,8.7809,8.777,8.7627,8.7279,8.7228,8.7035,8.6648,8.63,8.6029,8.6029,8.5952,8.5952,8.5604,8.541,8.5333,8.4972,8.4572,8.4301,8.4262,8.4276,8.425,8.425,8.394,8.3257,8.5377,8.5377,8.5377,8.5377,8.5338,8.4675,8.4401,8.4434,8.5104,8.5026,8.4519,8.5104,8.5377,8.5377,8.5377,8.5377,8.5495,8.608,8.6392,8.6471,8.7095,8.7486,8.7681,8.772,8.8149,8.893,8.9203,8.975,9.0492,9.0765,9.1585,9.3068,9.4434,9.5176,9.5371,9.5215,9.4512,9.3302,9.1038,8.9672,8.932,8.9945,9.0309,9.0291,9.0305,8.9491,8.7812,8.7109,8.5973,8.4351,8.417,8.3709,8.2734,8.3125,8.3354,8.3074,8.2378,8.1815,8.1543,8.0299,7.9748,8.0338,8.0174,8.0445,8.1344,8.0948,8.0536,8.0589,8.1092,8.1504,8.1504,8.1504,8.1504,8.1504,8.1504,8.1504,8.1504,8.1504,8.1504,8.1504,8.1504,8.1852,8.2703,8.3554,8.4417,8.5423,8.6223,8.6919,8.7693,8.7886,8.7627,8.7395,8.7202,8.724,8.6981,8.7163,8.719,8.6996,8.7112,8.7228,8.7345,8.7809,8.7925,8.7345,8.7461,8.7345,8.6933,8.6391,8.6197,8.612,8.6004,8.6043,8.5901,8.572,8.4946,8.7134,8.7173,8.7095,8.7173,8.7095,8.7017,8.6939,8.6978,8.7134,8.7134,8.6939,8.7095,8.7095,8.7173,8.7095,8.7095,8.7095,8.7251,8.7251,8.729,8.7368,8.7837,8.854,8.8579,8.9047,8.9906,9.0687,9.1467,9.2287,9.3029,9.3888,9.4786,9.5059,9.5527,9.6113,9.5488,9.541,9.5996,9.4239,9.26,9.1155,9.1155,9.1194,9.1162,9.1162,9.0369,8.8711,8.8515,8.7695,8.6132,8.5921,8.5175,8.3711,8.3554,8.3203,8.2383,8.2187,8.1712,8.0847,8.0592,8.052,8.0523,7.9989,8.0174,8.1528,8.1591,8.1499,8.1465,8.1465,8.1658,8.1542,8.1581,8.1697,8.1774,8.1697,8.1504,8.162,8.1504,8.1504,8.1504,8.1736,8.1852,8.2999,8.394,8.4959,8.6455,8.6764,8.719,8.7886,8.8041,8.8273,8.8698,8.8892,8.8544,8.8041,8.8493,8.8416,8.8002,8.8428,8.866,8.8737,8.8853,8.9008,8.8776,8.8505,8.8196,8.7731,8.6687,8.6029,8.6868,8.6532,8.5616,8.5539,8.6107,8.5991,8.7407,8.7407,8.7407,8.7407,8.7407,8.7407,8.7407,8.7407,8.7407,8.7407,8.7407,8.7407,8.7407,8.7407,8.7407,8.7407,8.7407,8.7407,8.7681,8.8149,8.8188,8.8618,8.9437,9.0023,9.0687,9.1507,9.2365,9.3224,9.4044,9.4903,9.5527,9.5918,9.6386,9.6816,9.7089,9.6308,9.5801,9.5606,9.4434,9.299,9.1585,9.1741,9.2014,9.2014,9.2053,9.1525,9.0341,8.9758,8.8703,8.7053,8.6471,8.5654,8.4437,8.4842,8.4961,8.4531,8.4023,8.3359,8.2422,8.1823,8.1474,8.149,8.1141,8.1194,8.176,8.2288,8.2573,8.2561,8.2819,8.3037,8.3037,8.3012,8.3012,8.3051,8.3051,8.3012,8.3051,8.3051,8.3051,8.3037,8.3037,8.354,8.492,8.6288,8.7345,8.8041,8.8118,8.8234,8.8621,8.866,8.8814,8.9085,8.9201,8.9112,8.8725,8.8919,8.8996,8.8826,8.8942,8.9212,8.9317,8.9665,8.9898,8.9898,8.9898,8.9975,9.0246,8.929,8.8439,8.8582,8.813,8.7483,8.6942,8.7511,8.7809,8.7915,8.811,8.811,8.811,8.811,8.811,8.811,8.811,8.811,8.811,8.811,8.811,8.811,8.8071,8.7876,8.7759,8.7798,8.7993,8.8422,8.9047,8.9281,8.9867,9.0726,9.1585,9.2404,9.3185,9.3849,9.4591,9.5488,9.6347,9.6738,9.6855,9.7167,9.7362,9.7245,9.6503,9.5723,9.5098,9.4239,9.3068,9.1897,9.1975,9.217,9.217,9.2209,9.2021,9.1687,9.1067,8.9891,8.8227,8.7531,8.66,8.537,8.5849,8.6092,8.582,8.5234,8.4648,8.3984,8.3047,8.25,8.25,8.2221,8.2011,8.2159,8.297,8.3554,8.3618,8.4366,8.4779,8.4198,8.4173,8.4134,8.4134,8.4095,8.4095,8.4057,8.4095,8.4043,8.4107,8.3927,8.474,8.6404,8.7925,8.9047,8.9047,8.9124,8.9356,8.9472,8.9549,8.9588,8.982,8.9898,8.9665,8.9345,8.9461,8.9472,8.9599,8.9754,9.0024,8.9898,9.0478,9.0749,9.0865,9.1406,9.1522,9.1135,9.0749,9.0256,9.0284,8.9975,8.9406,8.872,8.9328,8.9627,8.9125,8.9789,8.9867,8.9789,8.9867,8.9789,8.9828,8.9711,8.9789,8.9828,8.975,8.9789,8.9867,8.975,8.9086,8.8696,8.8735,8.9477,8.9906,9.0101,9.0843,9.1624,9.2443,9.3302,9.4122,9.4825,9.5059,9.5567,9.6347,9.7167,9.7636,9.7558,9.6894,9.6503,9.6347,9.5606,9.5137,9.4942,9.4161,9.3263,9.2411,9.1663,9.135,9.1272,9.135,9.1741,9.2333,9.2489,9.1624,8.9906,8.968,8.8593,8.6444,8.619,8.5839,8.5156,8.5,8.4883,8.4726,8.3984,8.3515,8.3437,8.289,8.2304,8.2461,8.3735,8.456,8.4482,8.5807,8.6079,8.4752,8.4585,8.4495,8.434,8.4224,8.425,8.4198,8.4405,8.416,8.4237,8.4469,8.5294,8.6605,8.8141,8.9212,8.9395,8.9317,8.9549,9.0207,9.0362,9.0633,9.1174,9.129,9.1019,8.9715,8.9908,9.0295,9.0411,9.0798,9.1367,9.1561,9.1638,9.16,9.16,9.1638,9.1638,9.1522,9.1174,9.0605,9.0594,9.1086,9.071,8.9831,9.0875,9.1097,8.9711,8.9984,8.9984,8.9984,8.9984,8.9984,8.9984,8.9984,8.9984,8.9984,8.9984,8.9984,8.9984,9.0023,9.0804,9.0531,8.9672,9.0452,9.1116,9.1624,9.2482,9.3341,9.42,9.5059,9.5606,9.5957,9.6503,9.6894,9.7206,9.7558,9.7401,9.6894,9.6582,9.6152,9.5527,9.4708,9.4239,9.4161,9.3419,9.2287,9.1077,9.0609,9.0218,8.975,9.0726,9.1428,9.1741,9.2248,9.2014,9.0882,8.9813,8.8505,8.7148,8.6481,8.609,8.5781,8.5742,8.5469,8.4961,8.4609,8.4453,8.4414,8.4179,8.3867,8.4062,8.496,8.5634,8.582,8.6601,8.6843,8.6406,8.6108,8.6003,8.5991,8.5952,8.5862,8.5836,8.5836,8.5797,8.5901,8.6597,8.7654,8.8179,8.9754,9.0721,9.0787,9.0787,9.0903,9.1097,9.1251,9.1329,9.16,9.1677,9.1522,9.103,9.0991,9.1251,9.129,9.1522,9.1561,9.1677,9.1716,9.1638,9.1638,9.1716,9.1677,9.16,9.1522,9.0991,9.0682,9.1213,9.129,9.0527,9.1251,9.1445,9.0804,9.0804,9.0804,9.0804,9.0804,9.0804,9.0804,9.0804,9.0804,9.0804,9.0804,9.0804,9.0804,9.1038,9.2287,9.2365,9.1389,9.2131,9.2834,9.338,9.4239,9.4942,9.5567,9.6425,9.6816,9.6894,9.7401,9.7675,9.7675,9.7675,9.7245,9.6425,9.6152,9.5527,9.4669,9.381,9.338,9.3224,9.2795,9.1819,9.057,9.014,8.9594,8.9008,8.9867,9.0765,9.1272,9.1819,9.1741,9.0843,8.975,8.8607,8.75,8.7148,8.6875,8.6679,8.6601,8.6367,8.582,8.5469,8.5312,8.5312,8.5039,8.4883,8.4961,8.5937,8.6523,8.6797,8.7383,8.7812,8.7656,8.7359,8.7115,8.704,8.7,8.694,8.6868,8.6842,8.6764,8.688,8.8068,8.9035,8.9483,9.0721,9.1484,9.1716,9.1716,9.1716,9.1716,9.1716,9.1716,9.1716,9.1716,9.1716,9.1484,9.1445,9.1522,9.16,9.16,9.1677,9.1716,9.1716,9.1716,9.1716,9.1716,9.1716,9.1716,9.1716,9.1406,9.0914,9.1174,9.1484,9.1251,9.129,9.1484,9.2443,9.2365,9.2482,9.2326,9.2287,9.2248,9.2404,9.2287,9.2326,9.2248,9.217,9.2365,9.2287,9.2639,9.338,9.3732,9.3888,9.4591,9.4942,9.5059,9.5879,9.6308,9.6464,9.7206,9.7558,9.7558,9.7675,9.7675,9.7675,9.7597,9.7128,9.6308,9.5449,9.4669,9.3771,9.3029,9.26,9.26,9.2522,9.2053,9.1311,9.0452,8.9633,8.8891,8.8852,8.9555,9.1155,9.1311,9.1038,9.0296,9.0101,8.9193,8.7889,8.8086,8.8281,8.75,8.7422,8.7422,8.7304,8.664,8.6211,8.6133,8.5508,8.5195,8.5469,8.6601,8.75,8.7617,8.8203,8.8711,8.8594,8.8125,8.7539,8.7068,8.7048,8.7066,8.701,8.6997,8.6996,8.7281,8.848,8.9333,8.9743,9.0798,9.1716,9.1754,9.1754,9.1754,9.1793,9.1793,9.1754,9.1716,9.1754,9.1793,9.1754,9.1716,9.1716,9.1716,9.1677,9.1716,9.1716,9.1716,9.1716,9.1716,9.1716,9.1716,9.1716,9.1716,9.1716,9.1445,9.1677,9.1677,9.1638,9.1561,9.16,9.2482,9.2482,9.2482,9.2482,9.2482,9.2482,9.2482,9.2482,9.2482,9.2482,9.2482,9.2482,9.2834,9.3497,9.4278,9.4981,9.5645,9.6464,9.6582,9.623,9.6894,9.7284,9.7323,9.7558,9.7675,9.7675,9.7675,9.7675,9.7597,9.7128,9.6347,9.5488,9.4669,9.3771,9.3068,9.2639,9.2482,9.2482,9.2482,9.2092,9.1311,9.0452,8.9867,8.9516,8.8461,8.8618,9.0296,9.096,9.1155,9.0843,9.0882,9.0114,8.8724,8.8551,8.832,8.7617,8.75,8.75,8.7461,8.7265,8.707,8.7031,8.6797,8.6719,8.6758,8.7656,8.832,8.8398,8.9062,8.9609,8.9531,8.9414,8.8672,8.7461,8.7336,8.7304,8.7148,8.707,8.7284,8.7902,8.8873,8.9713,9.0415,9.1395,9.1914,9.1965,9.1965,9.1965,9.1976,9.1926,9.1986,9.1986,9.1986,9.1909,9.187,9.1832,9.1832,9.1793,9.1754,9.1716,9.1716,9.1716,9.1716,9.1716,9.1716,9.1716,9.1716,9.1716,9.1716,9.1716,9.1716,9.1716,9.1716,9.1716,9.1716,9.2482,9.2482,9.2482,9.2482,9.2482,9.2482,9.2482,9.2482,9.2482,9.2482,9.2482,9.2482,9.2756,9.3497,9.4552,9.5371,9.6035,9.7128,9.7401,9.7011,9.7401,9.7675,9.7675,9.7675,9.7675,9.7675,9.7675,9.7675,9.7675,9.7128,9.6425,9.5606,9.502,9.4356,9.3537,9.3458,9.3458,9.3458,9.3497,9.3224,9.2522,9.1233,9.0609,9.057,8.8657,8.8422,8.9867,9.057,9.0843,9.0804,9.0804,9.0101,8.8858,8.8672,8.832,8.7656,8.7461,8.75,8.75,8.7461,8.75,8.75,8.75,8.7461,8.7695,8.8437,8.9179,8.9297,8.9961,9.0508,9.0469,9.0117,8.9492,8.8594,8.8164,8.7773,8.7422,8.7226,8.7383,8.8011,8.893,8.9813,9.0482,9.1469,9.2035,9.2088,9.2099,9.2099,9.2099,9.2083,9.2099,9.2106,9.2057,9.203,9.1986,9.1948,9.1948,9.187,9.1793,9.1754,9.1716,9.1716,9.1716,9.1716,9.1716,9.1716,9.1716,9.1716,9.1716,9.1716,9.1716,9.1716,9.1716,9.1716,9.1716,9.2482,9.2482,9.2482,9.2482,9.2482,9.2482,9.2482,9.2482,9.2482,9.2482,9.2482,9.2482,9.26,9.299,9.4434,9.5215,9.5488,9.6933,9.7675,9.7597,9.7675,9.7675,9.7675,9.7675,9.7675,9.7675,9.7675,9.7675,9.7675,9.744,9.7206,9.6347,9.6035,9.5879,9.4981,9.502,9.4903,9.4825,9.4942,9.4864,9.4591,9.2482,9.1507,9.206,8.9281,8.8344,8.975,9.0218,9.0296,9.0257,9.0648,9.0296,8.9216,8.8859,8.8476,8.7656,8.75,8.75,8.75,8.75,8.75,8.75,8.75,8.75,8.7656,8.875,8.9648,8.9883,9.0664,9.125,9.1172,9.082,9.0273,9.0,8.9258,8.8515,8.7734,8.7617,8.7734,8.7929,8.8867,8.9883,9.0117,9.1328,9.1988,9.2178,9.2185,9.2185,9.2185,9.2224,9.2146,9.2148,9.2226,9.2171,9.2169,9.213,9.2113,9.1986,9.1909,9.1832,9.1754,9.1716,9.1716,9.1716,9.1716,9.1716,9.1716,9.1716,9.1716,9.1716,9.1716,9.1716,9.1716,9.1716,9.1716,9.2482,9.2482,9.2482,9.2482,9.2482,9.2482,9.2522,9.2482,9.2522,9.2639,9.2522,9.2482,9.2912,9.3576,9.463,9.541,9.623,9.7245,9.7675,9.7675,9.7675,9.7675,9.7675,9.7675,9.7675,9.7675,9.7675,9.7675,9.7636,9.7167,9.6699,9.6386,9.5918,9.5449,9.5098,9.5176,9.5098,9.5098,9.5137,9.4825,9.4044,9.2404,9.1428,9.135,8.9477,8.8969,8.9984,9.0648,9.1624,9.2717,9.2795,9.2443,9.1396,9.0315,8.9283,8.8476,8.7773,8.7461,8.75,8.75,8.75,8.75,8.75,8.75,8.75,8.8437,8.9297,8.9922,9.0781,9.1562,9.2031,9.1992,9.1601,9.0976,9.0234,8.9375,8.8594,8.8359,8.8398,8.8515,8.9336,9.0117,9.0859,9.1679,9.2422,9.2422,9.2422,9.2422,9.2422,9.2422,9.2383,9.2422,9.2461,9.2422,9.2372,9.2333,9.2261,9.2096,9.2025,9.1976,9.187,9.1793,9.1754,9.1716,9.1716,9.1716,9.1716,9.1716,9.1716,9.1716,9.1716,9.1716,9.1716,9.1716,9.1716,9.2482,9.2482,9.2482,9.2482,9.2561,9.2873,9.3029,9.3146,9.3458,9.3576,9.3576,9.3615,9.3888,9.4434,9.5645,9.6425,9.705,9.8221,9.8768,9.8807,9.8846,9.8455,9.7909,9.7675,9.7675,9.7675,9.7714,9.7675,9.7636,9.7167,9.6972,9.6933,9.6425,9.6191,9.6308,9.6191,9.6191,9.623,9.6152,9.5762,9.4825,9.2834,9.2209,9.1741,9.0179,8.9242,9.0452,9.1702,9.2873,9.3497,9.3419,9.3029,9.2522,9.1311,9.0159,8.9286,8.8437,8.7969,8.7929,8.7734,8.75,8.75,8.75,8.75,8.7656,8.8242,8.9062,8.9922,9.0781,9.164,9.2383,9.2578,9.2344,9.1875,9.1406,9.0586,8.9414,8.9219,8.9258,8.9453,9.0,9.0664,9.1289,9.207,9.25,9.2578,9.2578,9.2578,9.2578,9.2578,9.2578,9.2578,9.2578,9.2539,9.25,9.2461,9.2461,9.2304,9.22,9.2115,9.2042,9.1898,9.1782,9.1782,9.1716,9.1716,9.1716,9.1716,9.1716,9.1716,9.1716,9.1716,9.1716,9.1716,9.1716,9.267,9.2756,9.2756,9.2756,9.2951,9.3576,9.3927,9.4083,9.463,9.4942,9.4942,9.502,9.4903,9.5215,9.6386,9.7518,9.7714,9.908,9.9861,10.0017,9.9978,9.9431,9.8338,9.8299,9.826,9.8221,9.8026,9.7987,9.7987,9.787,9.7753,9.7597,9.7558,9.7597,9.7401,9.7518,9.7636,9.7479,9.7401,9.666,9.5488,9.3654,9.2717,9.2131,9.0687,9.0062,9.1389,9.2756,9.381,9.3927,9.3185,9.3029,9.2756,9.2014,9.1038,9.0153,8.9361,8.8828,8.8711,8.8164,8.7695,8.7734,8.7617,8.75,8.7617,8.8125,8.8867,8.9922,9.0742,9.1523,9.2383,9.2578,9.2539,9.2422,9.2461,9.1797,9.0742,9.0195,9.0117,9.0039,9.0742,9.1211,9.1523,9.207,9.2773,9.3086,9.3047,9.3047,9.289,9.2734,9.2695,9.2578,9.2578,9.2578,9.2578,9.2578,9.2578,9.25,9.2383,9.2315,9.2212,9.2069,9.1887,9.1848,9.1821,9.1754,9.1716,9.1716,9.1716,9.1716,9.1716,9.1716,9.1716,9.1716,9.1716,9.3777,9.4552,9.4552,9.4552,9.4552,9.4747,9.4825,9.4864,9.502,9.5254,9.5137,9.5137,9.5176,9.5215,9.6425,9.705,9.787,9.8963,9.9588,10.029,10.0329,10.0173,9.9744,9.9744,9.9705,9.9627,9.9705,9.9353,9.8885,9.8572,9.8338,9.7753,9.7675,9.7675,9.7675,9.7675,9.7675,9.7675,9.7675,9.6582,9.4903,9.3927,9.2678,9.135,9.0804,9.1272,9.2131,9.3224,9.4083,9.4552,9.463,9.4434,9.42,9.3107,9.1975,9.1123,9.0231,8.9735,8.9583,8.8945,8.8437,8.832,8.789,8.75,8.75,8.7656,8.8515,8.9609,9.0234,9.1015,9.2344,9.2578,9.2578,9.2578,9.2578,9.2461,9.2031,9.1406,9.082,9.0469,9.082,9.1328,9.1406,9.2656,9.3281,9.3515,9.3594,9.3594,9.3398,9.3125,9.3125,9.3164,9.289,9.2929,9.2851,9.2773,9.2578,9.2578,9.25,9.2451,9.2342,9.2254,9.2127,9.199,9.187,9.1832,9.1754,9.1716,9.1716,9.1716,9.1716,9.1716,9.1716,9.1716,9.1561,9.424,9.4744,9.4925,9.4948,9.5036,9.5473,9.5723,9.5801,9.6191,9.6308,9.6308,9.6308,9.6308,9.6425,9.7206,9.7948,9.8494,9.9627,10.0681,10.1344,10.15,10.15,10.1461,10.1344,10.1188,10.0524,10.029,9.9822,9.9236,9.8963,9.8494,9.7753,9.7675,9.7675,9.7675,9.7675,9.7675,9.7675,9.7675,9.6582,9.4747,9.3927,9.2873,9.1194,9.1389,9.2092,9.2522,9.3341,9.42,9.4942,9.5488,9.5723,9.5527,9.4434,9.338,9.2482,9.1233,9.0687,9.0426,8.9818,8.9101,8.875,8.8281,8.789,8.7617,8.75,8.8047,8.914,8.9883,9.0703,9.2344,9.2578,9.2578,9.2578,9.2578,9.2578,9.25,9.2148,9.1797,9.1406,9.1719,9.1914,9.2383,9.3086,9.3515,9.3672,9.3828,9.3906,9.4492,9.4258,9.4179,9.4023,9.3515,9.3281,9.3164,9.2969,9.2617,9.2578,9.2578,9.2539,9.249,9.2405,9.2338,9.2187,9.2014,9.1898,9.1832,9.1793,9.1716,9.1716,9.1716,9.1716,9.1716,9.1716,9.1367,9.4629,9.4829,9.5006,9.5167,9.5328,9.6149,9.6542,9.6699,9.7362,9.7479,9.7675,9.7675,9.744,9.7792,9.826,9.8768,9.9353,10.0368,10.1305,10.1774,10.1852,10.1969,10.2125,10.2086,10.1813,10.072,10.0876,10.0329,9.9548,9.9119,9.8768,9.7909,9.7675,9.7675,9.7675,9.7675,9.7675,9.7675,9.7675,9.6816,9.5254,9.4356,9.3231,9.1936,9.1975,9.2404,9.2717,9.3497,9.4395,9.5098,9.5918,9.6308,9.6191,9.5567,9.4591,9.3615,9.2092,9.1585,9.1311,9.0654,8.9857,8.8983,8.8711,8.8281,8.7734,8.7539,8.7969,8.8789,8.9687,9.0937,9.2344,9.2578,9.2578,9.2578,9.2578,9.2578,9.2578,9.2578,9.2461,9.2461,9.2304,9.2304,9.25,9.2969,9.3437,9.3828,9.3984,9.4336,9.5,9.5234,9.5,9.4804,9.4297,9.4101,9.4023,9.3515,9.3086,9.2929,9.2851,9.2656,9.2656,9.2551,9.2428,9.2303,9.2171,9.2034,9.1914,9.1793,9.1754,9.1716,9.1716,9.1716,9.1716,9.1716,9.1329,9.5726,9.6577,9.6621,9.674,9.6887,9.7085,9.7245,9.7479,9.7597,9.7675,9.7675,9.7675,9.7675,9.7753,9.7792,9.8299,9.9119,10.0056,10.0642,10.0876,10.0954,10.1149,10.1657,10.1735,10.1813,10.2359,10.2086,10.1227,10.029,10.0017,9.9119,9.8026,9.7675,9.7675,9.7675,9.7675,9.7675,9.7675,9.7675,9.6816,9.5567,9.4747,9.3849,9.2365,9.2404,9.2482,9.2873,9.3966,9.4981,9.5176,9.5918,9.6308,9.6152,9.5527,9.4434,9.3224,9.2522,9.2131,9.2053,9.1546,9.0705,8.9869,8.9256,8.8476,8.7851,8.7578,8.8008,8.8789,9.0039,9.1445,9.2461,9.2539,9.2578,9.2578,9.2578,9.2578,9.2578,9.2578,9.2578,9.2578,9.2578,9.2617,9.2734,9.2969,9.3515,9.4062,9.4531,9.5039,9.5781,9.5742,9.539,9.5234,9.5078,9.5,9.4961,9.4297,9.375,9.3554,9.3359,9.289,9.2773,9.2656,9.2539,9.2422,9.2265,9.2104,9.1928,9.1837,9.1754,9.1716,9.1716,9.1754,9.1754,9.1793,9.1677,9.6165,9.6628,9.6732,9.692,9.7165,9.726,9.7479,9.7675,9.7675,9.7675,9.7675,9.7675,9.7675,9.7675,9.7675,9.8182,9.8924,9.9353,9.9861,10.0173,10.0329,10.0446,10.0837,10.0876,10.1071,10.1383,10.1422,10.1227,10.0368,10.029,9.9314,9.8104,9.7675,9.7675,9.7675,9.7675,9.7675,9.7675,9.7597,9.705,9.5723,9.502,9.3732,9.2873,9.2482,9.2482,9.2834,9.42,9.5059,9.5332,9.6347,9.6425,9.5918,9.5254,9.4473,9.3341,9.2756,9.2482,9.2482,9.2092,9.1604,9.0806,9.0193,8.9648,8.8906,8.8515,8.832,8.8828,8.9687,9.0976,9.1797,9.2304,9.2539,9.2578,9.2578,9.2578,9.2578,9.2578,9.2578,9.2578,9.2578,9.2617,9.2656,9.3008,9.3633,9.4258,9.4883,9.5586,9.6289,9.6172,9.5781,9.5898,9.5781,9.5625,9.5547,9.5039,9.457,9.4375,9.3945,9.3476,9.3164,9.3125,9.2812,9.2539,9.2344,9.25,9.2049,9.1898,9.1821,9.1793,9.2025,9.2141,9.1986,9.187,9.1716,9.6288,9.6325,9.6487,9.6676,9.6943,9.7082,9.7299,9.7544,9.7533,9.7522,9.7544,9.7593,9.7602,9.765,9.7745,9.8065,9.8729,9.8729,9.908,9.947,9.9627,9.9744,10.0017,10.0056,10.0212,10.0563,10.0524,10.0212,9.9978,9.9939,9.9119,9.8104,9.7675,9.7675,9.7675,9.7675,9.7675,9.7675,9.7675,9.7206,9.6035,9.4825,9.3537,9.26,9.2522,9.2561,9.299,9.4278,9.5176,9.5684,9.6386,9.6699,9.541,9.4942,9.4434,9.3615,9.2873,9.26,9.2482,9.2522,9.2066,9.1232,9.1287,9.0781,8.9961,8.9062,8.8672,8.8828,8.9531,9.0429,9.1367,9.2109,9.25,9.2578,9.2578,9.2578,9.2578,9.2578,9.2578,9.2578,9.2578,9.2617,9.2617,9.2734,9.3281,9.3867,9.4492,9.5039,9.5742,9.6289,9.6211,9.6523,9.6484,9.6211,9.6015,9.5742,9.5469,9.539,9.4844,9.4219,9.3945,9.375,9.3476,9.332,9.3398,9.3437,9.2734,9.2108,9.2053,9.218,9.2489,9.2567,9.2412,9.2102,9.1832,9.6288,9.6326,9.6325,9.6454,9.6638,9.671,9.6856,9.7071,9.7149,9.709,9.7149,9.7271,9.7369,9.7409,9.7611,9.7792,9.787,9.7948,9.8065,9.8338,9.8299,9.8612,9.908,9.9158,9.9509,9.9822,10.0056,9.9822,9.9392,9.9197,9.8729,9.787,9.7675,9.7675,9.7675,9.7675,9.7675,9.7675,9.7675,9.6933,9.5606,9.5059,9.4005,9.299,9.2561,9.2834,9.3497,9.4552,9.5332,9.6152,9.6386,9.6113,9.5176,9.4317,9.3576,9.2912,9.2522,9.2482,9.2482,9.2522,9.2333,9.1614,9.144,9.0859,9.0078,8.9336,8.8828,8.875,8.9492,9.0273,9.1094,9.207,9.2461,9.2578,9.2578,9.2578,9.2578,9.2578,9.2578,9.2578,9.2578,9.2578,9.2617,9.2695,9.289,9.3515,9.4101,9.4609,9.5156,9.5703,9.6015,9.6172,9.6367,9.6172,9.6133,9.5898,9.6054,9.6133,9.5664,9.5,9.4844,9.4648,9.4687,9.4609,9.457,9.4062,9.3203,9.2649,9.2432,9.2567,9.2915,9.2953,9.2876,9.2489,9.2025,9.6288,9.6288,9.6288,9.6425,9.6598,9.6598,9.6732,9.6951,9.6986,9.7003,9.7021,9.7051,9.7165,9.7316,9.7593,9.7714,9.7675,9.7558,9.7558,9.7628,9.7589,9.7784,9.8143,9.826,9.8572,9.8799,9.8807,9.8612,9.8416,9.869,9.8572,9.7831,9.7675,9.7675,9.7675,9.7675,9.7675,9.7675,9.7597,9.705,9.6035,9.5293,9.4512,9.3302,9.2795,9.3068,9.381,9.463,9.5488,9.6308,9.6777,9.6699,9.5879,9.502,9.4161,9.3341,9.2756,9.2522,9.2522,9.2561,9.2333,9.2183,9.1892,9.1445,9.0351,8.9609,8.8867,8.8086,8.9258,9.0117,9.0742,9.1836,9.2344,9.2578,9.2578,9.2578,9.2578,9.2578,9.2578,9.2578,9.2578,9.2578,9.2578,9.2656,9.2734,9.3047,9.3554,9.4062,9.457,9.5078,9.5312,9.539,9.5664,9.582,9.5898,9.5898,9.6211,9.6328,9.6328,9.582,9.5742,9.5664,9.5574,9.5261,9.4844,9.4258,9.3599,9.3493,9.3502,9.3456,9.3418,9.3224,9.307,9.2876,9.2412,9.6288,9.6288,9.6288,9.639,9.6513,9.6512,9.6641,9.6782,9.6801,9.6796,9.6848,9.6888,9.7009,9.7221,9.7422,9.746,9.7483,9.7299,9.7377,9.7407,9.7377,9.7366,9.7511,9.7572,9.76,9.7602,9.7827,9.7806,9.7987,9.8182,9.826,9.7714,9.7675,9.7675,9.7675,9.7675,9.7675,9.7675,9.7675,9.7206,9.6347,9.5488,9.4669,9.3849,9.3302,9.3224,9.4083,9.4981,9.5879,9.6738,9.7284,9.7167,9.6308,9.541,9.4552,9.3732,9.299,9.2522,9.2522,9.2522,9.2561,9.2522,9.2209,9.1453,9.0273,8.9844,8.9179,8.7695,8.875,8.957,9.0273,9.1406,9.2109,9.2461,9.2578,9.2578,9.2578,9.2578,9.2578,9.2578,9.2578,9.2578,9.2578,9.2578,9.2656,9.2695,9.3047,9.3515,9.3945,9.4414,9.4414,9.4453,9.5117,9.539,9.5547,9.5742,9.6133,9.6406,9.6406,9.6445,9.6211,9.6211,9.6235,9.5785,9.5239,9.5408,9.5338,9.4976,9.453,9.4037,9.3621,9.3379,9.3186,9.2953,9.2633,9.6288,9.6288,9.6288,9.6325,9.6361,9.6288,9.6325,9.639,9.6363,9.6363,9.6425,9.6576,9.6812,9.6966,9.709,9.711,9.7051,9.7043,9.7058,9.7076,9.7032,9.7108,9.7182,9.7238,9.7238,9.7383,9.746,9.7544,9.7659,9.7831,9.7831,9.7675,9.7675,9.7675,9.7675,9.7675,9.7675,9.7675,9.7675,9.7323,9.6503,9.5645,9.4747,9.4122,9.3849,9.4122,9.4981,9.5762,9.6542,9.7362,9.7597,9.744,9.6621,9.5762,9.4942,9.4083,9.3185,9.2717,9.2561,9.2522,9.2522,9.2287,9.1936,9.124,9.0125,8.9252,8.8437,8.7773,8.8515,8.9258,8.9961,9.0849,9.1822,9.2383,9.2578,9.2578,9.2578,9.2578,9.2578,9.2578,9.2578,9.2578,9.2578,9.2578,9.2578,9.2656,9.2656,9.3086,9.3203,9.3515,9.3398,9.3594,9.4453,9.4883,9.5078,9.5273,9.5469,9.5859,9.6094,9.6289,9.6406,9.6484,9.6172,9.6344,9.5923,9.6547,9.6669,9.5399,9.4462,9.4124,9.3775,9.3234,9.2799,9.2412,9.218,9.6288,9.6288,9.6288,9.6288,9.6288,9.6288,9.6288,9.6288,9.6288,9.6288,9.6325,9.6513,9.6648,9.6786,9.6959,9.7005,9.6949,9.6799,9.6838,9.6974,9.7009,9.7087,9.7169,9.7271,9.7472,9.7483,9.7533,9.7554,9.7667,9.7675,9.7675,9.7675,9.7675,9.7675,9.7675,9.7675,9.7675,9.7675,9.7675,9.744,9.7089,9.5879,9.5176,9.5449,9.4083,9.4669,9.5684,9.6152,9.6894,9.744,9.7675,9.7401,9.6972,9.6191,9.5332,9.4473,9.3615,9.299,9.2561,9.2482,9.2482,9.2443,9.2131,9.1428,9.0179,8.9631,8.8746,8.8281,8.8164,8.8945,8.9922,9.0803,9.1643,9.2287,9.2578,9.2578,9.2578,9.2578,9.2578,9.2578,9.2578,9.2578,9.2578,9.2578,9.2578,9.2617,9.2578,9.2617,9.2773,9.2851,9.2851,9.2851,9.3633,9.3984,9.414,9.4414,9.4726,9.5234,9.5703,9.582,9.5898,9.5625,9.5469,9.5898,9.6073,9.5815,9.5455,9.4839,9.4433,9.424,9.3621,9.2876,9.2412,9.1986,9.1832,9.6288,9.6288,9.6288,9.6288,9.6288,9.6288,9.6288,9.6288,9.6288,9.6288,9.6288,9.6454,9.6513,9.6568,9.6687,9.6732,9.6704,9.6604,9.6643,9.6693,9.6771,9.692,9.7129,9.7255,9.7271,9.7483,9.7602,9.7593,9.7675,9.7675,9.7675,9.7675,9.7675,9.7675,9.7675,9.7675,9.7675,9.7675,9.7675,9.7675,9.744,9.6386,9.5684,9.6152,9.5215,9.5254,9.6152,9.666,9.7128,9.7518,9.7675,9.7518,9.7089,9.6464,9.5645,9.4786,9.3927,9.3146,9.2678,9.2482,9.2482,9.2482,9.2131,9.1311,9.042,8.9779,8.8705,8.7812,8.8086,8.8789,8.9765,9.0533,9.1441,9.2161,9.2528,9.2578,9.2578,9.2578,9.2578,9.2578,9.2578,9.2578,9.2578,9.2578,9.2578,9.2578,9.2578,9.2578,9.2656,9.2695,9.2656,9.2656,9.2851,9.3008,9.3086,9.3476,9.3867,9.4453,9.4844,9.5039,9.5,9.4765,9.4883,9.539,9.5346,9.4734,9.4408,9.4181,9.4278,9.4433,9.3495,9.2335,9.218,9.1793,9.1793,9.6288,9.6288,9.6288,9.6288,9.6288,9.6288,9.6288,9.6288,9.6288,9.6288,9.6288,9.6361,9.6361,9.6322,9.639,9.6425,9.6425,9.6355,9.6394,9.6463,9.6576,9.6586,9.6721,9.6892,9.7238,9.7286,9.7409,9.7554,9.7675,9.7675,9.7675,9.7675,9.7675,9.7675,9.7675,9.7675,9.7675,9.7675,9.7675,9.7675,9.7479,9.6699,9.6386,9.6464,9.6152,9.6113,9.6621,9.7128,9.7479,9.7636,9.7675,9.7362,9.666,9.5957,9.5098,9.42,9.3263,9.2678,9.2482,9.2482,9.2482,9.2443,9.2092,9.1194,9.0147,8.9349,8.8547,8.7734,8.7656,8.8437,8.9297,9.0187,9.1145,9.2033,9.2443,9.2578,9.2578,9.2578,9.2578,9.2578,9.2578,9.2578,9.2578,9.2578,9.2578,9.2578,9.2578,9.2578,9.2578,9.2578,9.2578,9.2578,9.2617,9.2773,9.289,9.2734,9.3047,9.3633,9.4023,9.4179,9.4297,9.4219,9.4492,9.4916,9.4459,9.3729,9.371,9.3727,9.3611,9.3311,9.2683,9.187,9.1716,9.1716,9.1716,9.6288,9.6288,9.6288,9.6288,9.6288,9.6288,9.6288,9.6288,9.6288,9.6288,9.6288,9.6288,9.6288,9.6288,9.6288,9.6288,9.6288,9.6288,9.6326,9.6515,9.6615,9.6863,9.7032,9.7184,9.7369,9.7522,9.7593,9.7593,9.7675,9.7675,9.7675,9.7675,9.7675,9.7675,9.7675,9.7675,9.7675,9.7675,9.7675,9.7675,9.7597,9.6933,9.666,9.7167,9.6738,9.6699,9.7128,9.7558,9.7675,9.7675,9.7675,9.7245,9.6582,9.5879,9.5449,9.463,9.381,9.3068,9.2717,9.2482,9.2482,9.2365,9.217,9.1389,9.0218,8.9818,8.8859,8.7812,8.7461,8.8359,8.957,8.9922,9.0811,9.2099,9.2585,9.2606,9.2578,9.2578,9.2578,9.2578,9.2578,9.2578,9.2578,9.2578,9.2578,9.2578,9.2578,9.2578,9.2578,9.2578,9.2578,9.2578,9.2617,9.2734,9.2812,9.2656,9.2851,9.3476,9.3515,9.3398,9.3476,9.3594,9.3507,9.3627,9.3176,9.2768,9.2843,9.276,9.2412,9.1986,9.1793,9.1716,9.1716,9.1716,9.1716,9.6288,9.6288,9.6288,9.6288,9.6288,9.6288,9.6288,9.6288,9.6288,9.6361,9.6394,9.6361,9.6358,9.6355,9.6322,9.6288,9.6288,9.6288,9.6403,9.6621,9.6749,9.697,9.7252,9.7487,9.7522,9.7659,9.7675,9.7675,9.7675,9.7675,9.7675,9.7675,9.7675,9.7675,9.7675,9.7675,9.7675,9.7675,9.7675,9.7675,9.7558,9.7284,9.7167,9.7362,9.7284,9.7128,9.7518,9.7675,9.7675,9.7675,9.7558,9.7245,9.666,9.6035,9.5574,9.4708,9.381,9.3224,9.3029,9.2561,9.2561,9.2482,9.2482,9.1663,9.0413,8.9964,8.8924,8.7997,8.7534,8.8437,8.957,8.9874,9.0732,9.2014,9.2574,9.2595,9.2578,9.2578,9.2578,9.2578,9.2578,9.2578,9.2578,9.2578,9.2578,9.2578,9.2578,9.2578,9.2578,9.2578,9.2578,9.2578,9.2578,9.2695,9.2695,9.2656,9.289,9.3359,9.3203,9.2929,9.289,9.3025,9.2695,9.2373,9.239,9.2301,9.2014,9.1793,9.1832,9.1832,9.1754,9.1716,9.1716,9.1716,9.1716,9.6288,9.6288,9.6288,9.6288,9.6288,9.6288,9.6288,9.6288,9.6288,9.639,9.6568,9.6358,9.639,9.6545,9.639,9.6358,9.6399,9.6399,9.6519,9.6622,9.6817,9.7058,9.7221,9.7394,9.7554,9.7659,9.7675,9.7675,9.7675,9.7675,9.7675,9.7675,9.7675,9.7675,9.7675,9.7675,9.7675,9.7675,9.7675,9.7675,9.7597,9.7597,9.7558,9.7636,9.7558,9.7518,9.7675,9.7675,9.7675,9.7675,9.7675,9.7128,9.6464,9.5606,9.4747,9.3966,9.3224,9.3263,9.338,9.2951,9.2561,9.2482,9.2482,9.1507,9.0687,9.0069,8.9138,8.8206,8.7621,8.863,8.9633,9.014,9.0687,9.1663,9.2482,9.258,9.259,9.2578,9.2578,9.2578,9.2578,9.2578,9.2578,9.2578,9.2578,9.2578,9.2578,9.2578,9.2578,9.2578,9.2578,9.2578,9.2578,9.2578,9.2578,9.2578,9.2695,9.3047,9.2929,9.2695,9.2617,9.26,9.2471,9.2296,9.2102,9.1909,9.1793,9.1754,9.1716,9.1716,9.1716,9.1716,9.1716,9.1716,9.1716,9.6288,9.6288,9.6288,9.6288,9.6288,9.6288,9.6288,9.6288,9.6288,9.6322,9.6394,9.6325,9.6425,9.6598,9.6576,9.6628,9.6723,9.6834,9.6938,9.7006,9.7021,9.7309,9.7472,9.7572,9.7659,9.7667,9.7675,9.7675,9.7675,9.7675,9.7675,9.7675,9.7675,9.7675,9.7675,9.7675,9.7675,9.7675,9.7675,9.7675,9.7675,9.7675,9.7675,9.7675,9.7675,9.7675,9.7675,9.7675,9.7675,9.7675,9.7675,9.7284,9.6464,9.6113,9.5645,9.4786,9.4044,9.3576,9.3615,9.299,9.2482,9.2482,9.2482,9.1975,9.1116,9.0296,8.9516,8.854,8.772,8.8422,8.9359,9.0023,9.0765,9.1663,9.2365,9.2567,9.258,9.258,9.2595,9.2599,9.2609,9.2578,9.2578,9.2578,9.2578,9.2578,9.2578,9.2578,9.2578,9.2578,9.2578,9.2578,9.2578,9.2578,9.2578,9.2578,9.2578,9.2617,9.2578,9.2578,9.2578,9.2522,9.2387,9.218,9.1986,9.187,9.1754,9.1716,9.1716,9.1716,9.1716,9.1716,9.1716,9.1716,9.1716,9.6288,9.6288,9.6288,9.6288,9.6288,9.6288,9.6288,9.6288,9.6288,9.6361,9.639,9.6361,9.6454,9.6704,9.6676,9.6704,9.6936,9.6964,9.7062,9.72,9.7301,9.7476,9.7597,9.7675,9.7675,9.7675,9.7675,9.7675,9.7675,9.7675,9.7675,9.7675,9.7675,9.7675,9.7675,9.7675,9.7675,9.7675,9.7675,9.7675,9.7675,9.7675,9.7675,9.7675,9.7675,9.7675,9.7675,9.7675,9.7675,9.7675,9.7675,9.7518,9.6816,9.6621,9.6308,9.541,9.4395,9.4122,9.4083,9.3146,9.2717,9.2482,9.2482,9.2248,9.1546,9.0726,8.9711,8.8735,8.811,8.7915,8.8891,8.9867,9.0882,9.1858,9.2209,9.2522,9.2561,9.2561,9.2567,9.2574,9.2578,9.2578,9.2578,9.2578,9.2578,9.2578,9.2578,9.2578,9.2578,9.2578,9.2578,9.2578,9.2578,9.2578,9.2578,9.2578,9.2578,9.2578,9.2578,9.2578,9.2578,9.2483,9.2339,9.213,9.1909,9.1793,9.1716,9.1716,9.1716,9.1716,9.1716,9.1716,9.1716,9.1716,9.1716,9.6288,9.6326,9.6365,9.6442,9.6403,9.6442,9.6403,9.6288,9.6288,9.639,9.6481,9.6394,9.6519,9.6759,9.6676,9.6812,9.6988,9.7087,9.7186,9.7341,9.737,9.7518,9.7636,9.7675,9.7675,9.7675,9.7675,9.7675,9.7675,9.7675,9.7675,9.7675,9.7675,9.7675,9.7675,9.7675,9.7675,9.7675,9.7675,9.7675,9.7675,9.7675,9.7675,9.7675,9.7675,9.7675,9.7675,9.7675,9.7675,9.7675,9.7675,9.7675,9.7362,9.6816,9.6464,9.5996,9.4942,9.4591,9.4395,9.3576,9.2834,9.2561,9.2482,9.2443,9.1858,9.0804,8.9711,8.9008,8.8383,8.8071,8.8774,8.9672,9.0609,9.1507,9.2092,9.2365,9.2522,9.2522,9.2561,9.2574,9.2578,9.2578,9.2578,9.2578,9.2578,9.2578,9.2578,9.2578,9.2578,9.2578,9.2578,9.2578,9.2578,9.2578,9.2578,9.2578,9.2578,9.2578,9.2578,9.2578,9.2578,9.2461,9.2277,9.2119,9.1909,9.1793,9.1716,9.1716,9.1716,9.1716,9.1716,9.1716,9.1716,9.1716,9.1716,9.6288,9.6365,9.6942,9.7211,9.721,9.7211,9.6865,9.6288,9.6288,9.6399,9.6358,9.6361,9.642,9.6648,9.6648,9.6799,9.7129,9.7145,9.7355,9.7448,9.7533,9.7503,9.7675,9.7628,9.7675,9.7675,9.7675,9.7675,9.7675,9.7675,9.7675,9.7675,9.7675,9.7675,9.7675,9.7675,9.7675,9.7675,9.7675,9.7675,9.7675,9.7675,9.7675,9.7675,9.7675,9.7675,9.7675,9.7675,9.7675,9.7675,9.7675,9.7675,9.7636,9.6855,9.6855,9.6933,9.5684,9.5098,9.463,9.3966,9.3146,9.2678,9.2561,9.2522,9.1975,9.0765,8.9828,8.9281,8.8774,8.854,8.8618,8.9477,9.0374,9.1194,9.1975,9.2248,9.2482,9.2522,9.2522,9.2567,9.258,9.2578,9.2578,9.2578,9.2578,9.2578,9.2578,9.2578,9.2578,9.2578,9.2578,9.2578,9.2578,9.2578,9.2578,9.2578,9.2578,9.2578,9.2578,9.2578,9.2578,9.2383,9.2166,9.2057,9.1909,9.1793,9.1716,9.1716,9.1716,9.1716,9.1716,9.1716,9.1716,9.1716,9.1716,9.7403,9.748,9.7865,9.8057,9.8057,9.8057,9.7827,9.748,9.7403,9.7403,9.7211,9.6709,9.6425,9.6598,9.659,9.6786,9.7126,9.7143,9.7173,9.7347,9.7472,9.7416,9.7466,9.7622,9.7611,9.7659,9.7675,9.7675,9.7831,9.7675,9.7675,9.7753,9.7753,9.7753,9.7753,9.7714,9.7714,9.7675,9.7675,9.7675,9.7675,9.7675,9.7675,9.7675,9.7675,9.7675,9.7675,9.7675,9.7675,9.7675,9.7675,9.7675,9.7636,9.7284,9.7284,9.705,9.6191,9.5098,9.4786,9.42,9.3419,9.3146,9.3068,9.3185,9.3576,9.2404,9.0726,9.0062,8.893,8.854,8.8774,8.9477,9.0335,9.1194,9.1936,9.2404,9.2482,9.2522,9.2522,9.2528,9.2574,9.2578,9.2578,9.2578,9.2578,9.2578,9.2578,9.2578,9.2578,9.2578,9.2578,9.2578,9.2578,9.2578,9.2578,9.2578,9.2578,9.2578,9.2578,9.2578,9.2578,9.2304,9.2082,9.2014,9.1909,9.1754,9.1716,9.1716,9.1716,9.1716,9.1716,9.1716,9.1716,9.1716,9.1716,9.8827,9.8942,9.8981,9.8981,9.8942,9.8942,9.8865,9.875,9.875,9.8711,9.8519,9.725,9.6772,9.6668,9.6723,9.6837,9.692,9.6915,9.6965,9.7084,9.7266,9.748,9.7632,9.7691,9.802,9.8207,9.8283,9.8292,9.8377,9.8338,9.8377,9.8065,9.7987,9.8026,9.7909,9.787,9.7948,9.7753,9.7675,9.7675,9.7675,9.7675,9.7675,9.7675,9.7675,9.7675,9.7675,9.7675,9.7675,9.7675,9.7675,9.7675,9.7675,9.7558,9.7597,9.7323,9.666,9.5801,9.5215,9.4356,9.4005,9.381,9.3927,9.4122,9.4473,9.3771,9.2092,9.0609,8.9477,8.8774,8.9008,8.9477,9.0335,9.1194,9.1897,9.2482,9.2482,9.2482,9.2482,9.2482,9.2522,9.2606,9.2585,9.2609,9.2578,9.2578,9.2578,9.2578,9.2578,9.2578,9.2578,9.2578,9.2578,9.2578,9.2578,9.2578,9.2578,9.2578,9.2578,9.2578,9.2539,9.2265,9.2104,9.2057,9.1948,9.1754,9.1716,9.1716,9.1716,9.1716,9.1716,9.1716,9.1716,9.1716,9.1716,9.9211,9.9865,9.9827,9.9827,9.9827,9.9865,9.9442,9.8865,9.8827,9.8788,9.8827,9.8596,9.8055,9.736,9.7321,9.7297,9.7074,9.6992,9.6926,9.7005,9.7639,9.7905,9.8154,9.8528,9.9111,9.9318,9.9427,9.9744,9.9314,9.9509,9.9744,9.9627,9.9666,9.9392,9.8768,9.8651,9.8377,9.8065,9.7714,9.7675,9.7675,9.7675,9.7675,9.7675,9.7675,9.7675,9.7675,9.7675,9.7675,9.7675,9.7675,9.7675,9.7675,9.7675,9.7675,9.7597,9.6933,9.6503,9.5762,9.5215,9.4981,9.4786,9.4864,9.4942,9.5137,9.5059,9.3302,9.1389,9.0179,8.9047,8.9086,8.9594,9.0335,9.1233,9.2053,9.2365,9.2482,9.2482,9.2482,9.2522,9.2561,9.2561,9.2606,9.2595,9.2578,9.2578,9.2578,9.2578,9.2578,9.2578,9.2578,9.2574,9.2611,9.2578,9.2578,9.2578,9.2578,9.2578,9.2578,9.2578,9.25,9.2304,9.2143,9.2096,9.1909,9.1754,9.1716,9.1716,9.1716,9.1716,9.1716,9.1716,9.1716,9.1716,9.1716]},{"header":{"parameterUnit":"m.s-1","parameterCategory":1,"la1":31.0,"la2":29.5877,"lo1":-88.7671,"lo2":-86.6584,"dx":0.0162,"dy":0.0185,"nx":115,"ny":88,"refTime":"2022-11-11T06:00:00:Z","depth":0,"parameterNumber":3,"parameterNumberName":"V-component_of_WINDS"},"data":[0.0,0.0,0.0,0.0,0.0,0.0,0.0,0.0,0.0,0.0,0.0,0.0,0.0,0.0,0.0,0.0,0.0,0.0,0.0,0.0,0.0,0.0,0.0,0.0,0.0,0.0,0.0,0.0,0.0,0.0,0.0,0.0,0.0,0.0,0.0,0.0,0.0,0.0,0.0,0.0,0.0,0.0,0.0,0.0,0.0,0.0,0.0,0.0,0.0,0.0,0.0,0.0,0.0,0.0,0.0,0.0,0.0,0.0,0.0,0.0,0.0,0.0,0.0,0.0,0.0,0.0,0.0,0.0,0.0,0.0,0.0,0.0,0.0,0.0,0.0,0.0,0.0,0.0,0.0,0.0,0.0,0.0,0.0,0.0,0.0,0.0,0.0,0.0,0.0,0.0,0.0,0.0,0.0,0.0,0.0,0.0,0.0,0.0,0.0,0.0,0.0,0.0,0.0,0.0,0.0,0.0,0.0,0.0,0.0,0.0,0.0,0.0,0.0,0.0,0.0,0.0,0.0,0.0,0.0,0.0,0.0,0.0,0.0,0.0,0.0,0.0,0.0,0.0,0.0,0.0,0.0,0.0,0.0,0.0,0.0,0.0,0.0,0.0,0.0,0.0,0.0,0.0,0.0,0.0,0.0,0.0,0.0,0.0,0.0,0.0,0.0,0.0,0.0,0.0,0.0,0.0,0.0,0.0,0.0,0.0,0.0,0.0,0.0,0.0,0.0,0.0,0.0,0.0,0.0,0.0,0.0,0.0,0.0,0.0,0.0,0.0,0.0,0.0,0.0,0.0,0.0,0.0,0.0,0.0,0.0,0.0,0.0,0.0,0.0,0.0,0.0,0.0,0.0,0.0,0.0,0.0,0.0,0.0,0.0,0.0,0.0,0.0,0.0,0.0,0.0,0.0,0.0,0.0,0.0,0.0,0.0,0.0,0.0,0.0,0.0,0.0,0.0,0.0,0.0,0.0,0.0,0.0,0.0,0.0,0.0,0.0,0.0,0.0,0.0,0.0,0.0,0.0,0.0,0.0,0.0,0.0,0.0,0.0,0.0,0.0,0.0,0.0,0.0,0.0,0.0,0.0,0.0,0.0,0.0,0.0,0.0,0.0,0.0,0.0,0.0,0.0,0.0,0.0,0.0,0.0,0.0,0.0,0.0,0.0,0.0,0.0,0.0,0.0,0.0,0.0,0.0,0.0,0.0,0.0,0.0,0.0,0.0,0.0,0.0,0.0,0.0,0.0,0.0,0.0,0.0,0.0,0.0,0.0,0.0,0.0,0.0,0.0,0.0,0.0,0.0,0.0,0.0,0.0,0.0,0.0,0.0,0.0,0.0,0.0,0.0,0.0,0.0,0.0,0.0,0.0,0.0,0.0,0.0,0.0,0.0,0.0,0.0,0.0,0.0,0.0,0.0,0.0,0.0,0.0,0.0,0.0,0.0,0.0,0.0,0.0,0.0,0.0,0.0,0.0,0.0,0.0,0.0,0.0,0.0,0.0,0.0,0.0,0.0,0.0,0.0,0.0,0.0,0.0,0.0,0.0,0.0,0.0,0.0,0.0,0.0,0.0,0.0,0.0,0.0,0.0,0.0,0.0,0.0,0.0,0.0,0.0,0.0,0.0,0.0,0.0,0.0,0.0,0.0,0.0,0.0,0.0,0.0,0.0,0.0,0.0,0.0,0.0,0.0,0.0,0.0,0.0,0.0,0.0,0.0,0.0,0.0,0.0,0.0,0.0,0.0,0.0,0.0,0.0,0.0,0.0,0.0,0.0,0.0,0.0,0.0,0.0,0.0,0.0,0.0,0.0,0.0,0.0,0.0,0.0,0.0,0.0,0.0,0.0,0.0,0.0,0.0,0.0,0.0,0.0,0.0,0.0,0.0,0.0,0.0,0.0,0.0,0.0,0.0,0.0,0.0,0.0,0.0,0.0,0.0,0.0,0.0,0.0,0.0,0.0,0.0,0.0,0.0,0.0,0.0,0.0,0.0,0.0,0.0,0.0,0.0,0.0,0.0,0.0,0.0,0.0,0.0,0.0,0.0,0.0,0.0,0.0,0.0,0.0,0.0,0.0,0.0,0.0,0.0,0.0,0.0,0.0,0.0,0.0,0.0,0.0,0.0,0.0,0.0,0.0,0.0,0.0,0.0,0.0,0.0,0.0,0.0,0.0,0.0,0.0,0.0,0.0,0.0,0.0,0.0,0.0,0.0,0.0,0.0,0.0,0.0,0.0,0.0,0.0,0.0,0.0,0.0,0.0,0.0,0.0,0.0,0.0,0.0,0.0,0.0,0.0,0.0,0.0,0.0,0.0,0.0,0.0,0.0,0.0,0.0,0.0,0.0,0.0,0.0,0.0,0.0,0.0,0.0,0.0,0.0,0.0,0.0,0.0,0.0,0.0,0.0,0.0,0.0,0.0,0.0,0.0,0.0,0.0,0.0,0.0,0.0,0.0,0.0,0.0,0.0,0.0,0.0,0.0,0.0,0.0,0.0,0.0,0.0,0.0,0.0,0.0,0.0,0.0,0.0,0.0,0.0,0.0,0.0,0.0,0.0,0.0,0.0,0.0,0.0,0.0,0.0,0.0,0.0,0.0,0.0,0.0,0.0,0.0,0.0,0.0,0.0,0.0,0.0,0.0,0.0,0.0,0.0,0.0,0.0,0.0,0.0,0.0,0.0,0.0,0.0,0.0,0.0,0.0,0.0,0.0,0.0,0.0,0.0,0.0,0.0,0.0,0.0,0.0,0.0,0.0,0.0,0.0,0.0,0.0,0.0,0.0,0.0,0.0,0.0,0.0,0.0,0.0,0.0,0.0,0.0,0.0,0.0,0.0,0.0,0.0,0.0,0.0,0.0,0.0,0.0,0.0,0.0,0.0,0.0,0.0,0.0,0.0,0.0,0.0,0.0,0.0,0.0,0.0,0.0,0.0,0.0,0.0,0.0,0.0,0.0,0.0,0.0,0.0,0.0,0.0,0.0,0.0,0.0,0.0,0.0,0.0,0.0,0.0,0.0,0.0,0.0,0.0,0.0,0.0,0.0,0.0,0.0,0.0,0.0,0.0,0.0,0.0,0.0,0.0,0.0,0.0,0.0,0.0,0.0,0.0,0.0,0.0,0.0,0.0,0.0,0.0,0.0,0.0,0.0,0.0,0.0,0.0,0.0,0.0,0.0,0.0,0.0,0.0,0.0,0.0,0.0,0.0,0.0,0.0,0.0,0.0,0.0,0.0,0.0,0.0,0.0,0.0,0.0,0.0,0.0,0.0,0.0,0.0,0.0,0.0,0.0,0.0,0.0,0.0,0.0,0.0,0.0,0.0,0.0,0.0,0.0,0.0,0.0,0.0,0.0,0.0,0.0,0.0,0.0,0.0,0.0,0.0,0.0,0.0,0.0,0.0,0.0,0.0,0.0,0.0,0.0,0.0,0.0,0.0,0.0,0.0,0.0,0.0,0.0,0.0,0.0,0.0,0.0,0.0,0.0,0.0,0.0,0.0,0.0,0.0,0.0,0.0,0.0,0.0,0.0,0.0,0.0,0.0,0.0,0.0,0.0,0.0,0.0,0.0,0.0,0.0,0.0,0.0,0.0,0.0,0.0,0.0,0.0,0.0,0.0,0.0,0.0,0.0,0.0,0.0,0.0,0.0,0.0,0.0,0.0,0.0,0.0,0.0,0.0,0.0,0.0,0.0,0.0,0.0,0.0,0.0,0.0,0.0,0.0,0.0,0.0,0.0,0.0,0.0,0.0,0.0,0.0,0.0,0.0,0.0,0.0,0.0,0.0,0.0,0.0,0.0,0.0,0.0,0.0,0.0,0.0,0.0,0.0,0.0,0.0,0.0,0.0,0.0,0.0,0.0,0.0,0.0,0.0,0.0,0.0,0.0,0.0,0.0,0.0,0.0,0.0,0.0,0.0,0.0,0.0,0.0,0.0,0.0,0.0,0.0,0.0,0.0,0.0,0.0,0.0,0.0,0.0,0.0,0.0,0.0,0.0,0.0,0.0,0.0,0.0,0.0,0.0,0.0,0.0,0.0,0.0,0.0,0.0,0.0,0.0,0.0,0.0,0.0,0.0,0.0,0.0,0.0,0.0,0.0,0.0,0.0,0.0,0.0,0.0,0.0,0.0,0.0,0.0,0.0,0.0,0.0,0.0,0.0,0.0,0.0,0.0,0.0,0.0,0.0,0.0,0.0,0.0,0.0,0.0,0.0,0.0,0.0,0.0,0.0,0.0,0.0,0.0,0.0,-0.6594,0.0,0.0,0.0,-0.6437,0.0,0.0,0.0,0.0,0.0,0.0,0.0,0.0,0.0,0.0,0.0,0.0,0.0,0.0,0.0,0.0,0.0,0.0,0.0,0.0,0.0,0.0,0.0,0.0,0.0,0.0,0.0,0.0,0.0,0.0,0.0,0.0,0.0,0.0,0.0,0.0,0.0,0.0,0.0,0.0,0.0,0.0,0.0,0.0,0.0,0.0,0.0,0.0,0.0,0.0,0.0,0.0,0.0,0.0,0.0,0.0,0.0,0.0,0.0,0.0,0.0,0.0,0.0,0.0,0.0,0.0,0.0,0.0,0.0,0.0,0.0,0.0,0.0,0.0,0.0,0.0,0.0,0.0,0.0,0.0,0.0,0.0,0.0,0.0,0.0,0.0,0.0,0.0,0.0,0.0,0.0,0.0,0.0,0.0,0.0,0.0,0.0,0.0,0.0,0.0,0.0,0.0,0.0,0.0,0.0,0.0,0.0,0.0,0.0,0.0,-0.69,-0.6622,-0.6465,-0.6401,-0.6442,0.0,0.0,0.0,0.0,0.0,0.0,0.0,0.0,0.0,0.0,0.0,0.0,0.0,0.0,0.0,0.0,0.0,0.0,0.0,0.0,0.0,0.0,0.0,0.0,0.0,0.0,0.0,0.0,0.0,0.0,0.0,0.0,0.0,0.0,0.0,0.0,0.0,0.0,0.0,0.0,0.0,0.0,0.0,0.0,0.0,0.0,0.0,0.0,0.0,0.0,0.0,0.0,0.0,0.0,0.0,0.0,0.0,0.0,0.0,0.0,0.0,0.0,0.0,0.0,0.0,0.0,0.0,0.0,0.0,0.0,0.0,0.0,0.0,0.0,0.0,0.0,0.0,0.0,0.0,0.0,0.0,0.0,0.0,0.0,0.0,0.0,0.0,0.0,0.0,0.0,0.0,0.0,0.0,0.0,0.0,0.0,0.0,0.0,0.0,0.0,0.0,0.0,0.0,0.0,0.0,0.0,0.0,0.0,0.0,0.0,0.0,0.0,-0.6469,-0.6395,-0.638,0.0,0.0,0.0,0.0,0.0,0.0,0.0,0.0,0.0,0.0,0.0,0.0,0.0,0.0,0.0,0.0,0.0,0.0,0.0,0.0,0.0,0.0,0.0,0.0,0.0,0.0,0.0,0.0,0.0,0.0,0.0,0.0,0.0,0.0,0.0,0.0,0.0,0.0,0.0,0.0,0.0,0.0,0.0,0.0,0.0,0.0,0.0,0.0,0.0,0.0,0.0,0.0,0.0,0.0,0.0,0.0,0.0,0.0,0.0,0.0,0.0,0.0,0.0,0.0,0.0,0.0,0.0,0.0,0.0,0.0,0.0,0.0,0.0,0.0,0.0,0.0,0.0,0.0,0.0,0.0,0.0,0.0,0.0,0.0,0.0,0.0,0.0,0.0,0.0,0.0,0.0,0.0,0.0,0.0,0.0,0.0,0.0,0.0,0.0,0.0,0.0,0.0,0.0,0.0,0.0,0.0,0.0,0.0,0.0,0.0,-0.7197,-0.7186,-0.6632,0.0,-0.6405,0.0,0.0,0.0,0.0,0.0,0.0,0.0,0.0,0.0,0.0,0.0,0.0,0.0,0.0,0.0,0.0,0.0,0.0,0.0,0.0,0.0,0.0,0.0,0.0,0.0,0.0,0.0,0.0,0.0,0.0,0.0,0.0,0.0,0.0,0.0,0.0,0.0,0.0,0.0,0.0,0.0,0.0,0.0,0.0,0.0,0.0,0.0,0.0,0.0,0.0,0.0,0.0,0.0,0.0,0.0,0.0,0.0,0.0,0.0,0.0,0.0,0.0,0.0,0.0,0.0,0.0,0.0,0.0,0.0,0.0,0.0,0.0,0.0,0.0,0.0,0.0,0.0,0.0,0.0,0.0,0.0,0.0,0.0,0.0,0.0,0.0,0.0,0.0,0.0,0.0,0.0,0.0,0.0,0.0,0.0,0.0,0.0,0.0,0.0,0.0,0.0,0.0,0.0,0.0,0.0,0.0,0.0,0.0,0.0,0.0,-0.6097,-0.7337,-0.698,-0.6669,0.0,0.0,0.0,0.0,0.0,0.0,0.0,0.0,0.0,0.0,0.0,0.0,0.0,0.0,0.0,0.0,0.0,0.0,0.0,0.0,0.0,0.0,0.0,0.0,0.0,0.0,0.0,0.0,0.0,0.0,0.0,0.0,0.0,0.0,0.0,0.0,0.0,0.0,0.0,0.0,0.0,0.0,0.0,0.0,0.0,0.0,0.0,0.0,0.0,0.0,0.0,0.0,0.0,0.0,0.0,0.0,0.0,0.0,0.0,0.0,0.0,0.0,0.0,0.0,0.0,0.0,0.0,0.0,0.0,0.0,0.0,0.0,0.0,0.0,0.0,0.0,0.0,0.0,0.0,0.0,0.0,0.0,0.0,0.0,0.0,0.0,0.0,0.0,0.0,0.0,0.0,0.0,0.0,0.0,0.0,0.0,0.0,0.0,0.0,0.0,0.0,0.0,0.0,0.0,0.0,0.0,0.0,0.0,0.0,0.0,-0.463,-0.5219,-0.7285,-0.7332,-0.7138,-0.6926,0.0,0.0,0.0,0.0,0.0,0.0,0.0,0.0,0.0,0.0,0.0,0.0,0.0,0.0,0.0,0.0,0.0,0.0,0.0,0.0,0.0,0.0,0.0,0.0,0.0,0.0,0.0,0.0,0.0,0.0,0.0,0.0,0.0,0.0,0.0,0.0,0.0,0.0,0.0,0.0,0.0,0.0,0.0,0.0,0.0,0.0,0.0,0.0,0.0,0.0,0.0,0.0,0.0,0.0,0.0,0.0,0.0,0.0,0.0,0.0,0.0,0.0,0.0,0.0,0.0,0.0,0.0,0.0,0.0,0.0,0.0,0.0,0.0,0.0,0.0,0.0,0.0,0.0,0.0,0.0,0.0,0.0,0.0,0.0,0.0,0.0,0.0,0.0,0.0,0.0,0.0,0.0,0.0,0.0,0.0,0.0,0.0,0.0,0.0,0.0,0.0,0.0,0.0,0.0,0.0,0.0,0.0,0.0,-0.7623,-0.5261,-0.5053,-0.7402,-0.7858,-0.7752,0.0,0.0,0.0,0.0,0.0,0.0,0.0,0.0,0.0,0.0,0.0,0.0,0.0,0.0,0.0,0.0,0.0,0.0,0.0,0.0,0.0,0.0,0.0,0.0,0.0,0.0,0.0,0.0,0.0,0.0,0.0,0.0,0.0,0.0,0.0,0.0,0.0,0.0,0.0,0.0,0.0,0.0,0.0,0.0,0.0,0.0,0.0,0.0,0.0,0.0,0.0,0.0,0.0,0.0,0.0,0.0,0.0,0.0,0.0,0.0,0.0,0.0,0.0,0.0,0.0,0.0,0.0,0.0,0.0,0.0,0.0,0.0,0.0,0.0,0.0,0.0,0.0,0.0,0.0,0.0,0.0,0.0,0.0,0.0,0.0,0.0,0.0,0.0,0.0,0.0,0.0,0.0,0.0,0.0,0.0,0.0,0.0,0.0,0.0,0.0,0.0,0.0,0.0,0.0,0.0,0.0,0.0,0.0,0.0,-0.7638,-0.6953,-0.6969,-0.81,-0.806,-0.7817,0.0,0.0,0.0,0.0,0.0,0.0,0.0,0.0,0.0,0.0,0.0,0.0,0.0,0.0,0.0,0.0,0.0,0.0,0.0,0.0,0.0,0.0,0.0,0.0,0.0,0.0,0.0,0.0,0.0,0.0,0.0,0.0,0.0,0.0,0.0,0.0,0.0,0.0,0.0,0.0,0.0,0.0,0.0,0.0,0.0,0.0,0.0,0.0,0.0,0.0,0.0,0.0,0.0,0.0,0.0,0.0,0.0,0.0,0.0,0.0,0.0,0.0,0.0,0.0,0.0,0.0,0.0,0.0,0.0,0.0,0.0,0.0,0.0,0.0,0.0,0.0,0.0,0.0,0.0,0.0,0.0,0.0,0.0,0.0,0.0,0.0,0.0,0.0,0.0,0.0,0.0,0.0,0.0,0.0,0.0,0.0,0.0,0.0,0.0,0.0,0.0,0.0,0.0,0.0,0.0,0.0,0.0,0.0,0.0,-0.524,-0.7093,-0.7996,-0.8258,-0.718,-0.6982,0.0,0.0,0.0,0.0,0.0,0.0,0.0,0.0,0.0,0.0,0.0,0.0,0.0,0.0,0.0,0.0,0.0,0.0,0.0,0.0,0.0,0.0,0.0,0.0,0.0,0.0,0.0,0.0,0.0,0.0,0.0,0.0,0.0,0.0,0.0,0.0,0.0,0.0,0.0,0.0,0.0,0.0,0.0,0.0,0.0,0.0,0.0,0.0,0.0,0.0,0.0,0.0,0.0,0.0,0.0,0.0,0.0,0.0,0.0,0.0,0.0,0.0,0.0,0.0,0.0,0.0,0.0,0.0,0.0,0.0,0.0,0.0,0.0,0.0,0.0,0.0,0.0,0.0,0.0,0.0,0.0,0.0,0.0,0.0,0.0,0.0,0.0,0.0,0.0,0.0,0.0,0.0,0.0,0.0,0.0,0.0,0.0,0.0,0.0,0.0,0.0,0.0,0.0,0.0,0.0,0.0,0.0,0.0,0.0,0.0,-0.5077,-0.7583,-0.7798,-0.5254,-0.5211,0.0,0.0,0.0,0.0,0.0,0.0,0.0,0.0,0.0,0.0,0.0,0.0,0.0,0.0,0.0,0.0,0.0,0.0,0.0,0.0,0.0,0.0,0.0,0.0,0.0,0.0,0.0,0.0,0.0,0.0,0.0,0.0,0.0,0.0,0.0,0.0,0.0,0.0,0.0,0.0,0.0,0.0,0.0,0.0,0.0,0.0,0.0,0.0,0.0,0.0,0.0,0.0,0.0,0.0,0.0,0.0,0.0,0.0,0.0,0.0,0.0,0.0,0.0,0.0,0.0,0.0,0.0,0.0,0.0,0.0,0.0,0.0,0.0,0.0,0.0,0.0,0.0,0.0,0.0,0.0,0.0,0.0,0.0,0.0,0.0,0.0,0.0,0.0,0.0,0.0,0.0,0.0,0.0,0.0,0.0,0.0,0.0,0.0,0.0,0.0,0.0,0.0,0.0,0.0,0.0,0.0,0.0,0.0,0.0,0.0,-0.1544,-0.242,-0.2417,-0.341,-0.5215,0.0,0.0,0.0,0.0,0.0,0.0,0.0,0.0,0.0,0.0,0.0,0.0,0.0,0.0,0.0,0.0,0.0,0.0,0.0,0.0,0.0,0.0,0.0,0.0,0.0,0.0,0.0,0.0,0.0,0.0,0.0,0.0,0.0,0.0,0.0,0.0,0.0,0.0,0.0,0.0,0.0,0.0,0.0,0.0,0.0,0.0,0.0,0.0,0.0,0.0,0.0,0.0,0.0,0.0,0.0,0.0,0.0,0.0,0.0,0.0,0.0,0.0,0.0,0.0,0.0,0.0,0.0,0.0,0.0,0.0,0.0,0.0,0.0,0.0,0.0,0.0,0.0,0.0,0.0,0.0,0.0,0.0,0.0,0.0,0.0,0.0,0.0,0.0,0.0,0.0,0.0,0.0,0.0,0.0,0.0,0.0,0.0,0.0,0.0,0.0,0.0,0.0,0.0,0.0,0.0,0.0,0.0,0.0,0.0,0.0,0.0,0.0,0.0,-0.2658,-0.5233,-0.7807,0.0,0.0,0.0,0.0,0.0,0.0,0.0,0.0,0.0,0.0,0.0,0.0,0.0,0.0,0.0,0.0,0.0,0.0,0.0,0.0,0.0,0.0,0.0,0.0,0.0,0.0,0.0,0.0,0.0,0.0,0.0,0.0,0.0,0.0,0.0,0.0,0.0,0.0,0.0,0.0,0.0,0.0,0.0,0.0,0.0,0.0,0.0,0.0,0.0,0.0,0.0,0.0,0.0,0.0,0.0,0.0,0.0,0.0,0.0,0.0,0.0,0.0,0.0,0.0,0.0,0.0,0.0,0.0,0.0,0.0,0.0,0.0,0.0,0.0,0.0,0.0,0.0,0.0,0.0,0.0,0.0,0.0,0.0,0.0,0.0,0.0,0.0,0.0,0.0,0.0,0.0,0.0,0.0,0.0,0.0,0.0,0.0,0.0,0.0,0.0,0.0,0.0,0.0,0.0,0.0,0.0,0.0,0.0,-0.0,0.0,0.0,0.0,-0.2777,-0.5386,0.0,0.0,0.0,0.0,0.0,0.0,0.0,0.0,0.0,0.0,0.0,0.0,0.0,0.0,0.0,0.0,0.0,0.0,0.0,0.0,0.0,0.0,0.0,0.0,0.0,0.0,0.0,0.0,0.0,0.0,0.0,0.0,0.0,0.0,0.0,0.0,0.0,0.0,0.0,0.0,0.0,0.0,0.0,0.0,0.0,0.0,0.0,0.0,0.0,0.0,0.0,0.0,0.0,0.0,0.0,0.0,0.0,0.0,0.0,0.0,0.0,0.0,0.0,0.0,0.0,0.0,0.0,0.0,0.0,0.0,0.0,0.0,0.0,0.0,0.0,0.0,0.0,0.0,0.0,0.0,0.0,0.0,0.0,0.0,0.0,0.0,0.0,0.0,0.0,0.0,0.0,0.0,0.0,0.0,0.0,0.0,0.0,0.0,0.0,0.0,0.0,0.0,0.0,0.0,0.0,0.0,0.0,0.0,0.0,0.0,0.0,0.0,0.0,-0.2834,-0.5474,0.0,0.0,0.0,0.0,0.0,0.0,0.0,0.0,0.0,0.0,0.0,0.0,0.0,0.0,0.0,0.0,0.0,0.0,0.0,0.0,0.0,0.0,0.0,0.0,0.0,0.0,0.0,0.0,0.0,0.0,0.0,0.0,0.0,0.0,0.0,0.0,0.0,0.0,0.0,0.0,0.0,0.0,0.0,0.0,0.0,0.0,0.0,0.0,0.0,0.0,0.0,0.0,0.0,0.0,0.0,0.0,0.0,0.0,0.0,0.0,0.0,0.0,0.0,0.0,0.0,0.0,0.0,0.0,0.0,0.0,0.0,0.0,0.0,0.0,0.0,0.0,0.0,0.0,0.0,0.0,0.0,0.0,0.0,0.0,0.0,0.0,0.0,0.0,0.0,0.0,0.0,0.0,0.0,0.0,0.0,0.0,0.0,0.0,0.0,0.0,0.0,0.0,0.0,0.0,0.0,0.0,0.0,0.0,-0.3367,0.0,0.0,0.0,0.0,-0.1561,-0.4348,0.0,0.0,0.0,0.0,0.0,0.0,0.0,0.0,0.0,0.0,0.0,0.0,0.0,0.0,0.0,0.0,0.0,0.0,0.0,0.0,0.0,0.0,0.0,0.0,0.0,0.0,0.0,0.0,0.0,0.0,0.0,0.0,0.0,0.0,0.0,0.0,0.0,0.0,0.0,0.0,0.0,0.0,0.0,0.0,0.0,0.0,0.0,0.0,0.0,0.0,0.0,0.0,0.0,0.0,0.0,0.0,0.0,0.0,0.0,0.0,0.0,0.0,0.0,0.0,0.0,0.0,0.0,0.0,0.0,0.0,0.0,0.0,0.0,0.0,0.0,0.0,0.0,0.0,0.0,0.0,0.0,0.0,0.0,0.0,0.0,0.0,0.0,0.0,0.0,0.0,0.0,0.0,0.0,0.0,0.0,0.0,0.0,0.0,0.0,0.0,0.0,0.0,0.0,0.0,0.0,0.0,0.0,0.0,0.0,0.0,0.0,0.0,0.0,0.0,-0.2439,0.0,0.0,0.0,0.0,0.0,0.0,0.0,0.0,0.0,0.0,0.0,0.0,0.0,0.0,0.0,0.0,0.0,0.0,0.0,0.0,0.0,0.0,0.0,0.0,0.0,0.0,0.0,0.0,0.0,0.0,0.0,0.0,0.0,0.0,0.0,0.0,0.0,0.0,0.0,0.0,0.0,0.0,0.0,0.0,0.0,0.0,0.0,0.0,0.0,0.0,0.0,0.0,0.0,0.0,0.0,0.0,0.0,0.0,0.0,0.0,0.0,0.0,0.0,0.0,0.0,0.0,0.0,0.0,0.0,0.0,0.0,0.0,0.0,0.0,0.0,0.0,0.0,0.0,0.0,0.0,0.0,0.0,0.0,0.0,0.0,0.0,0.0,0.0,0.0,0.0,0.0,0.0,0.0,0.0,0.0,0.0,0.0,0.0,0.0,0.0,0.0,0.0,0.0,0.0,0.0,0.0,0.0,0.0,0.0,0.0,0.0,0.0,0.0,0.0,-0.1587,0.0,0.0,0.0,0.0,0.0,0.0,0.0,0.0,0.0,0.0,0.0,0.0,0.0,0.0,0.0,0.0,0.0,0.0,0.0,0.0,0.0,0.0,0.0,0.0,0.0,0.0,0.0,0.0,0.0,0.0,0.0,0.0,0.0,0.0,0.0,0.0,0.0,0.0,0.0,0.0,0.0,0.0,0.0,0.0,0.0,0.0,0.0,0.0,-0.8381,0.0,0.0,0.0,0.0,0.0,0.0,0.0,0.0,0.0,0.0,0.0,0.0,0.0,0.0,0.0,0.0,0.0,0.0,0.0,0.0,0.0,0.0,0.0,0.0,0.0,0.0,0.0,0.0,0.0,0.0,0.0,0.0,0.0,0.0,0.0,0.0,0.0,0.0,0.0,0.0,0.0,0.0,0.0,0.0,0.0,0.0,0.0,0.0,0.0,0.0,0.0,0.0,0.0,0.0,0.0,0.0,0.0,0.0,0.0,0.0,0.0,0.0,0.0,0.0,0.0,-0.1345,0.0,0.0,0.0,0.0,0.0,0.0,0.0,0.0,0.0,0.0,0.0,0.0,0.0,0.0,0.0,0.0,0.0,0.0,0.0,0.0,0.0,0.0,0.0,0.0,0.0,0.0,0.0,0.0,0.0,0.0,0.0,0.0,0.0,0.0,0.0,0.0,0.0,0.0,0.0,0.0,0.0,0.0,0.0,0.0,0.0,0.0,0.0,0.0,0.0,0.0,0.0,0.0,0.0,0.0,0.0,0.0,0.0,0.0,0.0,0.0,0.0,0.0,0.0,0.0,0.0,0.0,0.0,0.0,0.0,0.0,0.0,0.0,0.0,0.0,0.0,0.0,0.0,0.0,0.0,0.0,0.0,0.0,0.0,0.0,0.0,0.0,0.0,0.0,0.0,0.0,0.0,0.0,0.0,0.0,0.0,0.0,0.0,0.0,0.0,0.0,0.0,0.0,0.0,0.0,0.0,0.0,0.0,0.0,0.0,0.0,0.0,0.0,0.0,0.0,-0.1364,-0.424,0.0,0.0,0.0,0.0,0.0,0.0,0.0,0.0,0.0,0.0,0.0,0.0,0.0,0.0,0.0,0.0,0.0,0.0,0.0,0.0,0.0,0.0,0.0,0.0,0.0,0.0,0.0,0.0,0.0,0.0,0.0,0.0,0.0,0.0,0.0,0.0,0.0,0.0,-0.7921,-0.8013,0.0,0.0,0.0,0.0,0.0,0.0,0.0,0.0,-0.8416,0.0,0.0,0.0,0.0,0.0,0.0,0.0,0.0,0.0,0.0,0.0,0.0,0.0,0.0,0.0,0.0,0.0,0.0,0.0,0.0,0.0,0.0,0.0,0.0,0.0,0.0,0.0,0.0,0.0,0.0,0.0,0.0,0.0,0.0,0.0,0.0,0.0,0.0,0.0,0.0,0.0,0.0,0.0,0.0,0.0,0.0,0.0,0.0,0.0,0.0,0.0,0.0,0.0,0.0,0.0,0.0,0.0,0.0,0.0,0.0,0.0,0.0,0.0,0.0,-0.1403,-0.4224,0.0,0.0,0.0,0.0,0.0,0.0,0.0,0.0,0.0,0.0,0.0,0.0,0.0,0.0,0.0,0.0,0.0,0.0,0.0,0.0,0.0,0.0,0.0,0.0,0.0,0.0,0.0,0.0,0.0,0.0,0.0,0.0,0.0,0.0,0.0,0.0,0.0,0.0,0.0,-0.8193,-0.8253,0.0,0.0,0.0,0.0,0.0,0.0,0.0,0.0,-0.857,0.0,0.0,0.0,0.0,0.0,0.0,0.0,0.0,0.0,0.0,0.0,0.0,0.0,0.0,0.0,0.0,0.0,0.0,0.0,0.0,0.0,0.0,0.0,0.0,0.0,0.0,0.0,0.0,0.0,0.0,0.0,0.0,0.0,0.0,0.0,0.0,0.0,0.0,0.0,0.0,0.0,0.0,0.0,0.0,0.0,0.0,0.0,0.0,0.0,0.0,0.0,0.0,0.0,0.0,0.0,0.0,0.0,0.0,0.0,0.0,0.0,0.0,0.0,-0.1421,0.0,0.0,0.0,0.0,0.0,0.0,0.0,0.0,0.0,0.0,0.0,0.0,0.0,0.0,0.0,0.0,0.0,0.0,0.0,0.0,0.0,0.0,0.0,0.0,0.0,0.0,0.0,0.0,0.0,0.0,0.0,0.0,0.0,0.0,0.0,0.0,0.0,0.0,0.0,0.0,-0.8339,-0.8437,-0.8497,0.0,0.0,0.0,0.0,0.0,0.0,-0.866,-0.8638,0.0,0.0,0.0,0.0,0.0,0.0,0.0,0.0,0.0,0.0,0.0,0.0,0.0,0.0,0.0,0.0,0.0,0.0,0.0,0.0,0.0,0.0,0.0,0.0,0.0,0.0,0.0,0.0,0.0,0.0,0.0,0.0,0.0,0.0,0.0,0.0,0.0,0.0,0.0,0.0,0.0,0.0,0.0,0.0,0.0,0.0,0.0,0.0,0.0,0.0,0.0,0.0,0.0,0.0,0.0,0.0,0.0,0.0,0.0,0.0,0.0,0.0,0.0,-0.1151,0.0,0.0,0.0,0.0,0.0,0.0,0.0,0.0,0.0,0.0,0.0,0.0,0.0,0.0,0.0,0.0,0.0,0.0,0.0,0.0,0.0,0.0,0.0,0.0,0.0,0.0,0.0,0.0,0.0,0.0,0.0,0.0,0.0,0.0,0.0,0.0,0.0,0.0,0.0,0.0,0.0,-0.8622,-0.8628,-0.8731,0.0,0.0,0.0,0.0,-0.8623,-0.8614,0.0,0.0,0.0,0.0,0.0,0.0,0.0,0.0,0.0,0.0,0.0,0.0,0.0,0.0,0.0,0.0,0.0,0.0,0.0,0.0,0.0,0.0,0.0,0.0,0.0,0.0,0.0,0.0,0.0,0.0,0.0,0.0,0.0,0.0,0.0,0.0,0.0,0.0,0.0,0.0,0.0,0.0,0.0,0.0,0.0,0.0,0.0,0.0,0.0,0.0,0.0,0.0,0.0,0.0,0.0,0.0,0.0,0.0,0.0,0.0,0.0,0.0,0.0,0.0,-0.0147,0.0,0.0,0.0,0.0,0.0,0.0,0.0,0.0,0.0,0.0,0.0,0.0,0.0,0.0,0.0,0.0,0.0,0.0,0.0,0.0,0.0,0.0,0.0,0.0,0.0,0.0,0.0,0.0,0.0,0.0,0.0,0.0,0.0,0.0,0.0,0.0,0.0,0.0,0.0,0.0,0.0,-0.8747,-0.8747,-0.8856,-0.897,0.0,0.0,-0.8871,-0.8796,-0.8683,0.0,0.0,0.0,0.0,0.0,0.0,0.0,0.0,0.0,0.0,0.0,0.0,0.0,0.0,0.0,0.0,0.0,0.0,0.0,0.0,0.0,0.0,0.0,0.0,0.0,0.0,0.0,0.0,0.0,0.0,0.0,0.0,0.0,0.0,0.0,0.0,0.0,0.0,0.0,0.0,0.0,0.0,0.0,0.0,0.0,0.0,0.0,0.0,0.0,0.0,0.0,0.0,0.0,0.0,0.0,0.0,0.0,0.0,0.0,0.0,0.0,0.0,0.0,0.0,0.0,0.0,0.0,0.0,0.0,0.0,0.0,0.0,0.0,0.0,0.0,0.0,0.0,0.0,0.0,0.0,0.0,0.0,0.0,0.0,0.0,0.0,0.0,0.0,0.0,0.0,0.0,0.0,0.0,0.0,0.0,0.0,0.0,0.0,0.0,0.0,0.0,0.0,0.0,0.0,0.0,0.0,0.0,-0.8883,-0.9155,0.0,0.0,0.0,-0.9329,-0.9329,0.0,0.0,0.0,0.0,0.0,0.0,0.0,0.0,0.0,0.0,0.0,0.0,0.0,0.0,0.0,0.0,0.0,0.0,0.0,0.0,0.0,0.0,0.0,0.0,0.0,0.0,0.0,0.0,0.0,0.0,0.0,0.0,0.0,0.0,0.0,0.0,0.0,0.0,0.0,0.0,0.0,0.0,0.0,0.0,0.0,0.0,0.0,0.0,0.0,0.0,0.0,0.0,0.0,0.0,0.0,0.0,0.0,0.0,0.0,0.0,0.0,0.0,0.0,0.0,0.0,0.0,0.0,0.0,0.0,0.0,0.0,0.0,0.0,0.0,0.0,0.0,0.0,0.0,0.0,0.0,0.0,0.0,0.0,0.0,0.0,0.0,0.0,0.0,0.0,0.0,0.0,0.0,-0.7355,0.0,0.0,0.0,0.0,0.0,0.0,0.0,0.0,0.0,0.0,0.0,0.0,0.0,0.0,-0.9101,-0.9008,-0.9329,-0.9492,0.0,0.0,-0.9709,-0.9775,-0.9921,-1.0,0.0,0.0,0.0,0.0,0.0,0.0,0.0,0.0,0.0,0.0,0.0,0.0,0.0,0.0,0.0,0.0,0.0,0.0,0.0,0.0,0.0,0.0,0.0,0.0,0.0,0.0,0.0,0.0,0.0,0.0,0.0,0.0,0.0,0.0,0.0,0.0,0.0,0.0,0.0,0.0,0.0,0.0,0.0,0.0,0.0,0.0,0.0,0.0,0.0,0.0,0.0,0.0,0.0,0.0,0.0,0.0,0.0,0.0,0.0,0.0,0.0,0.0,0.0,0.0,0.0,0.0,0.0,0.0,0.0,0.0,0.0,0.0,0.0,0.0,0.0,0.0,0.0,0.0,0.0,0.0,0.0,0.0,0.0,0.0,0.0,0.0,0.0,0.0,0.0,0.0,0.0,0.0,0.0,0.0,0.0,0.0,0.0,0.0,0.0,0.0,0.0,0.0,0.0,0.0,0.0,-0.9133,-0.9122,-0.9242,-0.9362,0.0,0.0,-0.9553,-0.9943,-0.9911,-0.9992,-0.997,0.0,0.0,0.0,0.0,0.0,0.0,0.0,0.0,0.0,0.0,0.0,0.0,0.0,0.0,0.0,0.0,0.0,0.0,0.0,0.0,0.0,0.0,0.0,0.0,0.0,0.0,0.0,0.0,0.0,0.0,0.0,0.0,0.0,0.0,0.0,0.0,0.0,0.0,0.0,0.0,0.0,0.0,0.0,0.0,0.0,0.0,0.0,0.0,0.0,0.0,0.0,0.0,0.0,0.0,0.0,0.0,0.0,0.0,0.0,0.0,0.0,0.0,0.0,0.0,0.0,0.0,0.0,0.0,0.0,0.0,0.0,0.0,0.0,0.0,0.0,0.0,0.0,0.0,0.0,0.0,0.0,0.0,0.0,0.0,0.0,0.0,0.0,0.0,0.0,0.0,0.0,-0.8258,-0.8416,-0.8618,0.0,0.0,0.0,0.0,0.0,0.0,0.0,0.0,0.0,0.0,-0.9438,-0.9367,-0.9644,0.0,0.0,-0.9671,-0.98,-0.9851,-0.9848,-0.9949,-1.003,-1.0079,0.0,0.0,0.0,0.0,0.0,0.0,0.0,0.0,0.0,0.0,0.0,0.0,0.0,0.0,0.0,0.0,0.0,0.0,0.0,0.0,0.0,0.0,0.0,0.0,0.0,0.0,0.0,0.0,0.0,0.0,0.0,0.0,0.0,0.0,0.0,0.0,0.0,0.0,0.0,0.0,0.0,0.0,0.0,0.0,0.0,0.0,0.0,0.0,0.0,0.0,0.0,0.0,0.0,0.0,0.0,0.0,0.0,0.0,0.0,0.0,0.0,0.0,0.0,0.0,0.0,0.0,0.0,0.0,0.0,0.0,0.0,0.0,0.0,0.0,0.0,0.0,0.0,0.0,0.0,0.0,0.0,0.0,0.0,0.0,0.0,0.0,0.0,0.0,0.0,0.0,-0.8397,-0.8569,-0.8861,0.0,0.0,0.0,0.0,0.0,0.0,0.0,0.0,0.0,0.0,-0.9639,-0.9557,-0.9889,-1.0057,-0.9813,-0.9917,-0.9924,-0.9761,-0.9871,-1.0115,-1.0193,0.0,0.0,0.0,0.0,0.0,0.0,0.0,0.0,0.0,0.0,0.0,0.0,0.0,0.0,0.0,0.0,0.0,0.0,0.0,0.0,0.0,0.0,0.0,0.0,0.0,0.0,0.0,0.0,0.0,0.0,0.0,0.0,0.0,0.0,0.0,0.0,0.0,0.0,0.0,0.0,0.0,0.0,0.0,0.0,0.0,0.0,0.0,0.0,0.0,0.0,0.0,0.0,0.0,0.0,0.0,0.0,0.0,0.0,0.0,0.0,0.0,0.0,0.0,0.0,0.0,0.0,0.0,0.0,0.0,0.0,0.0,0.0,0.0,0.0,0.0,0.0,0.0,0.0,0.0,0.0,0.0,0.0,0.0,0.0,0.0,0.0,0.0,0.0,0.0,0.0,-0.8274,-0.8153,-0.8443,0.0,0.0,0.0,0.0,0.0,0.0,0.0,0.0,0.0,0.0,-0.9671,-0.9671,-0.9677,-0.9873,-1.0036,-1.0019,-0.9822,-0.9707,-0.9692,-0.9871,-1.0214,0.0,0.0,0.0,0.0,0.0,0.0,0.0,0.0,0.0,0.0,0.0,0.0,0.0,0.0,0.0,0.0,0.0,0.0,0.0,0.0,0.0,0.0,0.0,0.0,0.0,0.0,0.0,0.0,0.0,0.0,0.0,0.0,0.0,0.0,0.0,0.0,0.0,0.0,0.0,0.0,0.0,0.0,0.0,0.0,0.0,0.0,0.0,0.0,0.0,0.0,0.0,0.0,0.0,0.0,0.0,0.0,0.0,0.0,0.0,0.0,0.0,0.0,0.0,0.0,0.0,0.0,0.0,0.0,0.0,0.0,0.0,0.0,0.0,0.0,0.0,0.0,0.0,0.0,0.0,0.0,0.0,0.0,0.0,0.0,0.0,0.0,0.0,0.0,0.0,0.0,-0.8839,0.0,0.0,0.0,0.0,0.0,0.0,0.0,0.0,0.0,0.0,0.0,-0.9888,-0.9932,-0.9921,-1.0025,-1.0025,-1.0161,-1.0264,0.0,0.0,0.0,0.0,0.0,0.0,0.0,0.0,0.0,0.0,0.0,0.0,0.0,0.0,-1.0117,-0.988,-0.9708,-0.9842,-0.9921,0.0,0.0,0.0,0.0,0.0,0.0,0.0,0.0,0.0,0.0,0.0,0.0,0.0,0.0,0.0,0.0,0.0,0.0,0.0,0.0,0.0,0.0,0.0,0.0,0.0,0.0,0.0,0.0,0.0,0.0,0.0,0.0,0.0,0.0,0.0,0.0,0.0,0.0,0.0,0.0,0.0,0.0,0.0,0.0,0.0,0.0,0.0,0.0,0.0,0.0,0.0,0.0,0.0,0.0,0.0,0.0,0.0,0.0,0.0,0.0,0.0,0.0,0.0,0.0,0.0,0.0,0.0,0.0,0.0,0.0,0.0,0.0,0.0,0.0,0.0,0.0,0.0,-0.9014,0.0,0.0,0.0,0.0,0.0,0.0,0.0,0.0,0.0,-0.9532,-0.996,-1.0075,-1.012,-1.0139,-1.0264,-1.0264,0.0,0.0,0.0,0.0,0.0,0.0,0.0,-1.1093,-1.093,-1.0865,-1.0764,-1.0655,-1.0634,-1.0634,-1.0634,0.0,0.0,-1.0153,-1.0105,-1.0242,-1.0166,-1.0307,-1.0329,-1.0412,-1.0527,-1.0515,0.0,0.0,0.0,0.0,0.0,0.0,0.0,0.0,0.0,0.0,0.0,0.0,0.0,0.0,0.0,0.0,0.0,0.0,0.0,0.0,0.0,0.0,0.0,0.0,0.0,0.0,0.0,0.0,0.0,0.0,0.0,0.0,0.0,0.0,0.0,0.0,0.0,0.0,0.0,0.0,0.0,0.0,0.0,0.0,0.0,0.0,0.0,0.0,0.0,0.0,0.0,0.0,0.0,0.0,0.0,0.0,0.0,0.0,0.0,0.0,0.0,0.0,0.0,0.0,0.0,0.0,0.0,0.0,0.0,0.0,0.0,-0.9003,0.0,0.0,0.0,0.0,0.0,0.0,0.0,0.0,0.0,0.0,-1.0036,-1.0197,-1.0398,-1.0368,0.0,0.0,0.0,0.0,-1.0742,-1.0742,-1.0944,-1.1096,-1.1096,-1.0833,-1.0758,-1.1097,0.0,0.0,-1.1079,-1.1101,-1.1085,-1.1096,-1.1079,-1.0954,-1.0498,-1.0433,-1.0427,-1.0583,-1.0751,-1.074,-1.0745,-1.0768,-1.06,0.1382,0.0,0.0,0.0,0.0,0.0297,0.0298,0.0897,0.1495,0.1501,0.0909,0.0909,0.0,0.0,0.0,0.0,0.0,0.0,0.0,0.0,0.0,0.0,0.0,0.0,0.0,0.0,0.0,0.0,0.0,0.0,0.0,0.0,0.0,0.0,0.0,0.0,0.0,0.0,0.0,0.0,0.0,0.0,0.0,0.0,0.0,0.0,0.0,0.0,0.0,0.0,0.0,0.0,0.0,0.0,0.0,0.0,0.0,0.0,0.0,0.0,0.0,0.0,0.0,0.0,0.0,0.0,0.0,0.0,0.0,0.0,-0.9413,-0.9413,-0.9512,0.0,0.0,0.0,0.0,0.0,0.0,0.0,0.0,0.0,-1.0556,-1.0495,-1.0517,0.0,0.0,-1.0568,-1.0742,-1.0824,-1.0867,-1.0867,-1.0827,0.0,-1.0756,-1.0788,-1.0793,-1.124,-1.1224,-1.1235,-1.1096,-1.1107,-1.1107,-1.1107,-1.1107,-1.1052,-1.0938,-1.0725,-1.072,-1.0725,-1.0725,-1.0725,-1.09,-1.1069,-1.0895,0.2226,0.1869,0.1861,0.185,0.1684,0.1224,0.1381,0.1851,0.2313,0.2169,0.1715,0.1715,0.1403,0.0935,0.1403,0.0,0.0,0.0,0.0,0.0,0.0,0.0,0.0,0.0,0.0,0.0,0.0,0.0,0.0,0.0,0.0,0.0,0.0,0.0,0.0,0.0,0.0,0.0,0.0,0.0,0.0,0.0,0.0,0.0,0.0,0.0,0.0,0.0,0.0,0.0,0.0,0.0,0.0,0.0,0.0,0.0,0.0,0.0,0.0,0.0,0.0,0.0,0.0,-0.8507,-0.8905,0.0,0.0,0.0,-0.9264,-0.9595,-0.9761,-0.9755,0.0,0.0,0.0,0.0,0.0,0.0,0.0,-0.9853,-1.0244,-1.0683,-1.0677,-1.0639,-1.0799,-1.1065,-1.0887,-1.077,-1.0965,0.0,-1.0992,-1.0992,-1.0881,-1.0929,-1.0929,-1.0982,-1.1194,-1.1524,-1.1351,-1.1194,-1.1232,-1.1243,-1.1243,-1.1243,-1.1243,-1.1243,-1.1243,-1.1063,-1.1031,-1.0945,-1.1101,-1.1101,-1.1279,-1.1279,-1.1279,0.2609,0.2607,0.2581,0.2567,0.2563,0.2403,0.2578,0.2605,0.2604,0.2442,0.2442,0.2442,0.2441,0.2278,0.0814,0.0,0.2282,0.0816,0.0,0.0163,0.0164,0.0,0.0,0.0,0.0168,0.0,0.0173,0.0175,0.0,0.0,0.0,0.0,0.0182,0.0182,0.0182,0.0,0.0181,0.0,0.0,0.0,0.0,0.0,0.0,0.0,0.0,0.0,0.0,0.0,0.0,0.0,0.0,0.0,0.0,0.0,0.0,0.0,0.0,0.0,0.0,0.0,0.0,0.0,0.0,0.0,0.0,0.0,0.0,0.0,-0.9888,0.0,-0.9987,-0.9954,0.0,0.0,0.0,-1.0072,-1.0411,-1.0589,-1.0639,-1.042,0.0,0.0,-1.0731,-1.0933,-1.1069,-1.1137,-1.1042,-1.0976,-1.1096,-1.1128,-1.1128,-1.1139,-1.115,-1.1161,-1.1183,-1.1345,-1.1547,-1.145,-1.1461,-1.1324,-1.1417,-1.1444,-1.1449,-1.1444,-1.1455,-1.1449,-1.1455,-1.1438,-1.1566,-1.153,-1.1491,-1.1491,-1.1502,-1.1502,-1.1334,0.2671,0.2671,0.2664,0.2634,0.243,0.1782,0.1946,0.2602,0.2602,0.2602,0.2602,0.2602,0.2278,0.1953,0.1953,0.18,0.1485,0.1164,0.1006,0.1184,0.1877,0.1887,0.1031,0.1032,0.1034,0.104,0.1051,0.1058,0.1061,0.1072,0.0719,0.018,0.1453,0.2189,0.2188,0.2172,0.1807,0.109,0.1091,0.073,0.0,0.0,0.0,0.0,0.0,0.0,0.0,0.0,0.0,0.0,0.0,0.0,0.0,0.0,0.0,0.0,0.0,0.0,0.0,0.0,0.0,0.0,0.0,-0.9334,-0.9666,0.0,-0.9413,0.0,-1.0272,-1.0341,-1.0109,-1.0003,0.0,0.0,-1.0389,-1.0383,-1.0645,-1.1076,-1.1182,-1.0614,-1.0625,-1.0646,-1.0704,-1.1058,-1.1435,-1.1312,-1.1268,-1.1101,-1.1215,-1.1313,-1.1373,-1.1384,-1.1336,-1.1427,-1.1336,-1.1427,-1.1555,-1.1588,-1.1411,-1.1422,-1.1449,-1.1455,-1.1455,-1.1455,-1.1455,-1.1455,-1.1455,-1.1455,-1.1438,-1.1561,-1.155,-1.155,-1.155,-1.155,-1.155,0.2692,0.2692,0.2692,0.2673,0.2642,0.2146,0.2147,0.2642,0.2642,0.2642,0.2642,0.2642,0.2477,0.2148,0.2479,0.2321,0.2003,0.1855,0.2041,0.2054,0.2596,0.261,0.2087,0.2087,0.2092,0.2102,0.2115,0.2132,0.2151,0.2164,0.1813,0.1274,0.2382,0.2939,0.2938,0.2923,0.2752,0.2233,0.2214,0.2027,0.1296,0.055,0.0,0.0,0.0,0.0,0.0,0.0,0.0,0.0,0.0,0.0,0.0,0.0,-0.1493,0.0,0.0,0.0,0.0,0.0,0.0,0.0,0.0,0.0,0.0,0.0,-0.9468,-0.9923,-1.0291,-1.0319,-1.0073,-1.0142,-1.0389,-1.0509,-1.0517,-1.0656,-1.0895,-1.1306,-1.1378,-1.0918,-1.0929,-1.0945,-1.0993,-1.1351,-1.1575,-1.1516,-1.1302,-1.1281,-1.1351,-1.1455,-1.1536,-1.1542,-1.1512,-1.1614,-1.1539,-1.148,-1.1596,-1.1547,-1.1536,-1.152,-1.1465,-1.1455,-1.1455,-1.1455,-1.1455,-1.1455,-1.1455,-1.1455,-1.1455,-1.1455,-1.1455,-1.1455,-1.1455,-1.1455,-1.1455,0.2697,0.2692,0.2692,0.2692,0.2692,0.2692,0.2692,0.2692,0.2692,0.2692,0.2692,0.2692,0.2695,0.2698,0.2698,0.2701,0.2706,0.2736,0.275,0.2923,0.2955,0.2969,0.2969,0.2974,0.2814,0.284,0.2844,0.2872,0.2924,0.2926,0.2938,0.2961,0.2968,0.2973,0.2979,0.2977,0.2999,0.3044,0.3003,0.3169,0.3168,0.1293,0.0185,0.0,0.0,0.0,0.0,0.0,0.0,0.0,0.0,0.0,0.0,0.0,-0.3363,0.0,-1.1025,0.0,0.0,0.0,0.0,0.0,0.0,0.0,0.0,-0.962,-0.954,-1.0082,-0.9993,-1.0014,-1.0055,-1.0522,-1.0802,-1.0736,-1.0683,-1.0929,-1.1123,-1.1301,-1.1479,-1.1145,-1.115,-1.1188,-1.1461,-1.1472,-1.1516,-1.1427,-1.146,-1.1471,-1.1487,-1.158,-1.1667,-1.1677,-1.177,-1.1851,-1.1651,-1.1635,-1.1587,-1.1677,-1.1453,-1.1596,-1.1504,-1.1465,-1.1455,-1.1455,-1.1455,-1.1455,-1.1455,-1.1455,-1.1455,-1.1455,-1.1455,-1.1455,-1.1455,-1.1455,-1.1455,0.2716,0.2692,0.2692,0.2692,0.2692,0.2692,0.2692,0.2692,0.2692,0.2692,0.2692,0.2692,0.2706,0.2728,0.2729,0.2743,0.2767,0.2797,0.2811,0.2812,0.2842,0.2857,0.2859,0.2881,0.2894,0.2901,0.2926,0.2942,0.2954,0.2954,0.2957,0.2965,0.2987,0.2645,0.1917,0.0,0.0,0.0,0.3054,0.3073,0.3071,0.2683,0.1718,0.0,0.0,0.0,0.0,0.0,0.0,0.0,0.0,0.0,0.0,0.0,0.0,0.0,0.0,0.0,0.0,0.0,0.0,0.0,-1.0857,-1.0829,-1.059,-1.0345,-1.0351,-1.0485,-1.0224,-1.0209,-1.0522,-1.0986,-1.1413,-1.1266,-1.1202,-1.1139,-1.1226,-1.1417,-1.1456,-1.1378,-1.1389,-1.1395,-1.1411,-1.1422,-1.1433,-1.146,-1.1542,-1.1596,-1.1607,-1.171,-1.1813,-1.1906,-1.1944,-1.2146,-1.214,-1.2069,-1.2019,-1.1964,-1.1699,-1.1639,-1.1607,-1.152,-1.146,-1.146,-1.1455,-1.146,-1.1455,-1.1455,-1.1465,-1.146,-1.146,-1.1455,-1.1455,-1.146,-1.1455,0.2751,0.0,0.2737,0.2737,0.0,0.2721,0.2714,0.2713,0.2698,0.2701,0.2716,0.2731,0.2746,0.2761,0.2761,0.2769,0.2785,0.283,0.2851,0.2853,0.2897,0.2917,0.2917,0.2931,0.2938,0.2939,0.2954,0.2969,0.2983,0.2984,0.2624,0.2272,0.2474,0.2498,0.2338,0.291,0.2876,0.2255,0.2848,0.3052,0.3244,0.3067,0.269,0.1536,0.0566,0.0,0.0,0.0,0.0,0.0,0.0,0.0,0.0,0.0,0.0,-1.0202,-1.0677,-1.0661,-1.0656,-1.077,-1.0764,-1.0824,-1.1047,-1.1177,-1.1168,-1.0699,-1.0565,-1.0737,-1.0786,-1.0851,-1.1086,-1.1373,-1.1474,-1.153,-1.1417,-1.1302,-1.1351,-1.1539,-1.1566,-1.1438,-1.1455,-1.1455,-1.1455,-1.1693,-1.1721,-1.1732,-1.165,-1.1748,-1.1803,-1.1862,-1.1944,-1.2058,-1.208,-1.2267,-1.2262,-1.2229,-1.2157,-1.2102,-1.2035,-1.1792,-1.1732,-1.1677,-1.1618,-1.1563,-1.1542,-1.1531,-1.1471,-1.1504,-1.1542,-1.1552,-1.159,-1.1629,-1.1629,-1.1542,-1.1455,0.2804,0.28,0.2799,0.28,0.2797,0.2772,0.2762,0.2759,0.0,0.0,0.0,0.2787,0.2803,0.2806,0.2807,0.281,0.2818,0.2867,0.2889,0.2891,0.2939,0.2962,0.2962,0.2966,0.2969,0.2969,0.298,0.2998,0.3022,0.3028,0.2673,0.1938,0.2135,0.2534,0.3148,0.314,0.2713,0.1896,0.2652,0.3032,0.3221,0.3055,0.2887,0.291,0.1336,0.0376,0.0,0.0364,0.0359,0.0,0.0,0.0,0.0,0.0,-0.3281,-0.9968,-1.0709,-1.0851,-1.0768,-1.0667,-1.0813,-1.0911,-1.1101,-1.1235,-1.1546,-1.0867,-1.0598,-1.084,-1.1191,-1.1496,-1.1519,-1.1428,-1.1522,-1.1444,-1.1455,-1.1455,-1.1455,-1.1455,-1.1455,-1.1455,-1.1455,-1.1455,-1.146,-1.1743,-1.182,-1.1837,-1.1942,-1.1889,-1.1993,-1.2042,-1.2107,-1.2221,-1.2254,-1.2232,-1.2205,-1.2199,-1.2156,-1.2229,-1.219,-1.2146,-1.1879,-1.1835,-1.1781,-1.1683,-1.1656,-1.1596,-1.1514,-1.1542,-1.1421,-1.1421,-1.1502,-1.1754,-1.1737,-1.1601,-1.1471,0.2883,0.2861,0.2861,0.2861,0.286,0.2857,0.2855,0.2851,0.2795,0.2788,0.2818,0.2848,0.2875,0.2897,0.2897,0.2912,0.2936,0.2945,0.2949,0.2949,0.3142,0.3147,0.3149,0.2988,0.3001,0.3005,0.3052,0.3081,0.3086,0.311,0.2933,0.294,0.2941,0.3153,0.3175,0.313,0.3111,0.2928,0.3125,0.3125,0.3125,0.2346,0.1762,0.1763,0.2326,0.1713,0.0185,0.1663,0.1638,0.0,0.0,0.0,0.0,0.0,-0.3122,-1.0076,-1.1096,-1.1251,-1.1079,-1.079,-1.0731,-1.0747,-1.0949,-1.1196,-1.1513,-1.1199,-1.1041,-1.1373,-1.1406,-1.1472,-1.1566,-1.1594,-1.1433,-1.1449,-1.1455,-1.1455,-1.1455,-1.1455,-1.1455,-1.1455,-1.1455,-1.1455,-1.1476,-1.1748,-1.1837,-1.2046,-1.2024,-1.2009,-1.2129,-1.2237,-1.2346,-1.2256,-1.2288,-1.2245,-1.2324,-1.2133,-1.2259,-1.2167,-1.2245,-1.2184,-1.1971,-1.1911,-1.1851,-1.1803,-1.1748,-1.1672,-1.1629,-1.1536,-1.1547,-1.1552,-1.1765,-1.1945,-1.1776,-1.1715,-1.1688,0.2932,0.2921,0.2921,0.2921,0.292,0.2904,0.2897,0.2896,0.2886,0.2878,0.2878,0.2908,0.2928,0.2941,0.2941,0.2949,0.2962,0.2979,0.2986,0.2987,0.3002,0.32,0.3011,0.3025,0.304,0.3058,0.3084,0.3106,0.3122,0.3137,0.3159,0.319,0.3223,0.3246,0.3257,0.3232,0.3209,0.319,0.3142,0.3118,0.3119,0.2742,0.2161,0.1571,0.1564,0.0965,0.0,0.0936,0.1477,0.162,0.0539,0.0,0.0,0.0,-0.3386,-1.0555,-1.1384,-1.1511,-1.1324,-1.0966,-1.0886,-1.0767,-1.094,-1.1009,-1.0999,-1.1308,-1.145,-1.1456,-1.1505,-1.1572,-1.1449,-1.1455,-1.1455,-1.1455,-1.1455,-1.1455,-1.1455,-1.1455,-1.1455,-1.1455,-1.1455,-1.1482,-1.1547,-1.1661,-1.1947,-1.2197,-1.2173,-1.2129,-1.2248,-1.2314,-1.2346,-1.2341,-1.2335,-1.251,-1.246,-1.2259,-1.2232,-1.2178,-1.2129,-1.2091,-1.2091,-1.208,-1.208,-1.2031,-1.2004,-1.1993,-1.1753,-1.151,-1.1473,-1.1468,-1.1657,-1.1841,-1.1841,-1.1797,-1.1886,0.2981,0.2981,0.2981,0.2981,0.298,0.2957,0.2947,0.3133,0.2972,0.2969,0.2951,0.2972,0.2981,0.2981,0.2981,0.2981,0.2986,0.3006,0.3017,0.302,0.3041,0.3055,0.3062,0.3063,0.3078,0.3106,0.3115,0.3134,0.316,0.317,0.3198,0.325,0.3298,0.3324,0.333,0.3325,0.33,0.3258,0.3179,0.3131,0.3119,0.3141,0.2759,0.197,0.1182,0.039,0.0,0.0,0.075,0.2025,0.1286,0.0548,0.0,0.0,-0.2729,-0.8182,-0.884,-0.896,-0.893,-0.9504,-1.0145,-1.0755,-1.1089,-1.1127,-1.089,-1.1196,-1.1319,-1.1505,-1.1577,-1.1455,-1.1455,-1.1455,-1.1455,-1.1455,-1.1455,-1.1455,-1.1455,-1.1455,-1.1455,-1.1455,-1.1455,-1.1504,-1.1623,-1.1743,-1.2052,-1.2195,-1.2118,-1.2216,-1.2324,-1.2352,-1.251,-1.2477,-1.2449,-1.2455,-1.2612,-1.2444,-1.2254,-1.2227,-1.2243,-1.2259,-1.2275,-1.2341,-1.2357,-1.2275,-1.2292,-1.2275,-1.1831,-1.1757,-1.1731,-1.172,-1.1705,-1.171,-1.1882,-1.2047,-1.1938,0.3043,0.3044,0.3041,0.3044,0.3041,0.3039,0.3036,0.3037,0.3043,0.3043,0.3036,0.3041,0.3041,0.3044,0.3041,0.3041,0.3041,0.3047,0.3047,0.3048,0.3051,0.3067,0.3092,0.3093,0.311,0.314,0.3167,0.3194,0.3223,0.3249,0.3279,0.331,0.332,0.3336,0.3356,0.3335,0.3332,0.3352,0.3291,0.3234,0.3183,0.3183,0.3185,0.2984,0.2984,0.1972,0.0,0.0,0.0,0.0376,0.1687,0.1859,0.0,0.0,0.0,0.0,0.0,-0.107,-0.1411,-0.4224,-0.7399,-1.0244,-1.0708,-1.1089,-1.1277,-1.1104,-1.0911,-1.1449,-1.1449,-1.1476,-1.146,-1.1465,-1.1482,-1.1493,-1.1482,-1.1455,-1.1471,-1.1455,-1.1455,-1.1455,-1.1487,-1.1504,-1.148,-1.1797,-1.2129,-1.215,-1.2194,-1.2254,-1.2352,-1.2373,-1.2406,-1.2466,-1.2493,-1.2444,-1.2373,-1.224,-1.2229,-1.2368,-1.2428,-1.246,-1.2471,-1.2487,-1.2509,-1.2477,-1.2439,-1.2395,-1.233,-1.2183,-1.2091,-1.2015,-1.2161,-1.2223,-1.2212,-1.2102,-1.2085,0.3052,0.3052,0.3052,0.3052,0.3052,0.3052,0.3052,0.3052,0.3052,0.3052,0.3052,0.3052,0.3052,0.3052,0.3052,0.3052,0.3052,0.3052,0.3062,0.3078,0.308,0.3095,0.3123,0.3144,0.3167,0.3195,0.3225,0.3255,0.3284,0.3314,0.3336,0.335,0.3366,0.3381,0.339,0.3363,0.3345,0.3339,0.3298,0.3247,0.3198,0.3204,0.3213,0.3213,0.3215,0.2597,0.138,0.1175,0.1161,0.171,0.1509,0.1308,0.1658,0.0555,0.0,0.0,0.0,0.0,0.0,-0.1428,-0.2845,-0.4271,-0.6564,-0.8892,-1.1309,-1.1199,-1.1421,-1.1787,-1.1639,-1.1485,-1.1485,-1.1667,-1.1667,-1.1672,-1.1672,-1.1667,-1.1672,-1.1672,-1.1672,-1.1485,-1.1485,-1.1555,-1.1557,-1.1935,-1.2275,-1.2373,-1.2384,-1.2401,-1.2455,-1.246,-1.2482,-1.252,-1.2536,-1.2326,-1.2272,-1.2299,-1.231,-1.2681,-1.2698,-1.2737,-1.2553,-1.2602,-1.2634,-1.2634,-1.2634,-1.2645,-1.2683,-1.2748,-1.2626,-1.2449,-1.2582,-1.2684,-1.2606,-1.2494,-1.2341,0.307,0.3077,0.3077,0.3077,0.3077,0.3077,0.3077,0.3077,0.3077,0.3077,0.3077,0.3077,0.3077,0.3076,0.3069,0.3065,0.3066,0.3073,0.3088,0.311,0.3118,0.3138,0.3168,0.3198,0.3227,0.3254,0.3277,0.3303,0.3335,0.3365,0.3378,0.3382,0.3393,0.34,0.3396,0.337,0.3343,0.3321,0.3291,0.325,0.3209,0.3212,0.3219,0.3219,0.322,0.3012,0.2401,0.2186,0.2354,0.3081,0.1146,0.0567,0.1863,0.1311,0.0563,0.0,0.0,0.0,0.0,0.0,0.0,0.0,-0.2692,-0.5375,-0.7911,-1.0187,-1.1743,-1.2124,-1.1857,-1.1726,-1.1646,-1.183,-1.1824,-1.1824,-1.1819,-1.1819,-1.1813,-1.1819,-1.1625,-1.1446,-1.1609,-1.1721,-1.1951,-1.2357,-1.2515,-1.2515,-1.2526,-1.2558,-1.2574,-1.2585,-1.2591,-1.2623,-1.2634,-1.2602,-1.2358,-1.2374,-1.2574,-1.2792,-1.2814,-1.2852,-1.2634,-1.2716,-1.2754,-1.277,-1.2846,-1.2863,-1.2808,-1.2754,-1.2886,-1.2689,-1.2645,-1.2764,-1.2864,-1.2753,-1.2596,0.3112,0.3135,0.3138,0.3135,0.3138,0.3135,0.3137,0.3133,0.3135,0.3137,0.3134,0.3135,0.3138,0.3134,0.3111,0.3097,0.3099,0.3125,0.314,0.3146,0.3172,0.32,0.3228,0.3258,0.3287,0.3311,0.332,0.3337,0.3365,0.3393,0.341,0.3407,0.3384,0.337,0.3365,0.3339,0.3322,0.3315,0.3288,0.3257,0.3025,0.3201,0.319,0.3187,0.319,0.3204,0.3023,0.3028,0.32,0.314,0.1174,0.0193,0.0377,0.1881,0.1873,0.0,0.0,0.0,0.0,0.0,0.0,0.0,0.0,0.0,0.0,-0.6958,-1.0383,-1.1873,-1.1106,-1.1141,-1.1346,-1.17,-1.2063,-1.2041,-1.2024,-1.1841,-1.1646,-1.1862,-1.1641,-1.1651,-1.1683,-1.1987,-1.275,-1.278,-1.2737,-1.2564,-1.2553,-1.2585,-1.2678,-1.27,-1.2738,-1.2814,-1.283,-1.2792,-1.2808,-1.2836,-1.2891,-1.2908,-1.2963,-1.2841,-1.2868,-1.2879,-1.2873,-1.2873,-1.2879,-1.2879,-1.2863,-1.2814,-1.2935,-1.2732,-1.2599,-1.2748,-1.2825,-1.2974,-1.2803,0.3133,0.3142,0.3142,0.3142,0.3142,0.3142,0.3142,0.3142,0.3142,0.3142,0.3142,0.3142,0.3142,0.3144,0.3171,0.3161,0.3131,0.3159,0.3182,0.32,0.323,0.326,0.329,0.332,0.3339,0.3351,0.337,0.3384,0.3395,0.3407,0.3401,0.3384,0.3373,0.3358,0.3336,0.3307,0.3291,0.3288,0.3262,0.3223,0.318,0.3164,0.315,0.3134,0.3168,0.3193,0.3204,0.3221,0.3213,0.3174,0.2352,0.1352,0.019,0.0755,0.0751,0.0,0.0,0.0,0.0,0.0,0.0,0.0,0.0,0.0,0.0,-0.2596,-0.4301,0.0,0.0,-0.4361,0.0,-0.886,-1.2278,-1.2085,-1.208,-1.1876,-1.2063,-1.2063,-1.2058,-1.1882,-1.1978,-1.2319,-1.2785,-1.2814,-1.2952,-1.2759,-1.2759,-1.2776,-1.2803,-1.2825,-1.2835,-1.2873,-1.2884,-1.2863,-1.2996,-1.299,-1.2825,-1.283,-1.2863,-1.2868,-1.2884,-1.289,-1.2879,-1.2879,-1.289,-1.2884,-1.2873,-1.2863,-1.299,-1.2946,-1.2819,-1.283,-1.2924,-1.2825,-1.2852,0.3171,0.3171,0.3171,0.3171,0.3171,0.3171,0.3171,0.3171,0.3171,0.3171,0.3171,0.3171,0.3171,0.3179,0.3223,0.3225,0.3191,0.3217,0.3242,0.3261,0.3291,0.3315,0.3337,0.3367,0.3381,0.3384,0.3401,0.3411,0.3411,0.3411,0.3396,0.3367,0.3358,0.3336,0.3306,0.3276,0.3261,0.3255,0.324,0.3206,0.3163,0.3148,0.3129,0.3108,0.3138,0.317,0.3187,0.3206,0.3204,0.3172,0.3134,0.2127,0.0,0.0,0.0,0.0,0.0,0.0,0.0,0.0,0.0,0.0,0.0,0.0,0.0,0.0,0.0,0.0,0.0,0.0,0.0,-0.4961,-0.8196,-0.8573,-0.9336,-1.0868,-1.2015,-1.2205,-1.2194,-1.221,-1.2181,-1.2315,-1.2775,-1.2952,-1.2857,-1.289,-1.289,-1.289,-1.289,-1.289,-1.289,-1.289,-1.289,-1.289,-1.2857,-1.2852,-1.2863,-1.2873,-1.2873,-1.2884,-1.289,-1.289,-1.289,-1.289,-1.289,-1.289,-1.289,-1.289,-1.2846,-1.2979,-1.2814,-1.2857,-1.2825,-1.283,-1.2857,0.3228,0.3225,0.323,0.3224,0.3223,0.3221,0.3227,0.3223,0.3224,0.3221,0.3219,0.3225,0.3223,0.3235,0.3261,0.3273,0.3279,0.3303,0.3315,0.332,0.3348,0.3363,0.3369,0.3395,0.3407,0.3407,0.3411,0.3411,0.3411,0.3408,0.3392,0.3363,0.3333,0.3306,0.3275,0.3249,0.3234,0.3234,0.3231,0.3215,0.3189,0.3159,0.313,0.3104,0.3103,0.3127,0.3183,0.3189,0.3179,0.3153,0.3146,0.2141,0.0575,0.0,0.0,0.0,0.0,0.0,0.0,0.0,0.0,0.0,0.0,0.0,0.0,0.0,0.0,0.0,0.0,0.0,0.0,0.0,0.0,-0.057,-0.4181,-0.7426,-1.0298,-1.1647,-1.2227,-1.1878,-1.1452,-1.2158,-1.2613,-1.2963,-1.289,-1.2895,-1.2895,-1.2895,-1.2901,-1.2901,-1.2895,-1.289,-1.2895,-1.2901,-1.2895,-1.289,-1.289,-1.289,-1.2884,-1.289,-1.289,-1.289,-1.289,-1.289,-1.289,-1.289,-1.289,-1.289,-1.289,-1.2852,-1.2884,-1.2884,-1.2879,-1.2868,-1.2873,0.323,0.323,0.323,0.323,0.323,0.323,0.323,0.323,0.323,0.323,0.323,0.323,0.3242,0.3265,0.3292,0.3317,0.334,0.3369,0.3373,0.336,0.3384,0.3397,0.3399,0.3407,0.3411,0.3411,0.3411,0.3411,0.3408,0.3392,0.3365,0.3335,0.3306,0.3275,0.325,0.3235,0.323,0.323,0.323,0.3216,0.3189,0.3159,0.3138,0.3126,0.3089,0.3095,0.3153,0.3176,0.3183,0.3172,0.3174,0.2753,0.213,0.0773,0.0,0.0,0.0,0.0,0.0,0.0,0.0,0.0,0.0,0.0,0.0,0.0,0.0,0.0,0.0,0.0,0.0,0.0,0.0,0.0,-0.1143,0.0,0.0,0.0,-0.6678,-1.0404,-0.7385,-0.6667,-1.1102,-1.2642,-1.2305,-1.2516,-1.2516,-1.2516,-1.2722,-1.2511,-1.2928,-1.2928,-1.2928,-1.2917,-1.2912,-1.2906,-1.2906,-1.2901,-1.2895,-1.289,-1.289,-1.289,-1.289,-1.289,-1.289,-1.289,-1.289,-1.289,-1.289,-1.289,-1.289,-1.289,-1.289,-1.289,-1.289,0.323,0.323,0.323,0.323,0.323,0.323,0.323,0.323,0.323,0.323,0.323,0.323,0.3239,0.3265,0.3302,0.333,0.3354,0.3392,0.3401,0.3388,0.3401,0.3411,0.3411,0.3411,0.3411,0.3411,0.3411,0.3411,0.3411,0.3392,0.3367,0.3339,0.3318,0.3295,0.3266,0.3264,0.3264,0.3264,0.3265,0.3255,0.3231,0.3186,0.3164,0.3163,0.3096,0.3088,0.3138,0.3163,0.3172,0.3171,0.3171,0.3146,0.2909,0.0,0.0,0.0,0.0,0.0,0.0,0.0,0.0,0.0,0.0,0.0,0.0,0.0,0.0,0.0,0.0,0.0,0.0,0.0,0.0,0.0,0.0,0.0,0.0,0.0,0.0,-0.519,-0.3106,-0.3529,-0.6327,-0.8204,-0.8862,-0.9882,-1.0493,-1.0493,-1.0493,-1.0288,-1.0493,-1.1105,-1.212,-1.232,-1.2928,-1.2922,-1.2922,-1.2912,-1.2901,-1.2895,-1.289,-1.289,-1.289,-1.289,-1.289,-1.289,-1.289,-1.289,-1.289,-1.289,-1.289,-1.289,-1.289,-1.289,-1.289,0.323,0.323,0.323,0.323,0.323,0.323,0.323,0.323,0.323,0.323,0.323,0.323,0.3234,0.3247,0.3298,0.3325,0.3335,0.3385,0.3411,0.3408,0.3411,0.3411,0.3411,0.3411,0.3411,0.3411,0.3411,0.3411,0.3411,0.3403,0.3395,0.3365,0.3354,0.3348,0.3317,0.3318,0.3314,0.3311,0.3315,0.3313,0.3303,0.323,0.3195,0.3014,0.3118,0.3085,0.3134,0.315,0.3153,0.3152,0.3165,0.3153,0.2726,0.1163,0.0,0.0,0.0,0.0,0.0,0.0,0.0,0.0,0.0,0.0,0.0,0.0,0.0,0.0,0.0,0.0,0.0,0.0,0.0,0.0,0.0,0.0,0.0,0.0,0.0,0.0,0.0,0.0,0.0,0.0,-0.281,-0.4831,-0.6042,-0.6042,-0.6042,-0.6045,-0.604,0.0,0.0,-0.8672,-0.8266,-0.8263,-0.8869,-1.2928,-1.2917,-1.2906,-1.2895,-1.289,-1.289,-1.289,-1.289,-1.289,-1.289,-1.289,-1.289,-1.289,-1.289,-1.289,-1.289,-1.289,-1.289,0.323,0.323,0.323,0.323,0.323,0.323,0.3231,0.323,0.3231,0.3235,0.3231,0.323,0.3245,0.3268,0.3305,0.3332,0.336,0.3396,0.3411,0.3411,0.3411,0.3411,0.3411,0.3411,0.3411,0.3411,0.3411,0.3411,0.341,0.3393,0.3377,0.3366,0.335,0.3333,0.3321,0.3324,0.3321,0.3321,0.3322,0.3311,0.3284,0.3227,0.3193,0.319,0.3125,0.3107,0.3142,0.3165,0.32,0.3238,0.324,0.3228,0.2992,0.2562,0.1558,0.0,0.0,0.0,0.0,0.0,0.0,0.0,0.0,0.0,0.0,0.0,0.0,0.0,0.0,0.0,0.0,0.0,0.0,0.0,0.0,0.0,0.0,0.0,0.0,0.0,0.0,0.0,0.0,0.0,0.0,0.0,0.0,0.0,0.0,0.0,0.0,0.0,0.0,0.0,-0.3024,-0.3023,-0.5441,-1.1512,-1.2933,-1.2722,-1.2912,-1.2901,-1.2895,-1.289,-1.289,-1.289,-1.289,-1.289,-1.289,-1.289,-1.289,-1.289,-1.289,-1.289,-1.289,0.323,0.323,0.323,0.323,0.3232,0.3243,0.3249,0.3253,0.3264,0.3268,0.3268,0.3269,0.3279,0.3298,0.334,0.3367,0.3389,0.343,0.3449,0.345,0.3452,0.3438,0.3419,0.3411,0.3411,0.3411,0.3412,0.3411,0.341,0.3393,0.3386,0.3385,0.3367,0.3359,0.3363,0.3359,0.3359,0.336,0.3358,0.3344,0.3311,0.3242,0.322,0.3204,0.3149,0.3116,0.3159,0.3202,0.3243,0.3265,0.3262,0.3249,0.3231,0.3189,0.2558,0.1364,0.0,0.0,0.0,0.0,0.0,0.0,0.0,0.0,0.0,0.0,0.0,0.0,0.0,0.0,0.0,0.0,0.0,0.0,0.0,0.0,0.0,0.0,0.0,0.0,0.0,0.0,0.0,0.0,0.0,0.0,0.0,0.0,0.0,0.0,0.0,0.0,0.0,0.0,0.0,0.0,0.0,0.0,-1.0301,-1.0699,-1.2526,-1.2711,-1.2695,-1.2695,-1.289,-1.289,-1.289,-1.289,-1.289,-1.289,-1.289,-1.289,-1.289,-1.289,-1.289,0.3439,0.3239,0.3239,0.3239,0.3246,0.3268,0.328,0.3285,0.3305,0.3315,0.3315,0.3318,0.3314,0.3325,0.3366,0.3405,0.3412,0.346,0.3487,0.3493,0.3491,0.3472,0.3434,0.3433,0.3431,0.343,0.3423,0.3422,0.3422,0.3418,0.3414,0.3408,0.3407,0.3408,0.3401,0.3405,0.341,0.3404,0.3401,0.3375,0.3335,0.327,0.3238,0.3217,0.3167,0.3145,0.3191,0.3239,0.3276,0.328,0.3254,0.3249,0.3239,0.3213,0.3179,0.2754,0.156,0.0,0.0,0.0,0.0,0.0,0.0,0.0,0.0,0.0,0.0,0.0,0.0,0.0,0.0,0.0,0.0,0.0,0.0,0.0,0.0,0.0,0.0,0.0,0.0,0.0,0.0,0.0,0.0,0.0,0.0,0.0,0.0,0.0,0.0,0.0,0.0,0.0,0.0,0.0,0.0,0.0,0.0,-0.7468,-1.1526,-1.2326,-1.2505,-1.25,-1.27,-1.2895,-1.289,-1.289,-1.289,-1.289,-1.289,-1.289,-1.289,-1.289,-1.289,0.4915,0.3302,0.3302,0.3302,0.3302,0.3309,0.3311,0.3313,0.3318,0.3326,0.3322,0.3322,0.3324,0.3325,0.3367,0.3389,0.3418,0.3456,0.3478,0.3502,0.3504,0.3498,0.3483,0.3483,0.3482,0.3479,0.3482,0.3469,0.3453,0.3442,0.3434,0.3414,0.3411,0.3411,0.3411,0.3411,0.3411,0.3411,0.3411,0.3373,0.3314,0.328,0.3236,0.319,0.3171,0.3187,0.3217,0.3255,0.3285,0.3302,0.3305,0.3298,0.329,0.3251,0.3212,0.2983,0.2757,0.235,0.215,0.0,0.0,0.0,0.0,0.0,0.0,0.0,0.0,0.0,0.0,0.0,0.0,0.0,0.0,0.0,0.0,0.0,0.0,0.0,0.0,0.0,0.0,0.0,0.0,0.0,0.0,0.0,0.0,0.0,0.0,0.0,0.0,0.0,0.0,0.0,0.0,0.0,0.0,0.0,0.0,-0.4036,-0.8079,-1.0511,-0.9886,-1.1091,-1.2912,-1.2906,-1.2895,-1.289,-1.289,-1.289,-1.289,-1.289,-1.289,-1.289,-1.2868,0.7417,0.6417,0.539,0.4976,0.4773,0.3751,0.3343,0.3345,0.3359,0.3363,0.3363,0.3363,0.3363,0.3367,0.3395,0.342,0.344,0.3479,0.3516,0.3539,0.3544,0.3544,0.3543,0.3539,0.3534,0.351,0.3502,0.3486,0.3465,0.3456,0.344,0.3414,0.3411,0.3411,0.3411,0.3411,0.3411,0.3411,0.3411,0.3373,0.3309,0.328,0.3243,0.3185,0.3191,0.3216,0.3231,0.326,0.329,0.3315,0.3335,0.3343,0.3336,0.3298,0.3261,0.323,0.3186,0.3167,0.2763,0.2156,0.0,0.0,0.0,0.0,0.0,0.0,0.0,0.0,0.0,0.0,0.0,0.0,0.0,0.0,0.0,0.0,0.0,0.0,0.0,0.0,0.0,0.0,0.0,0.0,0.0,0.0,0.0,0.0,0.0,0.0,0.0,0.0,0.0,0.0,0.0,0.0,0.0,0.0,0.0,0.0,-0.4038,-0.5652,-0.6659,-0.8065,-0.9468,-1.2711,-1.2906,-1.2901,-1.289,-1.289,-1.289,-1.289,-1.289,-1.289,-1.2841,1.0364,0.9967,0.8103,0.7072,0.6457,0.4408,0.3371,0.3377,0.34,0.3404,0.3411,0.3411,0.3403,0.3415,0.3431,0.3449,0.3469,0.3505,0.3538,0.3554,0.3557,0.3561,0.3566,0.3565,0.3555,0.3517,0.3523,0.3504,0.3476,0.3461,0.3449,0.3419,0.3411,0.3411,0.3411,0.3411,0.3411,0.3411,0.3411,0.3381,0.3326,0.3295,0.3052,0.321,0.3212,0.3227,0.3238,0.3265,0.3296,0.3321,0.335,0.3363,0.3359,0.3337,0.3303,0.3269,0.3216,0.3198,0.3189,0.2968,0.2157,0.0388,0.0,0.0,0.0,0.0,0.0,0.0,0.0,0.0,0.0,0.0,0.0,0.0,0.0,0.0,0.0,0.0,0.0,0.0,0.0,0.0,0.0,0.0,0.0,0.0,0.0,0.0,0.0,0.0,0.0,0.0,0.0,0.0,0.0,0.0,0.0,0.0,0.0,0.0,0.0,-0.2221,-0.3632,-0.3828,-0.5637,-0.9267,-1.2305,-1.2901,-1.2895,-1.289,-1.289,-1.289,-1.289,-1.289,-1.2835,1.1754,1.0151,0.9729,0.8464,0.6563,0.4451,0.3396,0.3404,0.3408,0.3411,0.3411,0.3411,0.3411,0.3414,0.3415,0.3433,0.3461,0.3494,0.3514,0.3523,0.3525,0.3532,0.355,0.3553,0.3555,0.3574,0.3565,0.3535,0.3502,0.3493,0.3461,0.3423,0.3411,0.3411,0.3411,0.3411,0.3411,0.3411,0.3411,0.3381,0.3337,0.3309,0.3277,0.3225,0.3227,0.323,0.3243,0.3281,0.3317,0.3324,0.335,0.3363,0.3358,0.3336,0.3298,0.3255,0.3231,0.3217,0.3215,0.3197,0.2573,0.1569,0.0584,0.0,0.0,0.0,0.0,0.0,0.0,0.0,0.0,0.0,0.0,0.0,0.0,0.0,0.0,0.0,0.0,0.0,0.0,0.0,0.0,0.0,0.0,0.0,0.0,0.0,0.0,0.0,0.0,0.0,0.0,0.0,0.0,0.0,0.0,0.0,0.0,0.0,0.0,0.0,0.0,0.0,0.0,-0.7653,-1.0271,-1.2294,-1.2895,-1.289,-1.289,-1.2895,-1.2895,-1.2901,-1.2884,1.4587,1.358,1.252,1.0614,0.8074,0.4884,0.3404,0.3411,0.3411,0.3411,0.3411,0.3411,0.3411,0.3411,0.3411,0.3429,0.3454,0.3469,0.3487,0.3498,0.3504,0.3508,0.3521,0.3523,0.3529,0.354,0.3542,0.3535,0.3505,0.3502,0.3468,0.3426,0.3411,0.3411,0.3411,0.3411,0.3411,0.3411,0.3408,0.3389,0.3343,0.3318,0.3273,0.3243,0.323,0.323,0.3242,0.329,0.332,0.3329,0.3365,0.3367,0.335,0.3326,0.3299,0.326,0.3239,0.323,0.323,0.3216,0.2599,0.1585,0.059,0.0,0.0,0.0,0.0,0.0,0.0,0.0,0.0,0.0,0.0,0.0,0.0,0.0,0.0,0.0,0.0,0.0,0.0,0.0,0.0,0.0,0.0,0.0,0.0,0.0,0.0,0.0,0.0,0.0,0.0,0.0,0.0,0.0,0.0,0.0,0.0,0.0,0.0,0.0,0.0,0.0,0.0,0.0,-0.9878,-1.2711,-1.27,-1.2901,-1.2933,-1.295,-1.2928,-1.2912,-1.289,1.6978,1.6768,1.5066,1.2942,1.0403,0.6576,0.4886,0.4685,0.4898,0.5111,0.4685,0.4474,0.4261,0.405,0.3627,0.3425,0.3448,0.3448,0.346,0.3474,0.3479,0.3483,0.3493,0.3494,0.3499,0.3512,0.351,0.3499,0.3491,0.349,0.3461,0.3426,0.3411,0.3411,0.3411,0.3411,0.3411,0.3411,0.3411,0.3395,0.3354,0.3311,0.3266,0.3234,0.3231,0.3232,0.3247,0.3292,0.3324,0.3341,0.3366,0.3377,0.3332,0.3315,0.3298,0.3269,0.3243,0.3234,0.323,0.3231,0.2813,0.1792,0.0597,0.0,0.0,0.0,0.0,0.0,0.0,0.0,0.0,0.0,0.0,0.0,0.0,0.0,0.0,0.0,0.0,0.0,0.0,0.0,0.0,0.0,0.0,0.0,0.0,0.0,0.0,0.0,0.0,0.0,0.0,0.0,0.0,0.0,0.0,0.0,0.0,0.0,0.0,0.0,0.0,0.0,0.0,0.0,0.0,-1.2331,-1.2732,-1.2955,-1.2999,-1.3009,-1.2988,-1.2944,-1.2906,1.6978,1.6985,1.6768,1.5277,1.2937,1.0378,0.9326,0.9133,0.9141,0.9349,0.8713,0.7228,0.6382,0.5744,0.4048,0.3415,0.3418,0.342,0.3425,0.3434,0.3433,0.3444,0.346,0.3463,0.3475,0.3486,0.3494,0.3486,0.3471,0.3464,0.3448,0.3418,0.3411,0.3411,0.3411,0.3411,0.3411,0.3411,0.3411,0.3385,0.3339,0.332,0.3283,0.3247,0.3232,0.3242,0.3265,0.3302,0.3329,0.3358,0.3366,0.3356,0.3324,0.3294,0.3268,0.3245,0.3231,0.323,0.323,0.3231,0.3023,0.2199,0.0997,0.0,0.0,0.0,0.0,0.0,0.0,0.0,0.0,0.0,0.0,0.0,0.0,0.0,0.0,0.0,0.0,0.0,0.0,0.0,0.0,0.0,0.0,0.0,0.0,0.0,0.0,0.0,0.0,0.0,0.0,0.0,0.0,0.0,0.0,0.0,0.0,0.0,0.0,0.0,0.0,0.0,0.0,0.0,0.0,-1.0147,-1.1964,-1.3009,-1.3058,-1.3064,-1.3053,-1.2999,-1.2933,1.6978,1.6978,1.6978,1.5704,1.3791,1.3791,1.252,1.1046,1.2984,1.2555,1.0411,0.9345,0.8074,0.6592,0.4474,0.3412,0.3411,0.3407,0.3407,0.3623,0.3621,0.3628,0.3427,0.3431,0.3442,0.3666,0.345,0.3444,0.3437,0.3446,0.3442,0.3416,0.3411,0.3411,0.3411,0.3411,0.3411,0.3411,0.3408,0.3389,0.3354,0.3328,0.33,0.3258,0.324,0.325,0.3276,0.3305,0.3335,0.3363,0.338,0.3377,0.3348,0.3318,0.3288,0.326,0.3239,0.3231,0.3231,0.3232,0.3023,0.2816,0.2005,0.0,0.0,0.0,0.0,0.0,0.0,0.0,0.0,0.0,0.0,0.0,0.0,0.0,0.0,0.0,0.0,0.0,0.0,0.0,0.0,0.0,0.0,0.0,0.0,0.0,0.0,0.0,0.0,0.0,0.0,0.0,0.0,0.0,0.0,0.0,0.0,0.0,0.0,0.0,-0.3129,-0.3119,0.0,0.0,-0.6545,-0.9208,-1.2517,-1.3134,-1.3129,-1.3102,-1.308,-1.3053,-1.2988,1.6978,1.6978,1.6978,1.5914,1.4639,1.6367,1.509,1.2742,1.5332,1.5115,1.2535,1.1253,0.9768,0.7865,0.6172,0.5534,0.5109,0.4036,0.4039,0.4253,0.489,0.5103,0.5324,0.49,0.5115,0.4261,0.4485,0.4057,0.3422,0.3429,0.3431,0.3412,0.3411,0.3411,0.3411,0.3411,0.3411,0.3411,0.3411,0.3395,0.3365,0.3335,0.3306,0.3277,0.3258,0.3255,0.3285,0.3317,0.3348,0.3378,0.3397,0.3393,0.3363,0.3332,0.3302,0.3273,0.3247,0.3231,0.3231,0.3231,0.3232,0.3231,0.322,0.2395,0.0,0.0,0.0,0.0,0.0,0.0,0.0,0.0,0.0,0.0,0.0,0.0,0.0,0.0,0.0,0.0,0.0,0.0,0.0,0.0,0.0,0.0,0.0,0.0,0.0,0.0,0.0,0.0,0.0,0.0,0.0,0.0,0.0,0.0,0.0,0.0,0.0,0.0,-0.8843,-0.817,-0.6034,-0.7509,-0.96,-1.1451,-1.3075,-1.3216,-1.3366,-1.3124,-1.3096,-1.3064,-1.2813,1.6978,1.6978,1.6978,1.6768,1.6558,1.6978,1.6768,1.5914,1.6775,1.6775,1.5704,1.4218,1.1887,1.0192,0.9349,0.9137,0.9345,0.5298,0.5724,0.7214,0.8703,0.8282,0.7862,0.7653,0.7653,0.6169,0.5534,0.4685,0.3837,0.3416,0.3416,0.3411,0.3411,0.3411,0.3411,0.3411,0.3411,0.3411,0.3411,0.3399,0.337,0.334,0.3309,0.3287,0.3277,0.3287,0.3317,0.3344,0.3371,0.34,0.3408,0.3403,0.3374,0.3344,0.3315,0.3285,0.3254,0.3238,0.3232,0.3231,0.3231,0.3223,0.321,0.2987,0.236,0.0974,0.0,0.0,0.0,0.0,0.0,0.1388,0.1603,0.0,0.0,0.0,0.0,0.0,0.0,0.0,0.0,0.0,0.0,0.0,0.0,0.0,0.0,0.0,0.0,0.0,0.0,0.0,0.0,0.0,0.0,0.0,0.0,0.0,0.0,0.0,0.0,0.0,0.0,-1.119,-0.9236,-1.0787,-1.2084,-1.2771,-1.3276,-1.3438,-1.3388,-1.3311,-1.3042,-1.2988,-1.2955,1.6978,1.6978,1.6978,1.6978,1.6978,1.6978,1.6978,1.6978,1.6978,1.6978,1.6768,1.4639,1.3153,1.2098,1.0619,1.0196,0.9976,0.8682,0.8685,0.8911,0.9768,0.9776,0.8929,0.7228,0.5322,0.5109,0.4898,0.4473,0.3624,0.3411,0.3411,0.3411,0.3411,0.3411,0.3411,0.3411,0.3411,0.3411,0.3411,0.3403,0.339,0.3348,0.3324,0.3333,0.3285,0.3306,0.3341,0.3358,0.3384,0.3403,0.3411,0.3401,0.3386,0.3359,0.3329,0.3299,0.3269,0.3247,0.3232,0.323,0.323,0.3228,0.3217,0.3193,0.3149,0.176,0.0774,0.0,0.0,0.0,0.0,0.1783,0.26,0.1812,0.0,0.0,0.0,0.0,0.0,0.0,0.0,0.0,0.0,0.0,0.0,0.0,0.0,0.0,0.0,0.0,0.0,0.0,0.0,0.0,0.0,0.0,0.0,0.0,0.0,0.0,0.0,0.0,0.0,0.0,-1.1158,-1.134,-1.172,-1.3118,-1.3482,-1.3454,-1.3366,-1.3053,-1.2988,-1.2928,-1.2906,1.6978,1.6978,1.6978,1.6978,1.6978,1.6978,1.6978,1.6978,1.6978,1.6978,1.6978,1.5277,1.4639,1.4002,1.3158,1.252,1.2731,1.229,1.2295,1.2515,1.2525,1.0614,0.8498,0.7441,0.7228,0.5109,0.4261,0.4474,0.3411,0.3411,0.3411,0.3411,0.3411,0.3411,0.3411,0.3411,0.3411,0.3411,0.3411,0.3411,0.3403,0.3366,0.3341,0.3358,0.3325,0.3326,0.3358,0.3375,0.3392,0.3405,0.3411,0.3405,0.339,0.3369,0.334,0.331,0.328,0.3253,0.3236,0.323,0.323,0.323,0.3217,0.3189,0.296,0.2155,0.0968,0.0,0.0,0.0,0.0,0.158,0.2794,0.2212,0.1413,0.0,0.0,0.0,0.0,0.0,0.0,0.0,0.0,0.0,0.0,0.0,0.0,0.0,0.0,0.0,0.0,0.0,0.0,0.0,0.0,0.0,0.0,0.0,0.0,0.0,0.0,0.0,0.0,0.0,-0.7295,-0.9748,-1.1592,-1.3027,-1.346,-1.3482,-1.314,-1.2977,-1.2955,-1.2901,-1.2901,1.6978,1.6978,1.6978,1.6978,1.6978,1.6978,1.6978,1.6978,1.6978,1.6978,1.6978,1.6558,1.6558,1.6551,1.5914,1.5704,1.5704,1.6124,1.6131,1.571,1.4218,1.0791,0.8675,0.8051,0.7653,0.7016,0.5744,0.4473,0.3411,0.3411,0.3411,0.3411,0.3411,0.3411,0.3411,0.3411,0.3411,0.3411,0.3411,0.3411,0.3404,0.3377,0.3366,0.3369,0.3358,0.3356,0.3374,0.3392,0.3404,0.341,0.3411,0.34,0.3375,0.3351,0.3321,0.329,0.3257,0.3236,0.323,0.323,0.323,0.3228,0.3216,0.3185,0.2951,0.2145,0.1159,0.0,0.0,0.0,0.0,0.1181,0.2188,0.2611,0.1815,0.0,0.0,0.0,0.0,0.0,0.0,0.0,0.0,0.0,0.0,0.0,0.0,0.0,0.0,0.0,0.0,0.0,0.0,0.0,0.0,0.0,0.0,0.0,0.0,0.0,0.0,0.0,0.0,-0.29,-0.5984,-1.0679,-1.2129,-1.3172,-1.3156,-1.3322,-1.3026,-1.2912,-1.289,-1.289,-1.289,1.6978,1.6978,1.6978,1.6978,1.6978,1.6978,1.6978,1.6978,1.6978,1.6978,1.6978,1.6978,1.6978,1.6978,1.6978,1.6978,1.6978,1.6978,1.6985,1.6584,1.4224,1.1464,0.8703,0.6796,0.6382,0.5111,0.4474,0.4474,0.3411,0.3411,0.3411,0.3411,0.3411,0.3411,0.3411,0.3411,0.3411,0.3411,0.3411,0.3411,0.3408,0.3385,0.3375,0.3393,0.3378,0.3377,0.3392,0.3407,0.3411,0.3411,0.3411,0.3396,0.3373,0.3348,0.3333,0.3305,0.3276,0.325,0.3238,0.323,0.323,0.3225,0.3219,0.3191,0.315,0.2156,0.1163,0.0,0.0,0.0,0.0,0.0,0.2973,0.3015,0.2424,0.1414,0.0,0.0,0.0,0.0,0.0,0.0,0.0,0.0,0.0,0.0,0.0,0.0,0.0,0.0,0.0,0.0,0.0,0.0,0.0,0.0,0.0,0.0,0.0,0.0,0.0,0.0,-0.6744,-0.8191,-0.9999,-1.1802,-1.2429,-1.3037,-1.2988,-1.2928,-1.2901,-1.289,-1.289,-1.289,-1.289,1.6978,1.6978,1.6978,1.6978,1.6978,1.6978,1.6978,1.6978,1.6978,1.6558,1.6131,1.6558,1.6341,1.6124,1.6551,1.6978,1.6978,1.6978,1.6998,1.5952,1.0382,0.8058,0.6374,0.5749,0.5111,0.3837,0.3411,0.3411,0.3411,0.3411,0.3411,0.3411,0.3411,0.3411,0.3411,0.3411,0.3411,0.3411,0.3411,0.3411,0.3407,0.3397,0.3393,0.34,0.3397,0.3392,0.3405,0.3411,0.3411,0.3411,0.3407,0.3396,0.3375,0.3354,0.3129,0.3307,0.3276,0.3255,0.3249,0.3232,0.3232,0.323,0.323,0.3201,0.3157,0.2552,0.194,0.1344,0.0955,0.0,0.0,0.2942,0.297,0.3213,0.2828,0.202,0.0,0.0,0.0,0.0,0.0,0.0,0.0,0.0,0.0,0.0,0.0,0.0,0.0,0.0,0.0,0.0,0.0,0.0,0.0,0.0,0.0,0.0,0.0,0.0,0.0,-0.5079,-0.9334,-1.2982,-1.2574,-1.2357,-1.2727,-1.2901,-1.2906,-1.2906,-1.2895,-1.289,-1.289,-1.289,-1.289,1.6978,1.6978,1.6978,1.6978,1.6978,1.6978,1.6978,1.6978,1.6978,1.5914,1.4002,1.6341,1.5914,1.4429,1.5914,1.6341,1.6564,1.6564,1.7019,1.444,0.847,0.5724,0.4882,0.5317,0.4473,0.3837,0.3411,0.3411,0.3411,0.3411,0.3411,0.3411,0.3411,0.3411,0.3411,0.3411,0.3411,0.3411,0.3411,0.3411,0.3408,0.3408,0.3407,0.341,0.3407,0.3405,0.3411,0.3411,0.3411,0.3411,0.3411,0.3392,0.3369,0.3339,0.3309,0.3281,0.3255,0.3257,0.3261,0.3246,0.3232,0.323,0.323,0.3195,0.3167,0.2949,0.2723,0.2502,0.2486,0.2708,0.313,0.3148,0.3167,0.3201,0.323,0.2626,0.2222,0.0,0.0,0.0,0.0,0.0,0.0,0.0,0.0,0.0,0.0,0.0,0.0,0.0,0.0,0.0,0.0,0.0,0.0,0.0,0.0,0.0,0.0,0.0,0.0,-0.6272,-1.0331,-1.2971,-1.2944,-1.2917,-1.2901,-1.2895,-1.289,-1.289,-1.289,-1.289,-1.289,-1.289,-1.289,1.6978,1.6978,1.6978,1.6978,1.6978,1.6978,1.6978,1.6978,1.6978,1.6551,1.6131,1.6768,1.5704,1.3791,1.4218,1.358,1.4024,1.5121,1.6657,1.3418,0.7423,0.4674,0.3617,0.4047,0.3837,0.3624,0.3411,0.3411,0.3411,0.3411,0.3411,0.3411,0.3411,0.3411,0.3411,0.3411,0.3411,0.3411,0.3411,0.3411,0.3411,0.3411,0.3411,0.3411,0.3411,0.3411,0.3411,0.3411,0.3411,0.3411,0.3411,0.3397,0.3369,0.3356,0.334,0.331,0.3284,0.3268,0.3269,0.3247,0.323,0.323,0.323,0.3212,0.3182,0.3153,0.3126,0.3092,0.3063,0.3088,0.312,0.3144,0.317,0.3201,0.3225,0.303,0.2626,0.2626,0.202,0.1818,0.1212,0.0,0.0,0.0,0.0,0.0,0.0,0.0,0.0,0.0,0.0,0.0,0.0,0.0,0.0,0.0,0.0,0.0,0.0,0.0,0.0,-0.5659,-1.073,-1.2955,-1.2928,-1.2912,-1.2895,-1.289,-1.289,-1.289,-1.289,-1.289,-1.289,-1.289,-1.289,1.6978,1.6978,1.6978,1.6978,1.6978,1.6978,1.6978,1.6978,1.6978,1.6558,1.5914,1.6558,1.5277,1.2731,1.2942,1.2731,1.083,1.255,1.3857,1.1935,0.6804,0.4469,0.3408,0.3411,0.3411,0.3411,0.3411,0.3411,0.3411,0.3411,0.3411,0.3411,0.3411,0.3411,0.3411,0.3411,0.3411,0.3411,0.3411,0.3411,0.3411,0.3411,0.3411,0.3411,0.3411,0.3411,0.3411,0.3411,0.3411,0.3411,0.3411,0.3405,0.3381,0.3374,0.3363,0.3332,0.3296,0.3287,0.3285,0.3253,0.3238,0.323,0.323,0.3221,0.3197,0.3168,0.3133,0.3099,0.3077,0.307,0.3104,0.3138,0.3174,0.3208,0.322,0.3231,0.3232,0.3232,0.303,0.2828,0.0,0.0,0.0,0.0,0.0,0.0,0.0,0.0,0.0,0.0,0.0,0.0,0.0,0.0,0.0,0.0,0.0,0.0,0.0,0.0,0.0,-0.5657,-1.1133,-1.2743,-1.2917,-1.2901,-1.289,-1.289,-1.289,-1.289,-1.289,-1.289,-1.289,-1.289,-1.289,1.6978,1.6985,1.6992,1.7005,1.6998,1.7005,1.6998,1.6978,1.6978,1.5914,1.485,1.6131,1.4856,1.2309,1.2942,1.1887,0.998,0.9776,0.9572,0.9587,0.5742,0.3405,0.341,0.3411,0.3411,0.3411,0.3411,0.3411,0.3411,0.3411,0.3411,0.3411,0.3411,0.3411,0.3411,0.3411,0.3411,0.3411,0.3411,0.3411,0.3411,0.3411,0.3411,0.3411,0.3411,0.3411,0.3411,0.3411,0.3411,0.3411,0.3411,0.3411,0.34,0.3381,0.3369,0.3352,0.3315,0.3303,0.3296,0.3268,0.3242,0.3232,0.323,0.3228,0.3208,0.3171,0.3133,0.3108,0.3086,0.3076,0.31,0.3131,0.3164,0.3195,0.3216,0.3225,0.3231,0.3231,0.3232,0.2828,0.0,0.0,0.0,0.0,0.0,0.0,0.0,0.0,0.0,0.0,0.0,0.0,0.0,0.0,0.0,0.0,0.0,0.0,0.0,0.0,0.0,0.0,-1.1944,-1.2537,-1.2917,-1.2901,-1.289,-1.289,-1.289,-1.289,-1.289,-1.289,-1.289,-1.289,-1.289,1.6978,1.6992,1.7093,1.7141,1.6922,1.7141,1.708,1.6978,1.6978,1.6564,1.6341,1.6558,1.5487,1.3153,1.3153,1.1671,0.8498,0.6793,0.5315,0.5747,0.4045,0.3831,0.3411,0.3623,0.3411,0.3411,0.3411,0.3411,0.3411,0.3411,0.3411,0.3411,0.3411,0.3411,0.3411,0.3411,0.3411,0.3411,0.3411,0.3411,0.3411,0.3411,0.3411,0.3411,0.3411,0.3411,0.3411,0.3411,0.3411,0.3411,0.3411,0.3411,0.341,0.3382,0.3382,0.3385,0.3341,0.3321,0.3305,0.3281,0.3253,0.3236,0.3232,0.3231,0.3212,0.317,0.3137,0.3118,0.31,0.3092,0.3095,0.3125,0.3156,0.3185,0.3212,0.3221,0.323,0.3231,0.3231,0.303,0.2626,0.0,0.0,0.0,0.0,0.0,0.0,0.0,0.0,0.0,0.0,0.0,0.0,0.0,0.0,0.0,0.0,0.0,0.0,0.0,0.0,0.0,-0.989,-1.212,-1.2917,-1.2901,-1.289,-1.289,-1.289,-1.289,-1.289,-1.289,-1.289,-1.289,-1.289,1.7175,1.7188,1.7256,1.729,1.729,1.729,1.7249,1.7188,1.7175,1.7175,1.7141,1.6835,1.5704,1.3791,1.3575,1.2098,0.8071,0.4879,0.4243,0.3825,0.5322,0.4892,0.4682,0.4689,0.4048,0.3837,0.3411,0.3411,0.3416,0.3411,0.3411,0.3414,0.3414,0.3414,0.3414,0.3412,0.3412,0.3411,0.3411,0.3411,0.3411,0.3411,0.3411,0.3411,0.3411,0.3411,0.3411,0.3411,0.3411,0.3411,0.3411,0.3411,0.341,0.3397,0.3397,0.3389,0.3359,0.3321,0.331,0.329,0.3262,0.3253,0.325,0.3254,0.3268,0.3227,0.3168,0.3145,0.3106,0.3092,0.31,0.3125,0.3155,0.3185,0.321,0.3227,0.323,0.3231,0.3231,0.3029,0.2828,0.0,0.0,0.0,0.0,0.0,0.0,0.0,0.0,0.0,0.0,0.0,0.0,0.0,0.0,0.0,0.0,0.0,0.0,0.0,0.0,0.0,-0.7449,-1.0891,-1.2917,-1.2895,-1.289,-1.289,-1.289,-1.289,-1.289,-1.289,-1.289,-1.289,-1.289,1.7426,1.7446,1.7453,1.7453,1.7446,1.7446,1.7433,1.7412,1.7412,1.7405,1.7372,1.7148,1.576,1.4663,1.4024,1.2319,1.0614,0.8692,0.6568,0.5938,0.8724,0.8957,0.8113,0.6831,0.5995,0.4717,0.3862,0.3647,0.3435,0.3434,0.3435,0.3425,0.3422,0.3423,0.3419,0.3418,0.342,0.3414,0.3411,0.3411,0.3411,0.3411,0.3411,0.3411,0.3411,0.3411,0.3411,0.3411,0.3411,0.3411,0.3411,0.3411,0.3411,0.3407,0.3408,0.3399,0.3375,0.3345,0.3325,0.3295,0.3283,0.3276,0.328,0.3287,0.3299,0.3275,0.3216,0.3164,0.3125,0.31,0.3108,0.3125,0.3155,0.3185,0.3209,0.323,0.323,0.323,0.323,0.323,0.3231,0.3032,0.2424,0.1212,0.0,0.0,0.0,0.0,0.0,0.0,0.0,0.0,0.0,0.0,0.0,0.0,0.0,0.0,0.0,0.0,0.0,0.0,-0.7653,-1.1507,-1.2922,-1.2895,-1.289,-1.289,-1.289,-1.289,-1.289,-1.289,-1.289,-1.289,-1.289,1.7494,1.7609,1.7602,1.7602,1.7602,1.7609,1.7534,1.7433,1.7426,1.7419,1.7426,1.7385,1.6849,1.6511,1.6504,1.5193,1.3211,1.2339,1.1258,1.0196,1.1556,1.2889,1.2487,0.9487,0.8236,0.651,0.4558,0.3483,0.3468,0.3475,0.3483,0.3479,0.348,0.3471,0.3449,0.3445,0.3435,0.3425,0.3412,0.3411,0.3411,0.3411,0.3411,0.3411,0.3411,0.3411,0.3411,0.3411,0.3411,0.3411,0.3411,0.3411,0.3411,0.3411,0.3411,0.3408,0.3385,0.337,0.3344,0.3325,0.3317,0.331,0.3313,0.3315,0.3322,0.332,0.3258,0.3191,0.3149,0.311,0.3111,0.3129,0.3155,0.3186,0.3215,0.3225,0.323,0.323,0.323,0.3231,0.3232,0.3232,0.3032,0.202,0.0,0.0,0.0,0.0,0.0,0.0,0.0,0.0808,0.101,0.0,0.0,0.0,0.0,0.0,0.0,0.0,0.0,0.0,-0.7657,-1.1512,-1.2917,-1.2895,-1.289,-1.289,-1.289,-1.289,-1.289,-1.289,-1.289,-1.289,-1.289]}]]